Time,TemperatureF,DewpointF,PressureIn,WindDirection,WindDirectionDegrees,WindSpeedMPH,WindSpeedGustMPH,Humidity,HourlyPrecipIn,Conditions,Clouds,dailyrainin,SoftwareType,DateUTC
2013-02-04 00:00:00,43.2,28.6,29.61,NNW,339,0.0,1.0,56,0.00,,---,0.04,VWS V14.01,2013-02-04 05:00:00,
2013-02-04 00:01:00,43.1,28.5,29.61,NNW,339,0.0,0.0,56,0.00,,---,0.00,VWS V14.01,2013-02-04 05:01:00,
2013-02-04 00:02:00,43.1,28.5,29.61,NNW,339,0.0,0.0,56,0.00,,---,0.00,VWS V14.01,2013-02-04 05:02:00,
2013-02-04 00:03:00,43.1,28.5,29.61,NNW,339,0.0,0.0,56,0.00,,---,0.00,VWS V14.01,2013-02-04 05:03:00,
2013-02-04 00:04:00,43.1,28.5,29.61,NNW,339,0.0,0.0,56,0.00,,---,0.00,VWS V14.01,2013-02-04 05:04:00,
2013-02-04 00:05:00,43.1,28.5,29.61,NNW,339,0.0,0.0,56,0.00,,---,0.00,VWS V14.01,2013-02-04 05:05:00,
2013-02-04 00:06:00,43.0,28.4,29.61,NNW,339,0.0,0.0,56,0.00,,---,0.00,VWS V14.01,2013-02-04 05:06:00,
2013-02-04 00:07:00,42.9,28.3,29.60,NNW,339,0.0,0.0,56,0.00,,---,0.00,VWS V14.01,2013-02-04 05:07:00,
2013-02-04 00:08:00,42.9,28.7,29.61,NNW,339,0.0,0.0,57,0.00,,---,0.00,VWS V14.01,2013-02-04 05:08:00,
2013-02-04 00:09:00,42.9,28.7,29.60,NNW,339,0.0,0.0,57,0.00,,---,0.00,VWS V14.01,2013-02-04 05:09:00,
2013-02-04 00:10:00,42.9,28.7,29.60,NNW,339,0.0,0.0,57,0.00,,---,0.00,VWS V14.01,2013-02-04 05:10:00,
2013-02-04 00:11:00,42.9,28.7,29.61,NNW,339,0.0,0.0,57,0.00,,---,0.00,VWS V14.01,2013-02-04 05:11:00,
2013-02-04 00:12:00,42.9,28.7,29.60,NNW,339,0.0,0.0,57,0.00,,---,0.00,VWS V14.01,2013-02-04 05:12:00,
2013-02-04 00:13:00,42.8,28.6,29.61,NNW,339,0.0,0.0,57,0.00,,---,0.00,VWS V14.01,2013-02-04 05:13:00,
2013-02-04 00:14:00,42.7,28.5,29.61,NNW,339,0.0,0.0,57,0.00,,---,0.00,VWS V14.01,2013-02-04 05:14:00,
2013-02-04 00:15:00,42.5,28.8,29.61,NNW,339,0.0,0.0,58,0.00,,---,0.00,VWS V14.01,2013-02-04 05:15:00,
2013-02-04 00:16:00,42.3,28.6,29.61,NNW,339,0.0,0.0,58,0.00,,---,0.00,VWS V14.01,2013-02-04 05:16:00,
2013-02-04 00:17:00,42.1,28.4,29.61,NNW,339,0.0,0.0,58,0.00,,---,0.00,VWS V14.01,2013-02-04 05:17:00,
2013-02-04 00:18:00,42.0,28.3,29.61,NNW,339,0.0,0.0,58,0.00,,---,0.00,VWS V14.01,2013-02-04 05:18:00,
2013-02-04 00:19:00,42.0,28.7,29.61,NNW,339,0.0,0.0,59,0.00,,---,0.00,VWS V14.01,2013-02-04 05:19:00,
2013-02-04 00:20:00,41.9,28.6,29.61,NNW,339,0.0,0.0,59,0.00,,---,0.00,VWS V14.01,2013-02-04 05:20:00,
2013-02-04 00:21:00,41.9,28.6,29.61,NNW,339,0.0,0.0,59,0.00,,---,0.00,VWS V14.01,2013-02-04 05:21:00,
2013-02-04 00:22:00,41.8,28.5,29.61,NNW,339,0.0,0.0,59,0.00,,---,0.00,VWS V14.01,2013-02-04 05:22:00,
2013-02-04 00:23:00,41.7,28.4,29.61,NNW,339,0.0,0.0,59,0.00,,---,0.00,VWS V14.01,2013-02-04 05:23:00,
2013-02-04 00:24:00,41.7,28.4,29.61,NNW,339,0.0,0.0,59,0.00,,---,0.00,VWS V14.01,2013-02-04 05:24:00,
2013-02-04 00:25:00,41.7,28.4,29.61,NNW,339,0.0,0.0,59,0.00,,---,0.00,VWS V14.01,2013-02-04 05:25:00,
2013-02-04 00:26:00,41.7,28.9,29.61,NNW,339,0.0,0.0,60,0.00,,---,0.00,VWS V14.01,2013-02-04 05:26:00,
2013-02-04 00:27:00,41.7,28.4,29.61,NNW,339,0.0,0.0,59,0.00,,---,0.00,VWS V14.01,2013-02-04 05:27:00,
2013-02-04 00:28:00,41.7,28.9,29.61,NNW,339,0.0,0.0,60,0.00,,---,0.00,VWS V14.01,2013-02-04 05:28:00,
2013-02-04 00:29:00,41.6,28.8,29.61,NNW,339,0.0,0.0,60,0.00,,---,0.00,VWS V14.01,2013-02-04 05:29:00,
2013-02-04 00:30:00,41.6,28.8,29.61,NNW,339,0.0,0.0,60,0.00,,---,0.00,VWS V14.01,2013-02-04 05:30:00,
2013-02-04 00:31:00,41.6,29.2,29.61,NNW,339,0.0,0.0,61,0.00,,---,0.00,VWS V14.01,2013-02-04 05:31:00,
2013-02-04 00:32:00,41.5,29.1,29.61,NNW,339,0.0,0.0,61,0.00,,---,0.00,VWS V14.01,2013-02-04 05:32:00,
2013-02-04 00:33:00,41.5,29.1,29.61,NNW,339,0.0,0.0,61,0.00,,---,0.00,VWS V14.01,2013-02-04 05:33:00,
2013-02-04 00:34:00,41.5,29.1,29.61,NNW,339,0.0,0.0,61,0.00,,---,0.00,VWS V14.01,2013-02-04 05:34:00,
2013-02-04 00:35:00,41.5,29.1,29.61,NNW,339,0.0,0.0,61,0.00,,---,0.00,VWS V14.01,2013-02-04 05:35:00,
2013-02-04 00:36:00,41.5,29.1,29.61,NNW,339,0.0,0.0,61,0.00,,---,0.00,VWS V14.01,2013-02-04 05:36:00,
2013-02-04 00:37:00,41.7,29.3,29.61,NNW,339,0.0,0.0,61,0.00,,---,0.00,VWS V14.01,2013-02-04 05:37:00,
2013-02-04 00:38:00,41.9,29.5,29.61,NNW,339,0.0,0.0,61,0.00,,---,0.00,VWS V14.01,2013-02-04 05:38:00,
2013-02-04 00:39:00,42.1,29.2,29.61,NNW,339,0.0,0.0,60,0.00,,---,0.00,VWS V14.01,2013-02-04 05:39:00,
2013-02-04 00:40:00,42.2,29.3,29.61,NNW,339,0.0,0.0,60,0.00,,---,0.00,VWS V14.01,2013-02-04 05:40:00,
2013-02-04 00:41:00,42.3,29.4,29.61,NNW,339,0.0,0.0,60,0.00,,---,0.00,VWS V14.01,2013-02-04 05:41:00,
2013-02-04 00:42:00,42.3,29.4,29.61,NNW,339,0.0,0.0,60,0.00,,---,0.00,VWS V14.01,2013-02-04 05:42:00,
2013-02-04 00:43:00,42.3,29.4,29.61,NNW,339,0.0,0.0,60,0.00,,---,0.00,VWS V14.01,2013-02-04 05:43:00,
2013-02-04 00:44:00,42.2,29.3,29.61,NNW,339,0.0,0.0,60,0.00,,---,0.00,VWS V14.01,2013-02-04 05:44:00,
2013-02-04 00:45:00,42.1,29.2,29.61,NNW,339,0.0,0.0,60,0.00,,---,0.00,VWS V14.01,2013-02-04 05:45:00,
2013-02-04 00:46:00,42.1,29.2,29.61,NNW,339,0.0,0.0,60,0.00,,---,0.00,VWS V14.01,2013-02-04 05:46:00,
2013-02-04 00:47:00,42.1,29.2,29.61,NNW,339,0.0,0.0,60,0.00,,---,0.00,VWS V14.01,2013-02-04 05:47:00,
2013-02-04 00:48:00,42.2,28.9,29.61,NNW,339,0.0,0.0,59,0.00,,---,0.00,VWS V14.01,2013-02-04 05:48:00,
2013-02-04 00:49:00,42.3,29.0,29.61,NNW,339,0.0,0.0,59,0.00,,---,0.00,VWS V14.01,2013-02-04 05:49:00,
2013-02-04 00:50:00,42.3,29.0,29.61,NNW,339,0.0,0.0,59,0.00,,---,0.00,VWS V14.01,2013-02-04 05:50:00,
2013-02-04 00:51:00,42.3,29.0,29.61,NNW,339,0.0,0.0,59,0.00,,---,0.00,VWS V14.01,2013-02-04 05:51:00,
2013-02-04 00:52:00,42.4,29.1,29.61,NNW,339,0.0,0.0,59,0.00,,---,0.00,VWS V14.01,2013-02-04 05:52:00,
2013-02-04 00:53:00,42.4,29.1,29.61,NNW,339,0.0,0.0,59,0.00,,---,0.00,VWS V14.01,2013-02-04 05:53:00,
2013-02-04 00:54:00,42.4,29.1,29.61,NNW,339,0.0,0.0,59,0.00,,---,0.00,VWS V14.01,2013-02-04 05:54:00,
2013-02-04 00:55:00,42.4,29.1,29.61,NNW,339,0.0,1.0,59,0.00,,---,0.00,VWS V14.01,2013-02-04 05:55:00,
2013-02-04 00:56:00,42.5,29.2,29.61,NNW,339,0.0,1.0,59,0.00,,---,0.00,VWS V14.01,2013-02-04 05:56:00,
2013-02-04 00:57:00,42.5,29.2,29.61,NNW,339,0.0,1.0,59,0.00,,---,0.00,VWS V14.01,2013-02-04 05:57:00,
2013-02-04 00:58:00,42.5,29.2,29.61,NNW,339,0.0,1.0,59,0.00,,---,0.00,VWS V14.01,2013-02-04 05:58:00,
2013-02-04 00:59:00,42.4,29.1,29.61,NNW,339,0.0,1.0,59,0.00,,---,0.00,VWS V14.01,2013-02-04 05:59:00,
2013-02-04 01:00:00,42.4,29.1,29.61,NNW,339,0.0,1.0,59,0.00,,---,0.00,VWS V14.01,2013-02-04 06:00:00,
2013-02-04 01:01:00,42.4,29.1,29.61,NNW,339,0.0,0.0,59,0.00,,---,0.00,VWS V14.01,2013-02-04 06:01:00,
2013-02-04 01:02:00,42.3,29.0,29.61,NNW,339,1.0,2.0,59,0.00,,---,0.00,VWS V14.01,2013-02-04 06:02:00,
2013-02-04 01:03:00,42.3,29.0,29.61,NNW,339,0.0,2.0,59,0.00,,---,0.00,VWS V14.01,2013-02-04 06:03:00,
2013-02-04 01:04:00,42.3,29.4,29.61,NNW,339,1.0,2.0,60,0.00,,---,0.00,VWS V14.01,2013-02-04 06:04:00,
2013-02-04 01:05:00,42.3,29.0,29.61,NNW,339,0.0,2.0,59,0.00,,---,0.00,VWS V14.01,2013-02-04 06:05:00,
2013-02-04 01:06:00,42.3,29.0,29.61,NNW,339,1.0,2.0,59,0.00,,---,0.00,VWS V14.01,2013-02-04 06:06:00,
2013-02-04 01:07:00,42.3,29.4,29.61,NNW,339,0.0,2.0,60,0.00,,---,0.00,VWS V14.01,2013-02-04 06:07:00,
2013-02-04 01:08:00,42.3,29.4,29.61,NNW,339,1.0,2.0,60,0.00,,---,0.00,VWS V14.01,2013-02-04 06:08:00,
2013-02-04 01:09:00,42.3,29.4,29.61,NNW,339,0.0,2.0,60,0.00,,---,0.00,VWS V14.01,2013-02-04 06:09:00,
2013-02-04 01:10:00,42.2,29.3,29.61,NNW,339,0.0,2.0,60,0.00,,---,0.00,VWS V14.01,2013-02-04 06:10:00,
2013-02-04 01:11:00,42.2,29.3,29.61,NNW,339,1.0,2.0,60,0.00,,---,0.00,VWS V14.01,2013-02-04 06:11:00,
2013-02-04 01:12:00,42.3,29.4,29.61,NNW,339,0.0,2.0,60,0.00,,---,0.00,VWS V14.01,2013-02-04 06:12:00,
2013-02-04 01:13:00,42.4,29.5,29.61,NNW,339,1.0,2.0,60,0.00,,---,0.00,VWS V14.01,2013-02-04 06:13:00,
2013-02-04 01:14:00,42.4,29.5,29.61,NNW,339,1.0,2.0,60,0.00,,---,0.00,VWS V14.01,2013-02-04 06:14:00,
2013-02-04 01:15:00,42.4,29.5,29.61,NNW,339,1.0,2.0,60,0.00,,---,0.00,VWS V14.01,2013-02-04 06:15:00,
2013-02-04 01:16:00,42.5,29.6,29.61,NNW,339,1.0,2.0,60,0.00,,---,0.00,VWS V14.01,2013-02-04 06:16:00,
2013-02-04 01:17:00,42.5,29.6,29.61,NNW,339,1.0,2.0,60,0.00,,---,0.00,VWS V14.01,2013-02-04 06:17:00,
2013-02-04 01:18:00,42.6,29.7,29.62,NNW,339,1.0,2.0,60,0.00,,---,0.00,VWS V14.01,2013-02-04 06:18:00,
2013-02-04 01:19:00,42.7,29.4,29.61,NNW,339,1.0,2.0,59,0.00,,---,0.00,VWS V14.01,2013-02-04 06:19:00,
2013-02-04 01:20:00,42.8,29.5,29.62,NNW,339,1.0,4.0,59,0.00,,---,0.00,VWS V14.01,2013-02-04 06:20:00,
2013-02-04 01:21:00,42.9,29.6,29.62,NNW,339,2.0,4.0,59,0.00,,---,0.00,VWS V14.01,2013-02-04 06:21:00,
2013-02-04 01:22:00,42.9,29.6,29.62,NNW,339,1.0,4.0,59,0.00,,---,0.00,VWS V14.01,2013-02-04 06:22:00,
2013-02-04 01:23:00,43.0,29.7,29.62,NNW,339,1.0,4.0,59,0.00,,---,0.00,VWS V14.01,2013-02-04 06:23:00,
2013-02-04 01:24:00,43.0,29.7,29.61,NNW,339,0.0,4.0,59,0.00,,---,0.00,VWS V14.01,2013-02-04 06:24:00,
2013-02-04 01:25:00,43.0,29.7,29.61,NNW,339,1.0,4.0,59,0.00,,---,0.00,VWS V14.01,2013-02-04 06:25:00,
2013-02-04 01:26:00,43.0,29.2,29.61,NNW,339,2.0,4.0,58,0.00,,---,0.00,VWS V14.01,2013-02-04 06:26:00,
2013-02-04 01:27:00,43.0,29.7,29.61,NNW,339,2.0,4.0,59,0.00,,---,0.00,VWS V14.01,2013-02-04 06:27:00,
2013-02-04 01:28:00,43.0,29.7,29.61,NNW,339,1.0,4.0,59,0.00,,---,0.00,VWS V14.01,2013-02-04 06:28:00,
2013-02-04 01:29:00,43.0,29.2,29.61,NNW,339,2.0,4.0,58,0.00,,---,0.00,VWS V14.01,2013-02-04 06:29:00,
2013-02-04 01:30:00,43.1,29.8,29.61,NNW,348,5.0,5.0,59,0.00,,---,0.00,VWS V14.01,2013-02-04 06:30:00,
2013-02-04 01:31:00,43.1,29.8,29.61,North,360,1.0,6.0,59,0.00,,---,0.00,VWS V14.01,2013-02-04 06:31:00,
2013-02-04 01:32:00,43.0,29.7,29.61,North,360,2.0,6.0,59,0.00,,---,0.00,VWS V14.01,2013-02-04 06:32:00,
2013-02-04 01:33:00,43.0,29.7,29.61,North,360,2.0,6.0,59,0.00,,---,0.00,VWS V14.01,2013-02-04 06:33:00,
2013-02-04 01:34:00,43.1,29.8,29.61,NNE,13,6.0,6.0,59,0.00,,---,0.00,VWS V14.01,2013-02-04 06:34:00,
2013-02-04 01:35:00,43.1,29.8,29.61,NNE,22,1.0,6.0,59,0.00,,---,0.00,VWS V14.01,2013-02-04 06:35:00,
2013-02-04 01:36:00,43.1,29.8,29.61,NNE,16,1.0,6.0,59,0.00,,---,0.00,VWS V14.01,2013-02-04 06:36:00,
2013-02-04 01:37:00,43.1,29.8,29.61,NNE,16,0.0,6.0,59,0.00,,---,0.00,VWS V14.01,2013-02-04 06:37:00,
2013-02-04 01:38:00,43.0,29.7,29.61,NNE,16,2.0,6.0,59,0.00,,---,0.00,VWS V14.01,2013-02-04 06:38:00,
2013-02-04 01:39:00,42.9,29.6,29.61,NNE,13,2.0,6.0,59,0.00,,---,0.00,VWS V14.01,2013-02-04 06:39:00,
2013-02-04 01:40:00,42.9,29.6,29.60,NNE,19,5.0,6.0,59,0.00,,---,0.00,VWS V14.01,2013-02-04 06:40:00,
2013-02-04 01:41:00,42.9,29.6,29.60,North,5,5.0,7.0,59,0.00,,---,0.00,VWS V14.01,2013-02-04 06:41:00,
2013-02-04 01:42:00,42.9,29.6,29.60,NNE,15,4.0,7.0,59,0.00,,---,0.00,VWS V14.01,2013-02-04 06:42:00,
2013-02-04 01:43:00,42.9,29.6,29.60,North,355,5.0,7.0,59,0.00,,---,0.00,VWS V14.01,2013-02-04 06:43:00,
2013-02-04 01:44:00,42.9,29.6,29.60,North,5,4.0,7.0,59,0.00,,---,0.00,VWS V14.01,2013-02-04 06:44:00,
2013-02-04 01:45:00,42.9,29.6,29.60,NNW,340,2.0,7.0,59,0.00,,---,0.00,VWS V14.01,2013-02-04 06:45:00,
2013-02-04 01:46:00,42.8,29.5,29.60,NNE,16,2.0,7.0,59,0.00,,---,0.00,VWS V14.01,2013-02-04 06:46:00,
2013-02-04 01:47:00,42.8,29.5,29.60,NNE,17,2.0,7.0,59,0.00,,---,0.00,VWS V14.01,2013-02-04 06:47:00,
2013-02-04 01:48:00,42.8,29.5,29.60,NNE,16,1.0,7.0,59,0.00,,---,0.00,VWS V14.01,2013-02-04 06:48:00,
2013-02-04 01:49:00,42.8,29.5,29.60,North,9,5.0,7.0,59,0.00,,---,0.00,VWS V14.01,2013-02-04 06:49:00,
2013-02-04 01:50:00,42.8,29.5,29.60,North,355,6.0,7.0,59,0.00,,---,0.00,VWS V14.01,2013-02-04 06:50:00,
2013-02-04 01:51:00,42.9,29.6,29.60,NNE,13,4.0,7.0,59,0.00,,---,0.00,VWS V14.01,2013-02-04 06:51:00,
2013-02-04 01:52:00,42.9,29.6,29.60,NNW,342,3.0,7.0,59,0.00,,---,0.00,VWS V14.01,2013-02-04 06:52:00,
2013-02-04 01:53:00,42.9,29.6,29.60,North,355,2.0,7.0,59,0.00,,---,0.00,VWS V14.01,2013-02-04 06:53:00,
2013-02-04 01:54:00,42.9,29.6,29.60,NNE,26,1.0,7.0,59,0.00,,---,0.00,VWS V14.01,2013-02-04 06:54:00,
2013-02-04 01:55:00,42.9,29.6,29.60,North,360,2.0,7.0,59,0.00,,---,0.00,VWS V14.01,2013-02-04 06:55:00,
2013-02-04 01:56:00,42.9,29.6,29.60,NNE,27,4.0,7.0,59,0.00,,---,0.00,VWS V14.01,2013-02-04 06:56:00,
2013-02-04 01:57:00,43.0,29.7,29.60,NNE,26,4.0,7.0,59,0.00,,---,0.00,VWS V14.01,2013-02-04 06:57:00,
2013-02-04 01:58:00,43.0,29.7,29.60,NNE,15,4.0,7.0,59,0.00,,---,0.00,VWS V14.01,2013-02-04 06:58:00,
2013-02-04 01:59:00,43.0,29.7,29.60,NNE,17,1.0,8.0,59,0.00,,---,0.00,VWS V14.01,2013-02-04 06:59:00,
2013-02-04 02:00:00,42.9,29.6,29.60,NNE,24,4.0,8.0,59,0.00,,---,0.00,VWS V14.01,2013-02-04 07:00:00,
2013-02-04 02:01:00,42.9,29.6,29.60,NNE,27,0.0,5.0,59,0.00,,---,0.00,VWS V14.01,2013-02-04 07:01:00,
2013-02-04 02:02:00,42.9,30.0,29.60,NNE,27,0.0,5.0,60,0.00,,---,0.00,VWS V14.01,2013-02-04 07:02:00,
2013-02-04 02:03:00,42.8,29.9,29.60,NNE,27,1.0,5.0,60,0.00,,---,0.00,VWS V14.01,2013-02-04 07:03:00,
2013-02-04 02:04:00,42.8,29.9,29.60,North,11,3.0,5.0,60,0.00,,---,0.00,VWS V14.01,2013-02-04 07:04:00,
2013-02-04 02:05:00,42.8,29.9,29.60,North,355,2.0,5.0,60,0.00,,---,0.00,VWS V14.01,2013-02-04 07:05:00,
2013-02-04 02:06:00,42.9,30.0,29.60,North,355,1.0,5.0,60,0.00,,---,0.00,VWS V14.01,2013-02-04 07:06:00,
2013-02-04 02:07:00,42.9,30.0,29.60,North,355,0.0,5.0,60,0.00,,---,0.00,VWS V14.01,2013-02-04 07:07:00,
2013-02-04 02:08:00,42.8,29.9,29.60,NNE,19,2.0,5.0,60,0.00,,---,0.00,VWS V14.01,2013-02-04 07:08:00,
2013-02-04 02:09:00,42.8,29.9,29.60,NNE,13,5.0,9.0,60,0.00,,---,0.00,VWS V14.01,2013-02-04 07:09:00,
2013-02-04 02:10:00,42.8,29.9,29.60,North,5,4.0,9.0,60,0.00,,---,0.00,VWS V14.01,2013-02-04 07:10:00,
2013-02-04 02:11:00,42.8,29.9,29.60,North,355,4.0,9.0,60,0.00,,---,0.00,VWS V14.01,2013-02-04 07:11:00,
2013-02-04 02:12:00,42.8,29.9,29.60,NNE,24,4.0,9.0,60,0.00,,---,0.00,VWS V14.01,2013-02-04 07:12:00,
2013-02-04 02:13:00,42.9,30.0,29.60,NE,38,2.0,9.0,60,0.00,,---,0.00,VWS V14.01,2013-02-04 07:13:00,
2013-02-04 02:14:00,42.8,29.9,29.60,NE,36,4.0,9.0,60,0.00,,---,0.00,VWS V14.01,2013-02-04 07:14:00,
2013-02-04 02:15:00,42.8,29.9,29.60,North,11,1.0,9.0,60,0.00,,---,0.00,VWS V14.01,2013-02-04 07:15:00,
2013-02-04 02:16:00,42.8,29.9,29.61,North,360,5.0,9.0,60,0.00,,---,0.00,VWS V14.01,2013-02-04 07:16:00,
2013-02-04 02:17:00,42.8,29.9,29.61,North,11,4.0,9.0,60,0.00,,---,0.00,VWS V14.01,2013-02-04 07:17:00,
2013-02-04 02:18:00,42.7,29.8,29.61,North,5,2.0,9.0,60,0.00,,---,0.00,VWS V14.01,2013-02-04 07:18:00,
2013-02-04 02:19:00,42.7,30.2,29.61,NNW,329,2.0,9.0,61,0.00,,---,0.00,VWS V14.01,2013-02-04 07:19:00,
2013-02-04 02:20:00,42.7,30.2,29.61,NNE,13,2.0,9.0,61,0.00,,---,0.00,VWS V14.01,2013-02-04 07:20:00,
2013-02-04 02:21:00,42.7,30.2,29.61,NNE,13,2.0,9.0,61,0.00,,---,0.00,VWS V14.01,2013-02-04 07:21:00,
2013-02-04 02:22:00,42.7,30.2,29.61,North,5,2.0,9.0,61,0.00,,---,0.00,VWS V14.01,2013-02-04 07:22:00,
2013-02-04 02:23:00,42.6,30.1,29.61,North,5,5.0,9.0,61,0.00,,---,0.00,VWS V14.01,2013-02-04 07:23:00,
2013-02-04 02:24:00,42.6,30.1,29.61,North,5,6.0,9.0,61,0.00,,---,0.00,VWS V14.01,2013-02-04 07:24:00,
2013-02-04 02:25:00,42.7,30.2,29.61,North,9,7.0,9.0,61,0.00,,---,0.00,VWS V14.01,2013-02-04 07:25:00,
2013-02-04 02:26:00,42.7,30.2,29.61,NNE,26,8.0,9.0,61,0.00,,---,0.00,VWS V14.01,2013-02-04 07:26:00,
2013-02-04 02:27:00,42.7,30.2,29.61,NNE,33,5.0,9.0,61,0.00,,---,0.00,VWS V14.01,2013-02-04 07:27:00,
2013-02-04 02:28:00,42.8,30.3,29.61,NNE,19,6.0,9.0,61,0.00,,---,0.00,VWS V14.01,2013-02-04 07:28:00,
2013-02-04 02:29:00,42.8,30.3,29.60,North,355,2.0,9.0,61,0.00,,---,0.00,VWS V14.01,2013-02-04 07:29:00,
2013-02-04 02:30:00,42.8,30.3,29.60,NNW,340,5.0,9.0,61,0.00,,---,0.00,VWS V14.01,2013-02-04 07:30:00,
2013-02-04 02:31:00,42.7,30.2,29.60,NNE,28,4.0,6.0,61,0.00,,---,0.00,VWS V14.01,2013-02-04 07:31:00,
2013-02-04 02:32:00,42.7,30.2,29.60,NNE,19,1.0,6.0,61,0.00,,---,0.00,VWS V14.01,2013-02-04 07:32:00,
2013-02-04 02:33:00,42.7,30.2,29.60,NNE,14,5.0,6.0,61,0.00,,---,0.00,VWS V14.01,2013-02-04 07:33:00,
2013-02-04 02:34:00,42.7,30.2,29.60,NNE,15,5.0,8.0,61,0.00,,---,0.00,VWS V14.01,2013-02-04 07:34:00,
2013-02-04 02:35:00,42.6,30.1,29.60,NNE,19,1.0,8.0,61,0.00,,---,0.00,VWS V14.01,2013-02-04 07:35:00,
2013-02-04 02:36:00,42.6,30.1,29.61,NNE,19,1.0,8.0,61,0.00,,---,0.00,VWS V14.01,2013-02-04 07:36:00,
2013-02-04 02:37:00,42.5,30.0,29.61,NW,313,2.0,8.0,61,0.00,,---,0.00,VWS V14.01,2013-02-04 07:37:00,
2013-02-04 02:38:00,42.5,30.0,29.61,NNW,339,0.0,8.0,61,0.00,,---,0.00,VWS V14.01,2013-02-04 07:38:00,
2013-02-04 02:39:00,42.4,29.9,29.61,NNW,339,1.0,8.0,61,0.00,,---,0.00,VWS V14.01,2013-02-04 07:39:00,
2013-02-04 02:40:00,42.3,29.8,29.61,North,5,3.0,8.0,61,0.00,,---,0.00,VWS V14.01,2013-02-04 07:40:00,
2013-02-04 02:41:00,42.3,30.2,29.61,North,9,1.0,8.0,62,0.00,,---,0.00,VWS V14.01,2013-02-04 07:41:00,
2013-02-04 02:42:00,42.2,30.1,29.61,North,9,1.0,8.0,62,0.00,,---,0.00,VWS V14.01,2013-02-04 07:42:00,
2013-02-04 02:43:00,42.1,30.0,29.61,North,9,0.0,8.0,62,0.00,,---,0.00,VWS V14.01,2013-02-04 07:43:00,
2013-02-04 02:44:00,42.1,30.0,29.61,WNW,298,0.0,8.0,62,0.00,,---,0.00,VWS V14.01,2013-02-04 07:44:00,
2013-02-04 02:45:00,42.0,29.9,29.61,WNW,298,0.0,8.0,62,0.00,,---,0.00,VWS V14.01,2013-02-04 07:45:00,
2013-02-04 02:46:00,42.0,29.9,29.61,WNW,298,0.0,8.0,62,0.00,,---,0.00,VWS V14.01,2013-02-04 07:46:00,
2013-02-04 02:47:00,41.9,29.9,29.61,NNW,329,0.0,8.0,62,0.00,,---,0.00,VWS V14.01,2013-02-04 07:47:00,
2013-02-04 02:48:00,41.8,30.1,29.61,NNW,329,0.0,8.0,63,0.00,,---,0.00,VWS V14.01,2013-02-04 07:48:00,
2013-02-04 02:49:00,41.7,30.0,29.61,NW,318,1.0,8.0,63,0.00,,---,0.00,VWS V14.01,2013-02-04 07:49:00,
2013-02-04 02:50:00,41.6,30.0,29.61,NW,318,0.0,8.0,63,0.00,,---,0.00,VWS V14.01,2013-02-04 07:50:00,
2013-02-04 02:51:00,41.6,30.0,29.61,NW,304,0.0,8.0,63,0.00,,---,0.00,VWS V14.01,2013-02-04 07:51:00,
2013-02-04 02:52:00,41.5,29.9,29.61,NW,304,0.0,8.0,63,0.00,,---,0.00,VWS V14.01,2013-02-04 07:52:00,
2013-02-04 02:53:00,41.4,29.8,29.61,NW,304,0.0,8.0,63,0.00,,---,0.00,VWS V14.01,2013-02-04 07:53:00,
2013-02-04 02:54:00,41.4,29.8,29.61,WNW,297,0.0,8.0,63,0.00,,---,0.00,VWS V14.01,2013-02-04 07:54:00,
2013-02-04 02:55:00,41.4,29.8,29.61,WNW,297,0.0,8.0,63,0.00,,---,0.00,VWS V14.01,2013-02-04 07:55:00,
2013-02-04 02:56:00,41.4,29.8,29.61,WNW,297,0.0,8.0,63,0.00,,---,0.00,VWS V14.01,2013-02-04 07:56:00,
2013-02-04 02:57:00,41.3,29.7,29.61,WNW,297,0.0,8.0,63,0.00,,---,0.00,VWS V14.01,2013-02-04 07:57:00,
2013-02-04 02:58:00,41.2,30.0,29.61,WNW,297,0.0,8.0,64,0.00,,---,0.00,VWS V14.01,2013-02-04 07:58:00,
2013-02-04 02:59:00,41.2,30.0,29.61,WNW,297,0.0,8.0,64,0.00,,---,0.00,VWS V14.01,2013-02-04 07:59:00,
2013-02-04 03:00:00,41.0,29.8,29.61,WNW,297,0.0,8.0,64,0.00,,---,0.00,VWS V14.01,2013-02-04 08:00:00,
2013-02-04 03:01:00,40.9,29.7,29.61,WNW,297,0.0,0.0,64,0.00,,---,0.00,VWS V14.01,2013-02-04 08:01:00,
2013-02-04 03:02:00,40.9,29.7,29.61,WNW,297,0.0,0.0,64,0.00,,---,0.00,VWS V14.01,2013-02-04 08:02:00,
2013-02-04 03:03:00,40.8,30.0,29.61,WNW,297,0.0,0.0,65,0.00,,---,0.00,VWS V14.01,2013-02-04 08:03:00,
2013-02-04 03:04:00,42.6,30.1,29.61,North,5,5.0,9.0,61,0.00,,---,0.00,VWS V14.01,2013-02-04 08:04:00,
2013-02-04 03:05:00,40.8,30.0,29.61,WNW,297,0.0,1.0,65,0.00,,---,0.00,VWS V14.01,2013-02-04 08:05:00,
2013-02-04 03:06:00,40.7,29.9,29.61,WNW,297,1.0,1.0,65,0.00,,---,0.00,VWS V14.01,2013-02-04 08:06:00,
2013-02-04 03:07:00,40.7,29.9,29.61,WNW,297,0.0,1.0,65,0.00,,---,0.00,VWS V14.01,2013-02-04 08:07:00,
2013-02-04 03:08:00,40.6,30.1,29.61,WNW,297,1.0,1.0,66,0.00,,---,0.00,VWS V14.01,2013-02-04 08:08:00,
2013-02-04 03:09:00,40.6,30.1,29.61,WNW,297,0.0,1.0,66,0.00,,---,0.00,VWS V14.01,2013-02-04 08:09:00,
2013-02-04 03:10:00,40.6,29.8,29.61,WNW,297,0.0,1.0,65,0.00,,---,0.00,VWS V14.01,2013-02-04 08:10:00,
2013-02-04 03:11:00,40.6,30.1,29.61,WNW,297,0.0,1.0,66,0.00,,---,0.00,VWS V14.01,2013-02-04 08:11:00,
2013-02-04 03:12:00,40.5,30.0,29.61,WNW,297,0.0,1.0,66,0.00,,---,0.00,VWS V14.01,2013-02-04 08:12:00,
2013-02-04 03:13:00,40.5,30.0,29.61,WNW,297,0.0,1.0,66,0.00,,---,0.00,VWS V14.01,2013-02-04 08:13:00,
2013-02-04 03:14:00,40.5,30.0,29.61,WNW,297,0.0,1.0,66,0.00,,---,0.00,VWS V14.01,2013-02-04 08:14:00,
2013-02-04 03:15:00,40.5,30.0,29.61,WNW,297,0.0,1.0,66,0.00,,---,0.00,VWS V14.01,2013-02-04 08:15:00,
2013-02-04 03:16:00,40.4,30.0,29.61,WNW,297,0.0,1.0,66,0.00,,---,0.00,VWS V14.01,2013-02-04 08:16:00,
2013-02-04 03:17:00,40.4,30.0,29.61,NW,321,2.0,2.0,66,0.00,,---,0.00,VWS V14.01,2013-02-04 08:17:00,
2013-02-04 03:18:00,40.4,30.0,29.61,North,5,1.0,4.0,66,0.00,,---,0.00,VWS V14.01,2013-02-04 08:18:00,
2013-02-04 03:19:00,40.4,30.0,29.61,North,5,1.0,4.0,66,0.00,,---,0.00,VWS V14.01,2013-02-04 08:19:00,
2013-02-04 03:20:00,40.5,30.0,29.61,North,5,0.0,4.0,66,0.00,,---,0.00,VWS V14.01,2013-02-04 08:20:00,
2013-02-04 03:21:00,40.5,30.0,29.61,North,5,1.0,4.0,66,0.00,,---,0.00,VWS V14.01,2013-02-04 08:21:00,
2013-02-04 03:22:00,40.5,30.0,29.61,North,5,0.0,4.0,66,0.00,,---,0.00,VWS V14.01,2013-02-04 08:22:00,
2013-02-04 03:23:00,40.4,30.0,29.61,North,5,0.0,4.0,66,0.00,,---,0.00,VWS V14.01,2013-02-04 08:23:00,
2013-02-04 03:24:00,40.5,30.0,29.61,North,5,1.0,4.0,66,0.00,,---,0.00,VWS V14.01,2013-02-04 08:24:00,
2013-02-04 03:25:00,40.4,30.0,29.61,North,5,2.0,4.0,66,0.00,,---,0.00,VWS V14.01,2013-02-04 08:25:00,
2013-02-04 03:26:00,40.4,30.0,29.61,North,5,1.0,4.0,66,0.00,,---,0.00,VWS V14.01,2013-02-04 08:26:00,
2013-02-04 03:27:00,40.4,30.0,29.61,North,5,4.0,4.0,66,0.00,,---,0.00,VWS V14.01,2013-02-04 08:27:00,
2013-02-04 03:28:00,40.4,30.0,29.61,North,5,2.0,4.0,66,0.00,,---,0.00,VWS V14.01,2013-02-04 08:28:00,
2013-02-04 03:29:00,40.5,30.0,29.61,North,11,3.0,4.0,66,0.00,,---,0.00,VWS V14.01,2013-02-04 08:29:00,
2013-02-04 03:30:00,40.4,30.0,29.60,NNE,13,1.0,4.0,66,0.00,,---,0.00,VWS V14.01,2013-02-04 08:30:00,
2013-02-04 03:31:00,40.4,30.0,29.60,NNE,13,0.0,2.0,66,0.00,,---,0.00,VWS V14.01,2013-02-04 08:31:00,
2013-02-04 03:32:00,40.4,30.0,29.60,NNE,13,0.0,2.0,66,0.00,,---,0.00,VWS V14.01,2013-02-04 08:32:00,
2013-02-04 03:33:00,40.3,29.9,29.60,NNE,14,1.0,2.0,66,0.00,,---,0.00,VWS V14.01,2013-02-04 08:33:00,
2013-02-04 03:34:00,40.2,29.8,29.60,NNE,14,0.0,2.0,66,0.00,,---,0.00,VWS V14.01,2013-02-04 08:34:00,
2013-02-04 03:35:00,40.1,30.0,29.60,NNE,19,1.0,2.0,67,0.00,,---,0.00,VWS V14.01,2013-02-04 08:35:00,
2013-02-04 03:36:00,40.1,30.0,29.60,NNE,19,1.0,2.0,67,0.00,,---,0.00,VWS V14.01,2013-02-04 08:36:00,
2013-02-04 03:37:00,40.1,30.0,29.60,NNE,13,2.0,4.0,67,0.00,,---,0.00,VWS V14.01,2013-02-04 08:37:00,
2013-02-04 03:38:00,40.0,29.9,29.60,NNE,15,0.0,4.0,67,0.00,,---,0.00,VWS V14.01,2013-02-04 08:38:00,
2013-02-04 03:39:00,40.0,29.9,29.60,North,9,3.0,6.0,67,0.00,,---,0.00,VWS V14.01,2013-02-04 08:39:00,
2013-02-04 03:40:00,40.0,29.9,29.60,North,11,2.0,6.0,67,0.00,,---,0.00,VWS V14.01,2013-02-04 08:40:00,
2013-02-04 03:41:00,40.0,30.3,29.60,North,11,5.0,6.0,68,0.00,,---,0.00,VWS V14.01,2013-02-04 08:41:00,
2013-02-04 03:42:00,40.1,30.0,29.60,North,5,3.0,6.0,67,0.00,,---,0.00,VWS V14.01,2013-02-04 08:42:00,
2013-02-04 03:43:00,40.1,30.0,29.60,NNE,23,2.0,6.0,67,0.00,,---,0.00,VWS V14.01,2013-02-04 08:43:00,
2013-02-04 03:44:00,40.0,29.9,29.60,NNE,12,6.0,6.0,67,0.00,,---,0.00,VWS V14.01,2013-02-04 08:44:00,
2013-02-04 03:45:00,40.1,30.4,29.60,North,355,6.0,8.0,68,0.00,,---,0.00,VWS V14.01,2013-02-04 08:45:00,
2013-02-04 03:46:00,40.1,30.4,29.60,NNE,17,2.0,8.0,68,0.00,,---,0.00,VWS V14.01,2013-02-04 08:46:00,
2013-02-04 03:47:00,40.1,30.4,29.60,North,10,6.0,8.0,68,0.00,,---,0.00,VWS V14.01,2013-02-04 08:47:00,
2013-02-04 03:48:00,40.0,30.3,29.60,NNE,17,5.0,8.0,68,0.00,,---,0.00,VWS V14.01,2013-02-04 08:48:00,
2013-02-04 03:49:00,40.1,30.4,29.60,NE,38,4.0,8.0,68,0.00,,---,0.00,VWS V14.01,2013-02-04 08:49:00,
2013-02-04 03:50:00,40.1,30.4,29.60,North,355,2.0,8.0,68,0.00,,---,0.00,VWS V14.01,2013-02-04 08:50:00,
2013-02-04 03:51:00,40.0,30.3,29.60,North,355,2.0,8.0,68,0.00,,---,0.00,VWS V14.01,2013-02-04 08:51:00,
2013-02-04 03:52:00,40.0,30.3,29.60,NNE,17,4.0,8.0,68,0.00,,---,0.00,VWS V14.01,2013-02-04 08:52:00,
2013-02-04 03:53:00,40.0,30.3,29.60,NNE,17,1.0,8.0,68,0.00,,---,0.00,VWS V14.01,2013-02-04 08:53:00,
2013-02-04 03:54:00,39.9,30.2,29.60,NNW,348,1.0,8.0,68,0.00,,---,0.00,VWS V14.01,2013-02-04 08:54:00,
2013-02-04 03:55:00,39.8,30.1,29.60,North,10,2.0,8.0,68,0.00,,---,0.00,VWS V14.01,2013-02-04 08:55:00,
2013-02-04 03:56:00,39.8,30.1,29.60,NNE,23,1.0,8.0,68,0.00,,---,0.00,VWS V14.01,2013-02-04 08:56:00,
2013-02-04 03:57:00,39.9,30.2,29.60,NE,47,5.0,8.0,68,0.00,,---,0.00,VWS V14.01,2013-02-04 08:57:00,
2013-02-04 03:58:00,39.9,30.2,29.60,NNE,23,2.0,8.0,68,0.00,,---,0.00,VWS V14.01,2013-02-04 08:58:00,
2013-02-04 03:59:00,39.9,30.2,29.60,North,5,5.0,8.0,68,0.00,,---,0.00,VWS V14.01,2013-02-04 08:59:00,
2013-02-04 04:00:00,39.9,30.2,29.60,NNE,21,1.0,8.0,68,0.00,,---,0.00,VWS V14.01,2013-02-04 09:00:00,
2013-02-04 04:01:00,39.9,30.2,29.60,North,5,2.0,4.0,68,0.00,,---,0.00,VWS V14.01,2013-02-04 09:01:00,
2013-02-04 04:02:00,40.0,30.3,29.60,North,5,0.0,4.0,68,0.00,,---,0.00,VWS V14.01,2013-02-04 09:02:00,
2013-02-04 04:03:00,40.0,30.3,29.59,North,5,0.0,4.0,68,0.00,,---,0.00,VWS V14.01,2013-02-04 09:03:00,
2013-02-04 04:04:00,40.0,30.3,29.59,NNE,28,4.0,5.0,68,0.00,,---,0.00,VWS V14.01,2013-02-04 09:04:00,
2013-02-04 04:05:00,40.0,30.3,29.60,North,5,4.0,5.0,68,0.00,,---,0.00,VWS V14.01,2013-02-04 09:05:00,
2013-02-04 04:06:00,40.0,30.3,29.60,North,350,6.0,6.0,68,0.00,,---,0.00,VWS V14.01,2013-02-04 09:06:00,
2013-02-04 04:07:00,40.0,30.3,29.60,NNE,24,0.0,6.0,68,0.00,,---,0.00,VWS V14.01,2013-02-04 09:07:00,
2013-02-04 04:08:00,40.0,30.3,29.60,NNE,24,1.0,6.0,68,0.00,,---,0.00,VWS V14.01,2013-02-04 09:08:00,
2013-02-04 04:09:00,39.9,30.2,29.60,NNE,24,0.0,6.0,68,0.00,,---,0.00,VWS V14.01,2013-02-04 09:09:00,
2013-02-04 04:10:00,39.9,30.2,29.60,NNE,24,1.0,6.0,68,0.00,,---,0.00,VWS V14.01,2013-02-04 09:10:00,
2013-02-04 04:11:00,39.9,30.2,29.60,NNE,17,1.0,6.0,68,0.00,,---,0.00,VWS V14.01,2013-02-04 09:11:00,
2013-02-04 04:12:00,39.9,30.6,29.60,North,360,5.0,6.0,69,0.00,,---,0.00,VWS V14.01,2013-02-04 09:12:00,
2013-02-04 04:13:00,39.9,30.2,29.60,NNE,13,4.0,6.0,68,0.00,,---,0.00,VWS V14.01,2013-02-04 09:13:00,
2013-02-04 04:14:00,39.9,30.2,29.60,NNE,26,5.0,6.0,68,0.00,,---,0.00,VWS V14.01,2013-02-04 09:14:00,
2013-02-04 04:15:00,40.0,30.3,29.60,NNE,23,1.0,6.0,68,0.00,,---,0.00,VWS V14.01,2013-02-04 09:15:00,
2013-02-04 04:16:00,40.0,30.3,29.60,NNE,19,4.0,6.0,68,0.00,,---,0.00,VWS V14.01,2013-02-04 09:16:00,
2013-02-04 04:17:00,40.0,30.3,29.60,NNE,19,2.0,6.0,68,0.00,,---,0.00,VWS V14.01,2013-02-04 09:17:00,
2013-02-04 04:18:00,40.0,30.3,29.60,NNE,19,2.0,6.0,68,0.00,,---,0.00,VWS V14.01,2013-02-04 09:18:00,
2013-02-04 04:19:00,40.0,30.3,29.60,North,5,4.0,6.0,68,0.00,,---,0.00,VWS V14.01,2013-02-04 09:19:00,
2013-02-04 04:20:00,40.1,30.4,29.60,North,9,2.0,7.0,68,0.00,,---,0.00,VWS V14.01,2013-02-04 09:20:00,
2013-02-04 04:21:00,40.1,30.4,29.60,North,355,4.0,7.0,68,0.00,,---,0.00,VWS V14.01,2013-02-04 09:21:00,
2013-02-04 04:22:00,40.1,30.4,29.60,North,355,4.0,7.0,68,0.00,,---,0.00,VWS V14.01,2013-02-04 09:22:00,
2013-02-04 04:23:00,40.1,30.4,29.60,NNE,15,5.0,7.0,68,0.00,,---,0.00,VWS V14.01,2013-02-04 09:23:00,
2013-02-04 04:24:00,40.1,30.4,29.60,NNE,26,5.0,7.0,68,0.00,,---,0.00,VWS V14.01,2013-02-04 09:24:00,
2013-02-04 04:25:00,40.1,30.4,29.60,NW,326,2.0,8.0,68,0.00,,---,0.00,VWS V14.01,2013-02-04 09:25:00,
2013-02-04 04:26:00,40.1,30.4,29.60,North,360,3.0,8.0,68,0.00,,---,0.00,VWS V14.01,2013-02-04 09:26:00,
2013-02-04 04:27:00,40.2,30.5,29.60,NE,40,5.0,8.0,68,0.00,,---,0.00,VWS V14.01,2013-02-04 09:27:00,
2013-02-04 04:28:00,40.2,30.5,29.60,NE,47,6.0,8.0,68,0.00,,---,0.00,VWS V14.01,2013-02-04 09:28:00,
2013-02-04 04:29:00,40.2,30.5,29.60,North,10,6.0,8.0,68,0.00,,---,0.00,VWS V14.01,2013-02-04 09:29:00,
2013-02-04 04:30:00,40.2,30.5,29.60,North,5,4.0,8.0,68,0.00,,---,0.00,VWS V14.01,2013-02-04 09:30:00,
2013-02-04 04:31:00,40.2,30.5,29.60,NNE,13,6.0,7.0,68,0.00,,---,0.00,VWS V14.01,2013-02-04 09:31:00,
2013-02-04 04:32:00,40.2,30.5,29.60,NNE,27,5.0,7.0,68,0.00,,---,0.00,VWS V14.01,2013-02-04 09:32:00,
2013-02-04 04:33:00,40.2,30.5,29.60,NNE,26,7.0,7.0,68,0.00,,---,0.00,VWS V14.01,2013-02-04 09:33:00,
2013-02-04 04:34:00,40.3,30.6,29.60,North,355,7.0,8.0,68,0.00,,---,0.00,VWS V14.01,2013-02-04 09:34:00,
2013-02-04 04:35:00,40.3,30.6,29.60,NNE,26,6.0,8.0,68,0.00,,---,0.00,VWS V14.01,2013-02-04 09:35:00,
2013-02-04 04:36:00,40.3,30.6,29.60,North,5,7.0,9.0,68,0.00,,---,0.00,VWS V14.01,2013-02-04 09:36:00,
2013-02-04 04:37:00,40.4,30.7,29.60,North,9,4.0,9.0,68,0.00,,---,0.00,VWS V14.01,2013-02-04 09:37:00,
2013-02-04 04:38:00,40.4,30.7,29.60,North,5,5.0,9.0,68,0.00,,---,0.00,VWS V14.01,2013-02-04 09:38:00,
2013-02-04 04:39:00,40.4,30.7,29.60,North,5,6.0,9.0,68,0.00,,---,0.00,VWS V14.01,2013-02-04 09:39:00,
2013-02-04 04:40:00,40.3,30.6,29.60,NNE,30,2.0,9.0,68,0.00,,---,0.00,VWS V14.01,2013-02-04 09:40:00,
2013-02-04 04:41:00,40.3,30.6,29.60,NNE,16,6.0,9.0,68,0.00,,---,0.00,VWS V14.01,2013-02-04 09:41:00,
2013-02-04 04:42:00,40.3,30.6,29.60,North,360,4.0,9.0,68,0.00,,---,0.00,VWS V14.01,2013-02-04 09:42:00,
2013-02-04 04:43:00,40.3,30.6,29.61,NNW,342,2.0,9.0,68,0.00,,---,0.00,VWS V14.01,2013-02-04 09:43:00,
2013-02-04 04:44:00,40.2,30.5,29.61,North,11,7.0,9.0,68,0.00,,---,0.00,VWS V14.01,2013-02-04 09:44:00,
2013-02-04 04:45:00,40.2,30.5,29.61,North,5,3.0,9.0,68,0.00,,---,0.00,VWS V14.01,2013-02-04 09:45:00,
2013-02-04 04:46:00,40.2,30.5,29.61,NW,319,3.0,9.0,68,0.00,,---,0.00,VWS V14.01,2013-02-04 09:46:00,
2013-02-04 04:47:00,40.2,30.5,29.61,NNE,25,5.0,9.0,68,0.00,,---,0.00,VWS V14.01,2013-02-04 09:47:00,
2013-02-04 04:48:00,40.2,30.5,29.60,North,11,5.0,9.0,68,0.00,,---,0.00,VWS V14.01,2013-02-04 09:48:00,
2013-02-04 04:49:00,40.2,30.5,29.61,NNE,30,6.0,9.0,68,0.00,,---,0.00,VWS V14.01,2013-02-04 09:49:00,
2013-02-04 04:50:00,40.2,30.5,29.60,North,11,6.0,9.0,68,0.00,,---,0.00,VWS V14.01,2013-02-04 09:50:00,
2013-02-04 04:51:00,40.2,30.5,29.61,North,9,7.0,9.0,68,0.00,,---,0.00,VWS V14.01,2013-02-04 09:51:00,
2013-02-04 04:52:00,40.2,30.5,29.60,NNW,346,2.0,9.0,68,0.00,,---,0.00,VWS V14.01,2013-02-04 09:52:00,
2013-02-04 04:53:00,40.2,30.5,29.60,NNE,14,3.0,9.0,68,0.00,,---,0.00,VWS V14.01,2013-02-04 09:53:00,
2013-02-04 04:54:00,40.2,30.5,29.61,NNE,19,0.0,9.0,68,0.00,,---,0.00,VWS V14.01,2013-02-04 09:54:00,
2013-02-04 04:55:00,40.2,30.9,29.61,NNE,19,2.0,9.0,69,0.00,,---,0.00,VWS V14.01,2013-02-04 09:55:00,
2013-02-04 04:56:00,40.2,30.5,29.61,NNE,19,0.0,9.0,68,0.00,,---,0.00,VWS V14.01,2013-02-04 09:56:00,
2013-02-04 04:57:00,40.2,30.5,29.61,NNE,18,5.0,9.0,68,0.00,,---,0.00,VWS V14.01,2013-02-04 09:57:00,
2013-02-04 04:58:00,40.2,30.5,29.61,NNW,348,4.0,9.0,68,0.00,,---,0.00,VWS V14.01,2013-02-04 09:58:00,
2013-02-04 04:59:00,40.2,30.5,29.60,NNE,22,2.0,9.0,68,0.00,,---,0.00,VWS V14.01,2013-02-04 09:59:00,
2013-02-04 05:00:00,40.2,30.5,29.60,NNE,22,1.0,9.0,68,0.00,,---,0.00,VWS V14.01,2013-02-04 10:00:00,
2013-02-04 05:01:00,40.3,30.6,29.60,NNE,22,1.0,4.0,68,0.00,,---,0.00,VWS V14.01,2013-02-04 10:01:00,
2013-02-04 05:02:00,40.3,30.6,29.60,ENE,71,1.0,5.0,68,0.00,,---,0.00,VWS V14.01,2013-02-04 10:02:00,
2013-02-04 05:03:00,40.3,30.6,29.60,ENE,67,0.0,5.0,68,0.00,,---,0.00,VWS V14.01,2013-02-04 10:03:00,
2013-02-04 05:04:00,40.3,30.6,29.60,ENE,67,0.0,5.0,68,0.00,,---,0.00,VWS V14.01,2013-02-04 10:04:00,
2013-02-04 05:05:00,40.4,30.7,29.61,ENE,66,1.0,5.0,68,0.00,,---,0.00,VWS V14.01,2013-02-04 10:05:00,
2013-02-04 05:06:00,40.4,30.7,29.61,North,5,4.0,5.0,68,0.00,,---,0.00,VWS V14.01,2013-02-04 10:06:00,
2013-02-04 05:07:00,40.4,30.7,29.61,North,355,1.0,5.0,68,0.00,,---,0.00,VWS V14.01,2013-02-04 10:07:00,
2013-02-04 05:08:00,40.4,30.7,29.61,NW,315,2.0,5.0,68,0.00,,---,0.00,VWS V14.01,2013-02-04 10:08:00,
2013-02-04 05:09:00,40.3,30.6,29.61,North,360,1.0,5.0,68,0.00,,---,0.00,VWS V14.01,2013-02-04 10:09:00,
2013-02-04 05:10:00,40.3,30.6,29.61,NNE,23,4.0,5.0,68,0.00,,---,0.00,VWS V14.01,2013-02-04 10:10:00,
2013-02-04 05:11:00,40.3,30.6,29.61,ENE,75,5.0,6.0,68,0.00,,---,0.00,VWS V14.01,2013-02-04 10:11:00,
2013-02-04 05:12:00,40.3,30.6,29.61,North,350,6.0,6.0,68,0.00,,---,0.00,VWS V14.01,2013-02-04 10:12:00,
2013-02-04 05:13:00,40.4,30.7,29.61,NNE,16,2.0,6.0,68,0.00,,---,0.00,VWS V14.01,2013-02-04 10:13:00,
2013-02-04 05:14:00,40.3,30.6,29.61,NNE,25,2.0,6.0,68,0.00,,---,0.00,VWS V14.01,2013-02-04 10:14:00,
2013-02-04 05:15:00,40.3,30.6,29.61,NNE,18,4.0,6.0,68,0.00,,---,0.00,VWS V14.01,2013-02-04 10:15:00,
2013-02-04 05:16:00,40.2,30.5,29.61,NNE,15,0.0,6.0,68,0.00,,---,0.00,VWS V14.01,2013-02-04 10:16:00,
2013-02-04 05:17:00,40.2,30.5,29.61,NNE,18,2.0,6.0,68,0.00,,---,0.00,VWS V14.01,2013-02-04 10:17:00,
2013-02-04 05:18:00,40.2,30.5,29.61,NNE,27,2.0,6.0,68,0.00,,---,0.00,VWS V14.01,2013-02-04 10:18:00,
2013-02-04 05:19:00,40.2,30.5,29.62,NNE,27,0.0,6.0,68,0.00,,---,0.00,VWS V14.01,2013-02-04 10:19:00,
2013-02-04 05:20:00,40.1,30.4,29.62,NW,319,1.0,6.0,68,0.00,,---,0.00,VWS V14.01,2013-02-04 10:20:00,
2013-02-04 05:21:00,40.1,30.4,29.62,North,360,2.0,6.0,68,0.00,,---,0.00,VWS V14.01,2013-02-04 10:21:00,
2013-02-04 05:22:00,40.1,30.4,29.62,North,355,0.0,6.0,68,0.00,,---,0.00,VWS V14.01,2013-02-04 10:22:00,
2013-02-04 05:23:00,40.0,30.7,29.62,North,355,0.0,6.0,69,0.00,,---,0.00,VWS V14.01,2013-02-04 10:23:00,
2013-02-04 05:24:00,40.0,30.7,29.62,NNW,333,4.0,6.0,69,0.00,,---,0.00,VWS V14.01,2013-02-04 10:24:00,
2013-02-04 05:25:00,40.0,30.7,29.62,North,9,4.0,6.0,69,0.00,,---,0.00,VWS V14.01,2013-02-04 10:25:00,
2013-02-04 05:26:00,40.0,30.7,29.62,NNW,333,4.0,6.0,69,0.00,,---,0.00,VWS V14.01,2013-02-04 10:26:00,
2013-02-04 05:27:00,40.0,30.7,29.62,NNE,28,4.0,6.0,69,0.00,,---,0.00,VWS V14.01,2013-02-04 10:27:00,
2013-02-04 05:28:00,40.0,30.7,29.62,NNW,344,4.0,6.0,69,0.00,,---,0.00,VWS V14.01,2013-02-04 10:28:00,
2013-02-04 05:29:00,40.0,30.7,29.62,NNE,21,5.0,6.0,69,0.00,,---,0.00,VWS V14.01,2013-02-04 10:29:00,
2013-02-04 05:30:00,39.9,30.6,29.62,NNE,21,0.0,6.0,69,0.00,,---,0.00,VWS V14.01,2013-02-04 10:30:00,
2013-02-04 05:31:00,39.9,30.6,29.62,NNE,13,4.0,4.0,69,0.00,,---,0.00,VWS V14.01,2013-02-04 10:31:00,
2013-02-04 05:32:00,39.9,30.6,29.62,NNE,14,5.0,5.0,69,0.00,,---,0.00,VWS V14.01,2013-02-04 10:32:00,
2013-02-04 05:33:00,39.9,30.6,29.62,NNW,344,3.0,7.0,69,0.00,,---,0.00,VWS V14.01,2013-02-04 10:33:00,
2013-02-04 05:34:00,39.9,30.6,29.62,NNW,344,0.0,7.0,69,0.00,,---,0.00,VWS V14.01,2013-02-04 10:34:00,
2013-02-04 05:35:00,39.9,30.6,29.62,NNE,17,4.0,7.0,69,0.00,,---,0.00,VWS V14.01,2013-02-04 10:35:00,
2013-02-04 05:36:00,39.8,30.5,29.62,North,5,2.0,7.0,69,0.00,,---,0.00,VWS V14.01,2013-02-04 10:36:00,
2013-02-04 05:37:00,39.9,30.6,29.62,NNE,24,2.0,7.0,69,0.00,,---,0.00,VWS V14.01,2013-02-04 10:37:00,
2013-02-04 05:38:00,39.9,30.6,29.62,NNE,24,0.0,7.0,69,0.00,,---,0.00,VWS V14.01,2013-02-04 10:38:00,
2013-02-04 05:39:00,39.8,30.8,29.61,NNE,24,1.0,7.0,70,0.00,,---,0.00,VWS V14.01,2013-02-04 10:39:00,
2013-02-04 05:40:00,39.8,30.8,29.61,North,5,4.0,7.0,70,0.00,,---,0.00,VWS V14.01,2013-02-04 10:40:00,
2013-02-04 05:41:00,39.8,30.5,29.61,NNE,21,4.0,7.0,69,0.00,,---,0.00,VWS V14.01,2013-02-04 10:41:00,
2013-02-04 05:42:00,39.8,30.5,29.61,NNE,25,5.0,7.0,69,0.00,,---,0.00,VWS V14.01,2013-02-04 10:42:00,
2013-02-04 05:43:00,39.9,30.6,29.61,North,10,2.0,7.0,69,0.00,,---,0.00,VWS V14.01,2013-02-04 10:43:00,
2013-02-04 05:44:00,39.9,30.6,29.61,NNE,27,1.0,8.0,69,0.00,,---,0.00,VWS V14.01,2013-02-04 10:44:00,
2013-02-04 05:45:00,40.3,30.6,29.60,ENE,67,0.0,5.0,68,0.00,,---,0.00,VWS V14.01,2013-02-04 10:45:00,
2013-02-04 05:46:00,39.9,30.6,29.61,NNE,17,5.0,8.0,69,0.00,,---,0.00,VWS V14.01,2013-02-04 10:46:00,
2013-02-04 05:47:00,39.9,30.6,29.61,NNE,28,5.0,8.0,69,0.00,,---,0.00,VWS V14.01,2013-02-04 10:47:00,
2013-02-04 05:48:00,40.0,30.7,29.61,North,5,2.0,8.0,69,0.00,,---,0.00,VWS V14.01,2013-02-04 10:48:00,
2013-02-04 05:49:00,40.0,30.7,29.62,NNE,17,2.0,8.0,69,0.00,,---,0.00,VWS V14.01,2013-02-04 10:49:00,
2013-02-04 05:50:00,40.0,30.7,29.62,NNE,16,4.0,8.0,69,0.00,,---,0.00,VWS V14.01,2013-02-04 10:50:00,
2013-02-04 05:51:00,40.0,30.7,29.62,NNW,346,5.0,8.0,69,0.00,,---,0.00,VWS V14.01,2013-02-04 10:51:00,
2013-02-04 05:52:00,40.0,30.7,29.62,NNE,17,3.0,8.0,69,0.00,,---,0.00,VWS V14.01,2013-02-04 10:52:00,
2013-02-04 05:53:00,40.0,30.7,29.62,North,355,0.0,8.0,69,0.00,,---,0.00,VWS V14.01,2013-02-04 10:53:00,
2013-02-04 05:54:00,40.0,30.7,29.62,North,355,2.0,8.0,69,0.00,,---,0.00,VWS V14.01,2013-02-04 10:54:00,
2013-02-04 05:55:00,40.0,30.7,29.62,NW,313,1.0,8.0,69,0.00,,---,0.00,VWS V14.01,2013-02-04 10:55:00,
2013-02-04 05:56:00,40.0,30.7,29.61,NNW,343,0.0,8.0,69,0.00,,---,0.00,VWS V14.01,2013-02-04 10:56:00,
2013-02-04 05:57:00,40.0,30.7,29.61,NNE,26,1.0,8.0,69,0.00,,---,0.00,VWS V14.01,2013-02-04 10:57:00,
2013-02-04 05:58:00,40.0,30.7,29.61,NNE,26,1.0,8.0,69,0.00,,---,0.00,VWS V14.01,2013-02-04 10:58:00,
2013-02-04 05:59:00,40.0,30.7,29.61,NNE,26,1.0,8.0,69,0.00,,---,0.00,VWS V14.01,2013-02-04 10:59:00,
2013-02-04 06:00:00,40.0,30.7,29.62,NNE,26,0.0,8.0,69,0.00,,---,0.00,VWS V14.01,2013-02-04 11:00:00,
2013-02-04 06:01:00,40.0,30.7,29.61,NNE,26,0.0,0.0,69,0.00,,---,0.00,VWS V14.01,2013-02-04 11:01:00,
2013-02-04 06:02:00,40.0,30.7,29.61,NNE,26,0.0,0.0,69,0.00,,---,0.00,VWS V14.01,2013-02-04 11:02:00,
2013-02-04 06:03:00,40.0,30.7,29.61,NNE,26,0.0,0.0,69,0.00,,---,0.00,VWS V14.01,2013-02-04 11:03:00,
2013-02-04 06:04:00,39.9,30.6,29.61,NNE,26,0.0,0.0,69,0.00,,---,0.00,VWS V14.01,2013-02-04 11:04:00,
2013-02-04 06:05:00,39.8,30.5,29.62,NNE,26,0.0,0.0,69,0.00,,---,0.00,VWS V14.01,2013-02-04 11:05:00,
2013-02-04 06:06:00,39.8,30.5,29.62,NNE,26,1.0,1.0,69,0.00,,---,0.00,VWS V14.01,2013-02-04 11:06:00,
2013-02-04 06:07:00,39.8,30.5,29.62,NNE,26,1.0,2.0,69,0.00,,---,0.00,VWS V14.01,2013-02-04 11:07:00,
2013-02-04 06:08:00,39.8,30.5,29.62,WNW,293,1.0,4.0,69,0.00,,---,0.00,VWS V14.01,2013-02-04 11:08:00,
2013-02-04 06:09:00,39.8,30.5,29.62,WNW,293,2.0,4.0,69,0.00,,---,0.00,VWS V14.01,2013-02-04 11:09:00,
2013-02-04 06:10:00,39.8,30.5,29.62,WNW,293,1.0,4.0,69,0.00,,---,0.00,VWS V14.01,2013-02-04 11:10:00,
2013-02-04 06:11:00,39.8,30.5,29.62,WNW,293,1.0,4.0,69,0.00,,---,0.00,VWS V14.01,2013-02-04 11:11:00,
2013-02-04 06:12:00,39.8,30.5,29.62,WNW,293,1.0,4.0,69,0.00,,---,0.00,VWS V14.01,2013-02-04 11:12:00,
2013-02-04 06:13:00,39.8,30.5,29.62,WNW,293,0.0,4.0,69,0.00,,---,0.00,VWS V14.01,2013-02-04 11:13:00,
2013-02-04 06:14:00,39.7,30.4,29.62,WNW,293,0.0,4.0,69,0.00,,---,0.00,VWS V14.01,2013-02-04 11:14:00,
2013-02-04 06:15:00,39.7,30.4,29.62,WNW,293,0.0,4.0,69,0.00,,---,0.00,VWS V14.01,2013-02-04 11:15:00,
2013-02-04 06:16:00,39.7,30.4,29.62,WNW,293,0.0,4.0,69,0.00,,---,0.00,VWS V14.01,2013-02-04 11:16:00,
2013-02-04 06:17:00,39.7,30.4,29.62,WNW,293,0.0,4.0,69,0.00,,---,0.00,VWS V14.01,2013-02-04 11:17:00,
2013-02-04 06:18:00,39.7,30.4,29.62,WNW,293,0.0,4.0,69,0.00,,---,0.00,VWS V14.01,2013-02-04 11:18:00,
2013-02-04 06:19:00,39.7,30.4,29.62,WNW,293,0.0,4.0,69,0.00,,---,0.00,VWS V14.01,2013-02-04 11:19:00,
2013-02-04 06:20:00,39.7,30.7,29.62,WNW,293,0.0,4.0,70,0.00,,---,0.00,VWS V14.01,2013-02-04 11:20:00,
2013-02-04 06:21:00,39.6,30.6,29.62,WNW,293,1.0,4.0,70,0.00,,---,0.00,VWS V14.01,2013-02-04 11:21:00,
2013-02-04 06:22:00,39.6,30.6,29.62,WNW,293,1.0,4.0,70,0.00,,---,0.00,VWS V14.01,2013-02-04 11:22:00,
2013-02-04 06:23:00,39.6,30.6,29.62,WNW,293,1.0,4.0,70,0.00,,---,0.00,VWS V14.01,2013-02-04 11:23:00,
2013-02-04 06:24:00,39.6,30.6,29.62,WNW,293,1.0,4.0,70,0.00,,---,0.00,VWS V14.01,2013-02-04 11:24:00,
2013-02-04 06:25:00,39.5,30.5,29.62,WNW,293,1.0,4.0,70,0.00,,---,0.00,VWS V14.01,2013-02-04 11:25:00,
2013-02-04 06:26:00,39.5,30.2,29.62,WNW,293,1.0,4.0,69,0.00,,---,0.00,VWS V14.01,2013-02-04 11:26:00,
2013-02-04 06:27:00,39.5,30.5,29.62,WNW,293,0.0,4.0,70,0.00,,---,0.00,VWS V14.01,2013-02-04 11:27:00,
2013-02-04 06:28:00,39.5,30.5,29.62,WNW,293,0.0,4.0,70,0.00,,---,0.00,VWS V14.01,2013-02-04 11:28:00,
2013-02-04 06:29:00,39.5,30.5,29.62,WNW,293,0.0,4.0,70,0.00,,---,0.00,VWS V14.01,2013-02-04 11:29:00,
2013-02-04 06:30:00,39.5,30.5,29.62,WNW,293,0.0,4.0,70,0.00,,---,0.00,VWS V14.01,2013-02-04 11:30:00,
2013-02-04 06:31:00,39.5,30.5,29.62,WNW,293,0.0,0.0,70,0.00,,---,0.00,VWS V14.01,2013-02-04 11:31:00,
2013-02-04 06:32:00,39.5,30.5,29.62,WNW,293,0.0,0.0,70,0.00,,---,0.00,VWS V14.01,2013-02-04 11:32:00,
2013-02-04 06:33:00,39.5,30.5,29.63,WNW,293,0.0,0.0,70,0.00,,---,0.00,VWS V14.01,2013-02-04 11:33:00,
2013-02-04 06:34:00,39.5,30.5,29.63,WNW,293,0.0,0.0,70,0.00,,---,0.00,VWS V14.01,2013-02-04 11:34:00,
2013-02-04 06:35:00,39.4,30.1,29.63,WNW,293,0.0,0.0,69,0.00,,---,0.00,VWS V14.01,2013-02-04 11:35:00,
2013-02-04 06:36:00,39.5,30.2,29.63,WNW,293,0.0,1.0,69,0.00,,---,0.00,VWS V14.01,2013-02-04 11:36:00,
2013-02-04 06:37:00,39.4,30.1,29.63,WNW,293,1.0,1.0,69,0.00,,---,0.00,VWS V14.01,2013-02-04 11:37:00,
2013-02-04 06:38:00,39.4,30.1,29.63,WNW,293,0.0,1.0,69,0.00,,---,0.00,VWS V14.01,2013-02-04 11:38:00,
2013-02-04 06:39:00,39.4,30.1,29.63,WNW,293,0.0,1.0,69,0.00,,---,0.01,VWS V14.01,2013-02-04 11:39:00,
2013-02-04 06:40:00,39.3,30.4,29.63,WNW,293,0.0,1.0,70,0.00,,---,0.01,VWS V14.01,2013-02-04 11:40:00,
2013-02-04 06:41:00,39.3,30.7,29.64,WNW,293,0.0,1.0,71,0.00,,---,0.01,VWS V14.01,2013-02-04 11:41:00,
2013-02-04 06:42:00,39.2,30.6,29.64,WNW,293,0.0,1.0,71,0.00,,---,0.01,VWS V14.01,2013-02-04 11:42:00,
2013-02-04 06:43:00,39.2,30.2,29.64,WNW,293,1.0,1.0,70,0.00,,---,0.01,VWS V14.01,2013-02-04 11:43:00,
2013-02-04 06:44:00,39.2,30.6,29.63,WNW,293,1.0,2.0,71,0.00,,---,0.01,VWS V14.01,2013-02-04 11:44:00,
2013-02-04 06:45:00,39.1,30.5,29.64,WNW,293,0.0,2.0,71,0.00,,---,0.01,VWS V14.01,2013-02-04 11:45:00,
2013-02-04 06:46:00,39.0,30.8,29.64,WNW,293,0.0,2.0,72,0.00,,---,0.01,VWS V14.01,2013-02-04 11:46:00,
2013-02-04 06:47:00,38.9,30.7,29.64,WNW,293,0.0,2.0,72,0.00,,---,0.01,VWS V14.01,2013-02-04 11:47:00,
2013-02-04 06:48:00,38.9,30.7,29.64,WNW,293,0.0,2.0,72,0.00,,---,0.01,VWS V14.01,2013-02-04 11:48:00,
2013-02-04 06:49:00,38.8,30.2,29.64,WNW,293,0.0,2.0,71,0.00,,---,0.01,VWS V14.01,2013-02-04 11:49:00,
2013-02-04 06:50:00,38.9,30.3,29.64,WNW,293,0.0,2.0,71,0.00,,---,0.01,VWS V14.01,2013-02-04 11:50:00,
2013-02-04 06:51:00,38.9,30.3,29.64,WNW,293,0.0,2.0,71,0.00,,---,0.01,VWS V14.01,2013-02-04 11:51:00,
2013-02-04 06:52:00,39.0,30.4,29.63,WNW,293,0.0,2.0,71,0.00,,---,0.01,VWS V14.01,2013-02-04 11:52:00,
2013-02-04 06:53:00,39.0,30.8,29.63,WNW,293,0.0,2.0,72,0.00,,---,0.01,VWS V14.01,2013-02-04 11:53:00,
2013-02-04 06:54:00,39.0,30.8,29.63,WNW,293,0.0,2.0,72,0.00,,---,0.01,VWS V14.01,2013-02-04 11:54:00,
2013-02-04 06:55:00,38.9,30.7,29.63,WNW,293,0.0,2.0,72,0.00,,---,0.01,VWS V14.01,2013-02-04 11:55:00,
2013-02-04 06:56:00,38.9,31.0,29.63,WNW,293,0.0,2.0,73,0.00,,---,0.01,VWS V14.01,2013-02-04 11:56:00,
2013-02-04 06:57:00,38.8,30.9,29.63,WNW,293,0.0,2.0,73,0.00,,---,0.01,VWS V14.01,2013-02-04 11:57:00,
2013-02-04 06:58:00,38.8,31.2,29.63,WNW,293,0.0,2.0,74,0.00,,---,0.01,VWS V14.01,2013-02-04 11:58:00,
2013-02-04 06:59:00,38.7,31.1,29.63,WNW,293,0.0,2.0,74,0.00,,---,0.01,VWS V14.01,2013-02-04 11:59:00,
2013-02-04 07:00:00,38.7,31.1,29.63,WNW,293,0.0,2.0,74,0.00,,---,0.01,VWS V14.01,2013-02-04 12:00:00,
2013-02-04 07:01:00,38.6,31.4,29.63,WNW,293,0.0,0.0,75,0.00,,---,0.01,VWS V14.01,2013-02-04 12:01:00,
2013-02-04 07:02:00,38.6,31.4,29.63,WNW,293,0.0,1.0,75,0.00,,---,0.01,VWS V14.01,2013-02-04 12:02:00,
2013-02-04 07:03:00,38.5,31.3,29.63,WNW,293,0.0,1.0,75,0.00,,---,0.01,VWS V14.01,2013-02-04 12:03:00,
2013-02-04 07:04:00,38.5,31.6,29.63,WNW,293,0.0,1.0,76,0.00,,---,0.01,VWS V14.01,2013-02-04 12:04:00,
2013-02-04 07:05:00,38.4,31.2,29.63,WNW,293,0.0,1.0,75,0.00,,---,0.01,VWS V14.01,2013-02-04 12:05:00,
2013-02-04 07:06:00,38.4,31.5,29.64,WNW,293,0.0,1.0,76,0.00,,---,0.01,VWS V14.01,2013-02-04 12:06:00,
2013-02-04 07:07:00,38.4,31.5,29.64,WNW,293,0.0,1.0,76,0.00,,---,0.01,VWS V14.01,2013-02-04 12:07:00,
2013-02-04 07:08:00,38.4,31.2,29.64,WNW,293,0.0,1.0,75,0.00,,---,0.01,VWS V14.01,2013-02-04 12:08:00,
2013-02-04 07:09:00,38.5,31.3,29.64,WNW,293,0.0,1.0,75,0.00,,---,0.01,VWS V14.01,2013-02-04 12:09:00,
2013-02-04 07:10:00,38.5,31.3,29.64,WNW,293,0.0,1.0,75,0.00,,---,0.01,VWS V14.01,2013-02-04 12:10:00,
2013-02-04 07:11:00,38.5,31.3,29.64,WNW,293,0.0,1.0,75,0.00,,---,0.01,VWS V14.01,2013-02-04 12:11:00,
2013-02-04 07:12:00,38.5,31.6,29.63,WNW,293,0.0,1.0,76,0.00,,---,0.01,VWS V14.01,2013-02-04 12:12:00,
2013-02-04 07:13:00,38.5,31.3,29.63,WNW,293,0.0,1.0,75,0.00,,---,0.01,VWS V14.01,2013-02-04 12:13:00,
2013-02-04 07:14:00,38.6,31.4,29.63,WNW,293,0.0,1.0,75,0.00,,---,0.01,VWS V14.01,2013-02-04 12:14:00,
2013-02-04 07:15:00,38.6,31.4,29.63,WNW,293,0.0,1.0,75,0.00,,---,0.01,VWS V14.01,2013-02-04 12:15:00,
2013-02-04 07:16:00,38.6,31.4,29.63,WNW,302,0.0,1.0,75,0.00,,---,0.01,VWS V14.01,2013-02-04 12:16:00,
2013-02-04 07:17:00,38.7,31.1,29.63,WNW,302,0.0,1.0,74,0.00,,---,0.01,VWS V14.01,2013-02-04 12:17:00,
2013-02-04 07:18:00,38.7,31.1,29.63,NW,309,0.0,1.0,74,0.00,,---,0.01,VWS V14.01,2013-02-04 12:18:00,
2013-02-04 07:19:00,38.8,31.2,29.63,NW,309,0.0,1.0,74,0.00,,---,0.01,VWS V14.01,2013-02-04 12:19:00,
2013-02-04 07:20:00,38.8,31.2,29.63,NW,309,0.0,1.0,74,0.00,,---,0.01,VWS V14.01,2013-02-04 12:20:00,
2013-02-04 07:21:00,38.9,31.0,29.63,NW,309,0.0,1.0,73,0.00,,---,0.01,VWS V14.01,2013-02-04 12:21:00,
2013-02-04 07:22:00,38.9,31.0,29.63,NW,309,0.0,1.0,73,0.00,,---,0.01,VWS V14.01,2013-02-04 12:22:00,
2013-02-04 07:23:00,38.9,31.3,29.63,NW,309,0.0,1.0,74,0.00,,---,0.01,VWS V14.01,2013-02-04 12:23:00,
2013-02-04 07:24:00,39.0,31.8,29.63,NW,309,0.0,1.0,75,0.00,,---,0.01,VWS V14.01,2013-02-04 12:24:00,
2013-02-04 07:25:00,39.0,31.8,29.63,NW,309,0.0,1.0,75,0.00,,---,0.01,VWS V14.01,2013-02-04 12:25:00,
2013-02-04 07:26:00,39.0,31.4,29.63,NW,309,0.0,1.0,74,0.00,,---,0.01,VWS V14.01,2013-02-04 12:26:00,
2013-02-04 07:27:00,39.0,31.4,29.63,NW,309,0.0,1.0,74,0.00,,---,0.01,VWS V14.01,2013-02-04 12:27:00,
2013-02-04 07:28:00,39.1,31.5,29.63,NW,309,0.0,1.0,74,0.00,,---,0.01,VWS V14.01,2013-02-04 12:28:00,
2013-02-04 07:29:00,39.1,31.5,29.63,NW,309,0.0,1.0,74,0.00,,---,0.01,VWS V14.01,2013-02-04 12:29:00,
2013-02-04 07:30:00,39.2,31.6,29.63,North,360,1.0,2.0,74,0.00,,---,0.01,VWS V14.01,2013-02-04 12:30:00,
2013-02-04 07:31:00,39.3,31.4,29.63,North,360,1.0,2.0,73,0.00,,---,0.01,VWS V14.01,2013-02-04 12:31:00,
2013-02-04 07:32:00,39.3,31.4,29.63,North,360,1.0,2.0,73,0.00,,---,0.01,VWS V14.01,2013-02-04 12:32:00,
2013-02-04 07:33:00,39.4,31.5,29.63,North,5,1.0,2.0,73,0.00,,---,0.01,VWS V14.01,2013-02-04 12:33:00,
2013-02-04 07:34:00,39.5,31.2,29.63,North,5,0.0,2.0,72,0.00,,---,0.01,VWS V14.01,2013-02-04 12:34:00,
2013-02-04 07:35:00,39.5,31.2,29.63,North,5,1.0,2.0,72,0.00,,---,0.01,VWS V14.01,2013-02-04 12:35:00,
2013-02-04 07:36:00,39.6,31.3,29.63,North,5,0.0,2.0,72,0.00,,---,0.01,VWS V14.01,2013-02-04 12:36:00,
2013-02-04 07:37:00,39.6,31.0,29.63,North,5,1.0,2.0,71,0.00,,---,0.01,VWS V14.01,2013-02-04 12:37:00,
2013-02-04 07:38:00,39.7,31.4,29.63,North,5,0.0,2.0,72,0.00,,---,0.01,VWS V14.01,2013-02-04 12:38:00,
2013-02-04 07:39:00,39.8,31.5,29.63,North,5,0.0,2.0,72,0.00,,---,0.01,VWS V14.01,2013-02-04 12:39:00,
2013-02-04 07:40:00,39.8,31.2,29.63,North,5,1.0,2.0,71,0.00,,---,0.01,VWS V14.01,2013-02-04 12:40:00,
2013-02-04 07:41:00,39.9,31.3,29.63,North,5,0.0,2.0,71,0.00,,---,0.01,VWS V14.01,2013-02-04 12:41:00,
2013-02-04 07:42:00,39.9,31.3,29.63,North,5,0.0,2.0,71,0.00,,---,0.01,VWS V14.01,2013-02-04 12:42:00,
2013-02-04 07:43:00,39.9,31.3,29.63,North,5,0.0,2.0,71,0.00,,---,0.01,VWS V14.01,2013-02-04 12:43:00,
2013-02-04 07:44:00,39.9,31.3,29.63,North,5,0.0,2.0,71,0.00,,---,0.01,VWS V14.01,2013-02-04 12:44:00,
2013-02-04 07:45:00,40.0,31.7,29.63,North,5,1.0,2.0,72,0.00,,---,0.01,VWS V14.01,2013-02-04 12:45:00,
2013-02-04 07:46:00,40.0,31.4,29.64,North,5,0.0,2.0,71,0.00,,---,0.01,VWS V14.01,2013-02-04 12:46:00,
2013-02-04 07:47:00,40.1,31.5,29.64,North,5,2.0,2.0,71,0.00,,---,0.01,VWS V14.01,2013-02-04 12:47:00,
2013-02-04 07:48:00,40.1,31.1,29.64,North,5,2.0,3.0,70,0.00,,---,0.01,VWS V14.01,2013-02-04 12:48:00,
2013-02-04 07:49:00,40.1,31.1,29.64,North,5,1.0,4.0,70,0.00,,---,0.01,VWS V14.01,2013-02-04 12:49:00,
2013-02-04 07:50:00,40.2,31.2,29.64,North,360,1.0,4.0,70,0.00,,---,0.01,VWS V14.01,2013-02-04 12:50:00,
2013-02-04 07:51:00,40.2,31.2,29.64,North,360,1.0,4.0,70,0.00,,---,0.01,VWS V14.01,2013-02-04 12:51:00,
2013-02-04 07:52:00,40.2,31.2,29.64,North,360,0.0,4.0,70,0.00,,---,0.01,VWS V14.01,2013-02-04 12:52:00,
2013-02-04 07:53:00,40.2,31.2,29.64,North,360,1.0,4.0,70,0.00,,---,0.01,VWS V14.01,2013-02-04 12:53:00,
2013-02-04 07:54:00,40.2,31.2,29.64,North,360,0.0,4.0,70,0.00,,---,0.01,VWS V14.01,2013-02-04 12:54:00,
2013-02-04 07:55:00,40.3,31.3,29.64,North,360,1.0,4.0,70,0.00,,---,0.01,VWS V14.01,2013-02-04 12:55:00,
2013-02-04 07:56:00,40.3,31.3,29.64,North,9,5.0,5.0,70,0.00,,---,0.01,VWS V14.01,2013-02-04 12:56:00,
2013-02-04 07:57:00,40.3,31.0,29.64,North,360,5.0,5.0,69,0.00,,---,0.01,VWS V14.01,2013-02-04 12:57:00,
2013-02-04 07:58:00,40.4,31.0,29.64,North,11,1.0,5.0,69,0.00,,---,0.01,VWS V14.01,2013-02-04 12:58:00,
2013-02-04 07:59:00,40.4,31.0,29.64,NNE,22,5.0,6.0,69,0.00,,---,0.01,VWS V14.01,2013-02-04 12:59:00,
2013-02-04 08:00:00,40.4,31.0,29.64,NNW,331,6.0,6.0,69,0.00,,---,0.01,VWS V14.01,2013-02-04 13:00:00,
2013-02-04 08:01:00,40.5,31.1,29.64,North,360,3.0,6.0,69,0.00,,---,0.01,VWS V14.01,2013-02-04 13:01:00,
2013-02-04 08:02:00,40.5,30.8,29.64,North,9,5.0,6.0,68,0.00,,---,0.01,VWS V14.01,2013-02-04 13:02:00,
2013-02-04 08:03:00,40.5,31.1,29.64,NNE,21,2.0,6.0,69,0.00,,---,0.01,VWS V14.01,2013-02-04 13:03:00,
2013-02-04 08:04:00,40.6,31.2,29.64,NNE,15,0.0,6.0,69,0.00,,---,0.01,VWS V14.01,2013-02-04 13:04:00,
2013-02-04 08:05:00,40.7,31.0,29.64,NNE,17,4.0,6.0,68,0.00,,---,0.01,VWS V14.01,2013-02-04 13:05:00,
2013-02-04 08:06:00,40.7,31.3,29.64,East,84,4.0,6.0,69,0.00,,---,0.01,VWS V14.01,2013-02-04 13:06:00,
2013-02-04 08:07:00,40.8,31.1,29.64,North,355,6.0,6.0,68,0.00,,---,0.01,VWS V14.01,2013-02-04 13:07:00,
2013-02-04 08:08:00,40.8,31.1,29.64,NNE,15,3.0,8.0,68,0.00,,---,0.01,VWS V14.01,2013-02-04 13:08:00,
2013-02-04 08:09:00,40.9,31.2,29.64,East,92,1.0,8.0,68,0.00,,---,0.01,VWS V14.01,2013-02-04 13:09:00,
2013-02-04 08:10:00,40.9,31.2,29.64,East,92,1.0,8.0,68,0.00,,---,0.01,VWS V14.01,2013-02-04 13:10:00,
2013-02-04 08:11:00,41.0,31.3,29.64,North,11,3.0,8.0,68,0.00,,---,0.01,VWS V14.01,2013-02-04 13:11:00,
2013-02-04 08:12:00,41.1,31.4,29.64,East,90,6.0,8.0,68,0.00,,---,0.01,VWS V14.01,2013-02-04 13:12:00,
2013-02-04 08:13:00,41.2,31.5,29.64,SE,125,4.0,8.0,68,0.00,,---,0.01,VWS V14.01,2013-02-04 13:13:00,
2013-02-04 08:14:00,41.2,31.1,29.64,East,87,1.0,8.0,67,0.00,,---,0.01,VWS V14.01,2013-02-04 13:14:00,
2013-02-04 08:15:00,41.3,31.2,29.64,East,87,0.0,8.0,67,0.00,,---,0.01,VWS V14.01,2013-02-04 13:15:00,
2013-02-04 08:16:00,41.5,31.7,29.64,North,355,1.0,8.0,68,0.00,,---,0.01,VWS V14.01,2013-02-04 13:16:00,
2013-02-04 08:17:00,41.6,31.5,29.64,ENE,59,1.0,8.0,67,0.00,,---,0.01,VWS V14.01,2013-02-04 13:17:00,
2013-02-04 08:18:00,41.7,31.2,29.64,NNE,22,2.0,8.0,66,0.00,,---,0.01,VWS V14.01,2013-02-04 13:18:00,
2013-02-04 08:19:00,41.7,31.2,29.64,North,355,2.0,8.0,66,0.00,,---,0.01,VWS V14.01,2013-02-04 13:19:00,
2013-02-04 08:20:00,41.8,30.9,29.64,NNE,12,3.0,8.0,65,0.00,,---,0.01,VWS V14.01,2013-02-04 13:20:00,
2013-02-04 08:21:00,41.9,31.4,29.64,NNW,338,1.0,8.0,66,0.00,,---,0.01,VWS V14.01,2013-02-04 13:21:00,
2013-02-04 08:22:00,41.9,31.4,29.64,North,10,0.0,8.0,66,0.00,,---,0.01,VWS V14.01,2013-02-04 13:22:00,
2013-02-04 08:23:00,42.0,31.1,29.65,North,360,1.0,8.0,65,0.00,,---,0.01,VWS V14.01,2013-02-04 13:23:00,
2013-02-04 08:24:00,42.1,31.2,29.65,NNE,22,0.0,8.0,65,0.00,,---,0.01,VWS V14.01,2013-02-04 13:24:00,
2013-02-04 08:25:00,42.1,31.2,29.64,NE,42,1.0,8.0,65,0.00,,---,0.01,VWS V14.01,2013-02-04 13:25:00,
2013-02-04 08:26:00,42.3,31.4,29.64,NE,53,0.0,8.0,65,0.00,,---,0.01,VWS V14.01,2013-02-04 13:26:00,
2013-02-04 08:27:00,42.4,31.5,29.64,NE,53,1.0,8.0,65,0.00,,---,0.01,VWS V14.01,2013-02-04 13:27:00,
2013-02-04 08:28:00,42.5,31.2,29.65,North,355,2.0,8.0,64,0.00,,---,0.01,VWS V14.01,2013-02-04 13:28:00,
2013-02-04 08:29:00,42.5,31.2,29.64,North,5,2.0,8.0,64,0.00,,---,0.01,VWS V14.01,2013-02-04 13:29:00,
2013-02-04 08:30:00,42.6,31.3,29.64,North,10,1.0,8.0,64,0.00,,---,0.01,VWS V14.01,2013-02-04 13:30:00,
2013-02-04 08:31:00,42.7,31.4,29.64,East,79,2.0,4.0,64,0.00,,---,0.01,VWS V14.01,2013-02-04 13:31:00,
2013-02-04 08:32:00,42.7,31.4,29.64,East,83,4.0,4.0,64,0.00,,---,0.01,VWS V14.01,2013-02-04 13:32:00,
2013-02-04 08:33:00,42.8,31.1,29.64,East,90,5.0,5.0,63,0.00,,---,0.01,VWS V14.01,2013-02-04 13:33:00,
2013-02-04 08:34:00,42.8,31.1,29.64,ESE,112,6.0,6.0,63,0.00,,---,0.01,VWS V14.01,2013-02-04 13:34:00,
2013-02-04 08:35:00,42.8,31.1,29.64,NE,38,6.0,6.0,63,0.00,,---,0.01,VWS V14.01,2013-02-04 13:35:00,
2013-02-04 08:36:00,42.8,30.7,29.65,ENE,61,6.0,7.0,62,0.00,,---,0.01,VWS V14.01,2013-02-04 13:36:00,
2013-02-04 08:37:00,42.7,30.6,29.64,ENE,61,4.0,7.0,62,0.00,,---,0.01,VWS V14.01,2013-02-04 13:37:00,
2013-02-04 08:38:00,42.7,30.6,29.65,NNE,27,4.0,7.0,62,0.00,,---,0.01,VWS V14.01,2013-02-04 13:38:00,
2013-02-04 08:39:00,42.7,30.6,29.65,ENE,70,5.0,7.0,62,0.00,,---,0.01,VWS V14.01,2013-02-04 13:39:00,
2013-02-04 08:40:00,42.7,30.6,29.65,East,81,2.0,7.0,62,0.00,,---,0.01,VWS V14.01,2013-02-04 13:40:00,
2013-02-04 08:41:00,42.7,30.6,29.65,East,81,1.0,7.0,62,0.00,,---,0.01,VWS V14.01,2013-02-04 13:41:00,
2013-02-04 08:42:00,42.8,30.7,29.65,East,81,1.0,7.0,62,0.00,,---,0.01,VWS V14.01,2013-02-04 13:42:00,
2013-02-04 08:43:00,42.8,30.7,29.65,NE,40,4.0,7.0,62,0.00,,---,0.01,VWS V14.01,2013-02-04 13:43:00,
2013-02-04 08:44:00,42.9,30.8,29.65,ENE,66,5.0,7.0,62,0.00,,---,0.01,VWS V14.01,2013-02-04 13:44:00,
2013-02-04 08:45:00,42.8,30.7,29.65,NE,55,4.0,7.0,62,0.00,,---,0.01,VWS V14.01,2013-02-04 13:45:00,
2013-02-04 08:46:00,42.9,30.8,29.65,NE,52,3.0,7.0,62,0.00,,---,0.01,VWS V14.01,2013-02-04 13:46:00,
2013-02-04 08:47:00,42.9,30.4,29.65,ENE,57,2.0,7.0,61,0.00,,---,0.01,VWS V14.01,2013-02-04 13:47:00,
2013-02-04 08:48:00,42.9,30.8,29.65,ENE,67,2.0,7.0,62,0.00,,---,0.01,VWS V14.01,2013-02-04 13:48:00,
2013-02-04 08:49:00,43.0,30.9,29.65,NE,50,4.0,7.0,62,0.00,,---,0.01,VWS V14.01,2013-02-04 13:49:00,
2013-02-04 08:50:00,43.1,31.0,29.65,NE,38,2.0,7.0,62,0.00,,---,0.01,VWS V14.01,2013-02-04 13:50:00,
2013-02-04 08:51:00,43.1,31.0,29.65,NE,44,1.0,7.0,62,0.00,,---,0.01,VWS V14.01,2013-02-04 13:51:00,
2013-02-04 08:52:00,43.3,30.8,29.65,East,81,5.0,7.0,61,0.00,,---,0.01,VWS V14.01,2013-02-04 13:52:00,
2013-02-04 08:53:00,43.3,30.4,29.65,NE,46,6.0,7.0,60,0.00,,---,0.01,VWS V14.01,2013-02-04 13:53:00,
2013-02-04 08:54:00,43.4,30.0,29.64,East,95,1.0,7.0,59,0.00,,---,0.01,VWS V14.01,2013-02-04 13:54:00,
2013-02-04 08:55:00,43.6,30.6,29.64,East,87,4.0,7.0,60,0.00,,---,0.01,VWS V14.01,2013-02-04 13:55:00,
2013-02-04 08:56:00,43.7,30.7,29.64,East,94,5.0,7.0,60,0.00,,---,0.01,VWS V14.01,2013-02-04 13:56:00,
2013-02-04 08:57:00,43.7,30.3,29.64,ESE,111,2.0,7.0,59,0.00,,---,0.01,VWS V14.01,2013-02-04 13:57:00,
2013-02-04 08:58:00,43.7,29.9,29.64,NE,55,5.0,7.0,58,0.00,,---,0.01,VWS V14.01,2013-02-04 13:58:00,
2013-02-04 08:59:00,43.8,30.4,29.64,ENE,58,1.0,7.0,59,0.00,,---,0.01,VWS V14.01,2013-02-04 13:59:00,
2013-02-04 09:00:00,43.9,30.5,29.65,ENE,71,2.0,7.0,59,0.00,,---,0.01,VWS V14.01,2013-02-04 14:00:00,
2013-02-04 09:01:00,44.0,30.6,29.65,ENE,71,1.0,2.0,59,0.00,,---,0.01,VWS V14.01,2013-02-04 14:01:00,
2013-02-04 09:02:00,44.1,30.7,29.65,ENE,71,1.0,2.0,59,0.00,,---,0.01,VWS V14.01,2013-02-04 14:02:00,
2013-02-04 09:03:00,44.2,30.8,29.65,East,80,2.0,2.0,59,0.00,,---,0.01,VWS V14.01,2013-02-04 14:03:00,
2013-02-04 09:04:00,44.3,30.5,29.65,East,80,1.0,2.0,58,0.00,,---,0.01,VWS V14.01,2013-02-04 14:04:00,
2013-02-04 09:05:00,44.4,30.6,29.65,ENE,74,5.0,5.0,58,0.00,,---,0.01,VWS V14.01,2013-02-04 14:05:00,
2013-02-04 09:06:00,44.5,30.2,29.65,East,81,2.0,6.0,57,0.00,,---,0.01,VWS V14.01,2013-02-04 14:06:00,
2013-02-04 09:07:00,44.6,30.8,29.66,NNE,21,1.0,6.0,58,0.00,,---,0.01,VWS V14.01,2013-02-04 14:07:00,
2013-02-04 09:08:00,44.6,30.3,29.66,NE,46,2.0,6.0,57,0.00,,---,0.01,VWS V14.01,2013-02-04 14:08:00,
2013-02-04 09:09:00,44.6,30.3,29.66,NE,46,4.0,6.0,57,0.00,,---,0.01,VWS V14.01,2013-02-04 14:09:00,
2013-02-04 09:10:00,44.6,30.3,29.66,NE,46,1.0,6.0,57,0.00,,---,0.01,VWS V14.01,2013-02-04 14:10:00,
2013-02-04 09:11:00,44.7,30.4,29.66,NE,39,1.0,6.0,57,0.00,,---,0.01,VWS V14.01,2013-02-04 14:11:00,
2013-02-04 09:12:00,44.8,30.5,29.66,NE,40,1.0,6.0,57,0.00,,---,0.01,VWS V14.01,2013-02-04 14:12:00,
2013-02-04 09:13:00,44.8,30.5,29.66,NE,41,2.0,6.0,57,0.00,,---,0.01,VWS V14.01,2013-02-04 14:13:00,
2013-02-04 09:14:00,44.9,30.6,29.66,ENE,57,2.0,6.0,57,0.00,,---,0.01,VWS V14.01,2013-02-04 14:14:00,
2013-02-04 09:15:00,44.9,30.2,29.66,East,95,2.0,6.0,56,0.00,,---,0.01,VWS V14.01,2013-02-04 14:15:00,
2013-02-04 09:16:00,45.0,30.3,29.66,East,98,2.0,6.0,56,0.00,,---,0.01,VWS V14.01,2013-02-04 14:16:00,
2013-02-04 09:17:00,45.0,30.3,29.66,East,89,4.0,6.0,56,0.00,,---,0.01,VWS V14.01,2013-02-04 14:17:00,
2013-02-04 09:18:00,45.1,30.4,29.66,East,81,4.0,6.0,56,0.00,,---,0.01,VWS V14.01,2013-02-04 14:18:00,
2013-02-04 09:19:00,45.2,30.5,29.66,ENE,78,2.0,6.0,56,0.00,,---,0.01,VWS V14.01,2013-02-04 14:19:00,
2013-02-04 09:20:00,45.3,30.1,29.66,East,82,1.0,6.0,55,0.00,,---,0.01,VWS V14.01,2013-02-04 14:20:00,
2013-02-04 09:21:00,45.4,30.2,29.66,East,82,1.0,6.0,55,0.00,,---,0.01,VWS V14.01,2013-02-04 14:21:00,
2013-02-04 09:22:00,45.6,30.4,29.66,East,81,2.0,6.0,55,0.00,,---,0.01,VWS V14.01,2013-02-04 14:22:00,
2013-02-04 09:23:00,45.7,30.5,29.66,East,85,0.0,6.0,55,0.00,,---,0.01,VWS V14.01,2013-02-04 14:23:00,
2013-02-04 09:24:00,45.8,30.6,29.66,ENE,78,2.0,6.0,55,0.00,,---,0.01,VWS V14.01,2013-02-04 14:24:00,
2013-02-04 09:25:00,46.0,30.3,29.65,ENE,76,2.0,6.0,54,0.00,,---,0.01,VWS V14.01,2013-02-04 14:25:00,
2013-02-04 09:26:00,46.1,30.4,29.65,ENE,71,1.0,6.0,54,0.00,,---,0.01,VWS V14.01,2013-02-04 14:26:00,
2013-02-04 09:27:00,46.1,30.4,29.65,ESE,104,3.0,6.0,54,0.00,,---,0.01,VWS V14.01,2013-02-04 14:27:00,
2013-02-04 09:28:00,46.0,29.8,29.65,East,92,1.0,6.0,53,0.00,,---,0.01,VWS V14.01,2013-02-04 14:28:00,
2013-02-04 09:29:00,46.0,29.8,29.65,East,92,0.0,6.0,53,0.00,,---,0.01,VWS V14.01,2013-02-04 14:29:00,
2013-02-04 09:30:00,46.0,30.3,29.65,East,98,1.0,6.0,54,0.00,,---,0.01,VWS V14.01,2013-02-04 14:30:00,
2013-02-04 09:31:00,46.1,30.4,29.65,SE,129,5.0,6.0,54,0.00,,---,0.01,VWS V14.01,2013-02-04 14:31:00,
2013-02-04 09:32:00,46.1,29.0,29.65,SE,127,6.0,7.0,51,0.00,,---,0.01,VWS V14.01,2013-02-04 14:32:00,
2013-02-04 09:33:00,46.0,28.9,29.65,ENE,74,4.0,9.0,51,0.00,,---,0.01,VWS V14.01,2013-02-04 14:33:00,
2013-02-04 09:34:00,45.9,28.8,29.65,ENE,69,2.0,9.0,51,0.00,,---,0.01,VWS V14.01,2013-02-04 14:34:00,
2013-02-04 09:35:00,45.9,28.8,29.65,ESE,105,7.0,9.0,51,0.00,,---,0.01,VWS V14.01,2013-02-04 14:35:00,
2013-02-04 09:36:00,45.9,28.8,29.65,SE,130,4.0,9.0,51,0.00,,---,0.01,VWS V14.01,2013-02-04 14:36:00,
2013-02-04 09:37:00,45.8,28.7,29.65,ESE,105,4.0,9.0,51,0.00,,---,0.01,VWS V14.01,2013-02-04 14:37:00,
2013-02-04 09:38:00,45.9,28.8,29.65,ESE,107,6.0,9.0,51,0.00,,---,0.01,VWS V14.01,2013-02-04 14:38:00,
2013-02-04 09:39:00,45.8,28.2,29.65,ESE,112,5.0,9.0,50,0.00,,---,0.01,VWS V14.01,2013-02-04 14:39:00,
2013-02-04 09:40:00,45.8,28.7,29.64,ESE,119,8.0,9.0,51,0.00,,---,0.01,VWS V14.01,2013-02-04 14:40:00,
2013-02-04 09:41:00,45.8,28.7,29.65,ENE,67,4.0,9.0,51,0.00,,---,0.01,VWS V14.01,2013-02-04 14:41:00,
2013-02-04 09:42:00,45.8,28.7,29.65,East,93,4.0,9.0,51,0.00,,---,0.01,VWS V14.01,2013-02-04 14:42:00,
2013-02-04 09:43:00,45.7,28.6,29.65,ENE,67,5.0,9.0,51,0.00,,---,0.01,VWS V14.01,2013-02-04 14:43:00,
2013-02-04 09:44:00,45.8,29.2,29.65,ENE,62,1.0,9.0,52,0.00,,---,0.01,VWS V14.01,2013-02-04 14:44:00,
2013-02-04 09:45:00,45.8,29.2,29.65,ENE,76,7.0,9.0,52,0.00,,---,0.01,VWS V14.01,2013-02-04 14:45:00,
2013-02-04 09:46:00,45.8,29.2,29.65,East,83,1.0,9.0,52,0.00,,---,0.01,VWS V14.01,2013-02-04 14:46:00,
2013-02-04 09:47:00,45.8,29.2,29.65,East,86,1.0,9.0,52,0.00,,---,0.01,VWS V14.01,2013-02-04 14:47:00,
2013-02-04 09:48:00,45.8,29.2,29.65,ESE,104,4.0,9.0,52,0.00,,---,0.01,VWS V14.01,2013-02-04 14:48:00,
2013-02-04 09:49:00,45.7,29.1,29.65,NE,55,5.0,9.0,52,0.00,,---,0.01,VWS V14.01,2013-02-04 14:49:00,
2013-02-04 09:50:00,45.8,29.2,29.65,ENE,59,2.0,9.0,52,0.00,,---,0.01,VWS V14.01,2013-02-04 14:50:00,
2013-02-04 09:51:00,45.9,29.3,29.65,NNW,344,3.0,9.0,52,0.00,,---,0.01,VWS V14.01,2013-02-04 14:51:00,
2013-02-04 09:52:00,46.1,29.9,29.65,East,84,4.0,9.0,53,0.00,,---,0.01,VWS V14.01,2013-02-04 14:52:00,
2013-02-04 09:53:00,46.1,29.5,29.65,ESE,109,2.0,9.0,52,0.00,,---,0.01,VWS V14.01,2013-02-04 14:53:00,
2013-02-04 09:54:00,46.1,29.9,29.65,ENE,57,4.0,9.0,53,0.00,,---,0.01,VWS V14.01,2013-02-04 14:54:00,
2013-02-04 09:55:00,46.1,29.5,29.65,ENE,57,2.0,9.0,52,0.00,,---,0.01,VWS V14.01,2013-02-04 14:55:00,
2013-02-04 09:56:00,46.2,30.0,29.65,ENE,65,1.0,9.0,53,0.00,,---,0.01,VWS V14.01,2013-02-04 14:56:00,
2013-02-04 09:57:00,46.3,29.6,29.65,ESE,114,2.0,9.0,52,0.00,,---,0.01,VWS V14.01,2013-02-04 14:57:00,
2013-02-04 09:58:00,46.3,29.6,29.65,ESE,115,4.0,9.0,52,0.00,,---,0.01,VWS V14.01,2013-02-04 14:58:00,
2013-02-04 09:59:00,46.3,30.1,29.65,East,87,4.0,9.0,53,0.00,,---,0.01,VWS V14.01,2013-02-04 14:59:00,
2013-02-04 10:00:00,46.2,29.6,29.65,ESE,120,4.0,9.0,52,0.00,,---,0.01,VWS V14.01,2013-02-04 15:00:00,
2013-02-04 10:01:00,46.1,29.5,29.65,East,94,5.0,5.0,52,0.00,,---,0.01,VWS V14.01,2013-02-04 15:01:00,
2013-02-04 10:02:00,46.0,29.4,29.65,SE,124,4.0,5.0,52,0.00,,---,0.01,VWS V14.01,2013-02-04 15:02:00,
2013-02-04 10:03:00,45.9,29.3,29.65,ESE,118,2.0,5.0,52,0.00,,---,0.01,VWS V14.01,2013-02-04 15:03:00,
2013-02-04 10:04:00,45.9,29.3,29.65,ESE,118,3.0,5.0,52,0.00,,---,0.01,VWS V14.01,2013-02-04 15:04:00,
2013-02-04 10:05:00,45.9,29.8,29.65,ESE,122,5.0,5.0,53,0.00,,---,0.01,VWS V14.01,2013-02-04 15:05:00,
2013-02-04 10:06:00,45.8,30.1,29.65,ESE,119,2.0,5.0,54,0.00,,---,0.01,VWS V14.01,2013-02-04 15:06:00,
2013-02-04 10:07:00,45.8,29.7,29.65,ESE,119,6.0,6.0,53,0.00,,---,0.01,VWS V14.01,2013-02-04 15:07:00,
2013-02-04 10:08:00,45.8,30.1,29.65,ESE,121,4.0,6.0,54,0.00,,---,0.01,VWS V14.01,2013-02-04 15:08:00,
2013-02-04 10:09:00,45.8,30.1,29.65,ESE,122,1.0,6.0,54,0.00,,---,0.01,VWS V14.01,2013-02-04 15:09:00,
2013-02-04 10:10:00,45.8,30.1,29.65,East,91,2.0,6.0,54,0.00,,---,0.01,VWS V14.01,2013-02-04 15:10:00,
2013-02-04 10:11:00,45.8,30.1,29.65,East,86,2.0,6.0,54,0.00,,---,0.01,VWS V14.01,2013-02-04 15:11:00,
2013-02-04 10:12:00,45.7,30.0,29.65,ESE,103,4.0,6.0,54,0.00,,---,0.01,VWS V14.01,2013-02-04 15:12:00,
2013-02-04 10:13:00,45.8,30.1,29.65,ESE,105,1.0,6.0,54,0.00,,---,0.01,VWS V14.01,2013-02-04 15:13:00,
2013-02-04 10:14:00,45.8,30.1,29.65,East,96,2.0,6.0,54,0.00,,---,0.01,VWS V14.01,2013-02-04 15:14:00,
2013-02-04 10:15:00,45.8,30.1,29.65,East,96,1.0,6.0,54,0.00,,---,0.01,VWS V14.01,2013-02-04 15:15:00,
2013-02-04 10:16:00,45.8,30.1,29.65,East,96,1.0,6.0,54,0.00,,---,0.01,VWS V14.01,2013-02-04 15:16:00,
2013-02-04 10:17:00,45.9,30.2,29.65,East,96,0.0,6.0,54,0.00,,---,0.01,VWS V14.01,2013-02-04 15:17:00,
2013-02-04 10:18:00,45.9,30.2,29.65,East,96,0.0,6.0,54,0.00,,---,0.01,VWS V14.01,2013-02-04 15:18:00,
2013-02-04 10:19:00,46.1,30.4,29.65,East,98,1.0,6.0,54,0.00,,---,0.01,VWS V14.01,2013-02-04 15:19:00,
2013-02-04 10:20:00,46.1,30.4,29.65,ESE,107,2.0,6.0,54,0.00,,---,0.01,VWS V14.01,2013-02-04 15:20:00,
2013-02-04 10:21:00,46.3,30.6,29.65,South,190,1.0,6.0,54,0.00,,---,0.01,VWS V14.01,2013-02-04 15:21:00,
2013-02-04 10:22:00,46.3,31.0,29.65,SSW,197,1.0,6.0,55,0.00,,---,0.01,VWS V14.01,2013-02-04 15:22:00,
2013-02-04 10:23:00,46.3,30.6,29.65,South,183,2.0,6.0,54,0.00,,---,0.01,VWS V14.01,2013-02-04 15:23:00,
2013-02-04 10:24:00,46.3,30.6,29.65,South,181,4.0,6.0,54,0.00,,---,0.01,VWS V14.01,2013-02-04 15:24:00,
2013-02-04 10:25:00,46.2,30.5,29.65,South,181,2.0,6.0,54,0.00,,---,0.01,VWS V14.01,2013-02-04 15:25:00,
2013-02-04 10:26:00,46.1,30.4,29.65,SSW,204,5.0,6.0,54,0.00,,---,0.01,VWS V14.01,2013-02-04 15:26:00,
2013-02-04 10:27:00,46.1,30.4,29.65,SSW,204,5.0,6.0,54,0.00,,---,0.01,VWS V14.01,2013-02-04 15:27:00,
2013-02-04 10:28:00,46.0,30.3,29.65,SSW,209,2.0,6.0,54,0.00,,---,0.01,VWS V14.01,2013-02-04 15:28:00,
2013-02-04 10:29:00,46.1,30.4,29.66,SSW,209,0.0,6.0,54,0.00,,---,0.01,VWS V14.01,2013-02-04 15:29:00,
2013-02-04 10:30:00,46.1,30.9,29.65,SSW,209,0.0,6.0,55,0.00,,---,0.01,VWS V14.01,2013-02-04 15:30:00,
2013-02-04 10:31:00,46.3,30.6,29.65,SSW,207,2.0,5.0,54,0.00,,---,0.01,VWS V14.01,2013-02-04 15:31:00,
2013-02-04 10:32:00,46.3,30.6,29.65,SSW,207,0.0,5.0,54,0.00,,---,0.01,VWS V14.01,2013-02-04 15:32:00,
2013-02-04 10:33:00,46.4,30.7,29.65,SSW,207,1.0,5.0,54,0.00,,---,0.01,VWS V14.01,2013-02-04 15:33:00,
2013-02-04 10:34:00,46.5,30.8,29.66,SSW,207,3.0,5.0,54,0.00,,---,0.01,VWS V14.01,2013-02-04 15:34:00,
2013-02-04 10:35:00,46.5,30.3,29.65,SSW,211,2.0,5.0,53,0.00,,---,0.01,VWS V14.01,2013-02-04 15:35:00,
2013-02-04 10:36:00,46.6,30.4,29.65,SSW,211,0.0,5.0,53,0.00,,---,0.01,VWS V14.01,2013-02-04 15:36:00,
2013-02-04 10:37:00,46.7,31.0,29.65,South,188,2.0,5.0,54,0.00,,---,0.01,VWS V14.01,2013-02-04 15:37:00,
2013-02-04 10:38:00,46.8,30.6,29.65,SE,139,5.0,7.0,53,0.00,,---,0.01,VWS V14.01,2013-02-04 15:38:00,
2013-02-04 10:39:00,46.7,30.5,29.65,SE,141,2.0,7.0,53,0.00,,---,0.01,VWS V14.01,2013-02-04 15:39:00,
2013-02-04 10:40:00,46.8,31.0,29.65,SE,143,4.0,7.0,54,0.00,,---,0.01,VWS V14.01,2013-02-04 15:40:00,
2013-02-04 10:41:00,46.8,30.6,29.65,SE,130,2.0,7.0,53,0.00,,---,0.01,VWS V14.01,2013-02-04 15:41:00,
2013-02-04 10:42:00,46.9,30.7,29.65,SE,143,4.0,7.0,53,0.00,,---,0.01,VWS V14.01,2013-02-04 15:42:00,
2013-02-04 10:43:00,46.9,30.7,29.65,SE,143,1.0,7.0,53,0.00,,---,0.01,VWS V14.01,2013-02-04 15:43:00,
2013-02-04 10:44:00,46.8,30.6,29.65,SE,143,1.0,7.0,53,0.00,,---,0.01,VWS V14.01,2013-02-04 15:44:00,
2013-02-04 10:45:00,46.9,30.7,29.65,SE,143,1.0,7.0,53,0.00,,---,0.01,VWS V14.01,2013-02-04 15:45:00,
2013-02-04 10:46:00,46.9,30.7,29.65,South,181,4.0,7.0,53,0.00,,---,0.01,VWS V14.01,2013-02-04 15:46:00,
2013-02-04 10:47:00,47.0,30.8,29.65,SSW,204,3.0,7.0,53,0.00,,---,0.01,VWS V14.01,2013-02-04 15:47:00,
2013-02-04 10:48:00,47.1,30.4,29.65,SSW,195,5.0,7.0,52,0.00,,---,0.01,VWS V14.01,2013-02-04 15:48:00,
2013-02-04 10:49:00,47.1,29.9,29.65,SSE,152,5.0,7.0,51,0.00,,---,0.01,VWS V14.01,2013-02-04 15:49:00,
2013-02-04 10:50:00,47.2,30.5,29.65,SSE,161,1.0,7.0,52,0.00,,---,0.01,VWS V14.01,2013-02-04 15:50:00,
2013-02-04 10:51:00,47.2,30.5,29.65,South,187,5.0,7.0,52,0.00,,---,0.01,VWS V14.01,2013-02-04 15:51:00,
2013-02-04 10:52:00,47.2,30.5,29.65,South,190,0.0,7.0,52,0.00,,---,0.01,VWS V14.01,2013-02-04 15:52:00,
2013-02-04 10:53:00,47.3,30.6,29.65,ESE,110,6.0,8.0,52,0.00,,---,0.01,VWS V14.01,2013-02-04 15:53:00,
2013-02-04 10:54:00,47.5,30.3,29.65,East,83,3.0,8.0,51,0.00,,---,0.01,VWS V14.01,2013-02-04 15:54:00,
2013-02-04 10:55:00,47.7,30.0,29.65,ENE,76,4.0,8.0,50,0.00,,---,0.01,VWS V14.01,2013-02-04 15:55:00,
2013-02-04 10:56:00,47.7,29.5,29.65,ENE,76,3.0,8.0,49,0.00,,---,0.01,VWS V14.01,2013-02-04 15:56:00,
2013-02-04 10:57:00,47.8,29.6,29.65,ENE,78,4.0,8.0,49,0.00,,---,0.01,VWS V14.01,2013-02-04 15:57:00,
2013-02-04 10:58:00,47.8,30.1,29.65,ENE,76,1.0,8.0,50,0.00,,---,0.01,VWS V14.01,2013-02-04 15:58:00,
2013-02-04 10:59:00,47.7,30.0,29.65,ENE,76,1.0,8.0,50,0.00,,---,0.01,VWS V14.01,2013-02-04 15:59:00,
2013-02-04 11:00:00,47.8,30.1,29.65,ENE,73,1.0,8.0,50,0.00,,---,0.01,VWS V14.01,2013-02-04 16:00:00,
2013-02-04 11:01:00,47.9,29.7,29.65,ENE,73,0.0,1.0,49,0.00,,---,0.01,VWS V14.01,2013-02-04 16:01:00,
2013-02-04 11:02:00,48.1,29.9,29.65,ENE,73,0.0,1.0,49,0.00,,---,0.01,VWS V14.01,2013-02-04 16:02:00,
2013-02-04 11:03:00,48.3,30.5,29.65,East,83,5.0,5.0,50,0.00,,---,0.01,VWS V14.01,2013-02-04 16:03:00,
2013-02-04 11:04:00,48.4,30.6,29.65,ENE,60,5.0,5.0,50,0.00,,---,0.01,VWS V14.01,2013-02-04 16:04:00,
2013-02-04 11:05:00,48.5,30.7,29.65,ENE,61,1.0,6.0,50,0.00,,---,0.01,VWS V14.01,2013-02-04 16:05:00,
2013-02-04 11:06:00,48.5,30.2,29.65,East,101,5.0,6.0,49,0.00,,---,0.01,VWS V14.01,2013-02-04 16:06:00,
2013-02-04 11:07:00,48.6,30.3,29.65,East,101,1.0,6.0,49,0.00,,---,0.01,VWS V14.01,2013-02-04 16:07:00,
2013-02-04 11:08:00,48.5,30.2,29.65,East,101,2.0,6.0,49,0.00,,---,0.01,VWS V14.01,2013-02-04 16:08:00,
2013-02-04 11:09:00,48.5,30.2,29.65,East,101,0.0,6.0,49,0.00,,---,0.01,VWS V14.01,2013-02-04 16:09:00,
2013-02-04 11:10:00,48.4,30.1,29.64,East,101,0.0,6.0,49,0.00,,---,0.01,VWS V14.01,2013-02-04 16:10:00,
2013-02-04 11:11:00,48.3,30.0,29.65,East,101,2.0,6.0,49,0.00,,---,0.01,VWS V14.01,2013-02-04 16:11:00,
2013-02-04 11:12:00,48.4,30.1,29.64,ESE,102,2.0,6.0,49,0.00,,---,0.01,VWS V14.01,2013-02-04 16:12:00,
2013-02-04 11:13:00,48.3,30.0,29.64,ESE,103,2.0,6.0,49,0.00,,---,0.01,VWS V14.01,2013-02-04 16:13:00,
2013-02-04 11:14:00,48.3,30.0,29.64,ESE,102,1.0,6.0,49,0.00,,---,0.01,VWS V14.01,2013-02-04 16:14:00,
2013-02-04 11:15:00,48.2,30.0,29.64,ESE,102,0.0,6.0,49,0.00,,---,0.01,VWS V14.01,2013-02-04 16:15:00,
2013-02-04 11:16:00,48.3,30.0,29.64,ESE,102,0.0,6.0,49,0.00,,---,0.01,VWS V14.01,2013-02-04 16:16:00,
2013-02-04 11:17:00,46.6,30.4,29.65,SSW,211,0.0,5.0,53,0.00,,---,0.01,VWS V14.01,2013-02-04 16:17:00,
2013-02-04 11:18:00,48.3,30.0,29.64,ESE,119,4.0,6.0,49,0.00,,---,0.01,VWS V14.01,2013-02-04 16:18:00,
2013-02-04 11:19:00,48.3,30.0,29.64,ESE,118,2.0,6.0,49,0.00,,---,0.01,VWS V14.01,2013-02-04 16:19:00,
2013-02-04 11:20:00,48.4,30.1,29.64,ESE,118,1.0,6.0,49,0.00,,---,0.01,VWS V14.01,2013-02-04 16:20:00,
2013-02-04 11:21:00,48.4,30.1,29.64,ESE,121,2.0,6.0,49,0.00,,---,0.01,VWS V14.01,2013-02-04 16:21:00,
2013-02-04 11:22:00,48.5,30.7,29.64,South,180,4.0,6.0,50,0.00,,---,0.01,VWS V14.01,2013-02-04 16:22:00,
2013-02-04 11:23:00,48.5,30.7,29.64,SW,219,4.0,6.0,50,0.00,,---,0.01,VWS V14.01,2013-02-04 16:23:00,
2013-02-04 11:24:00,48.5,30.2,29.64,SSW,205,4.0,6.0,49,0.00,,---,0.01,VWS V14.01,2013-02-04 16:24:00,
2013-02-04 11:25:00,48.5,30.2,29.64,SW,217,2.0,6.0,49,0.00,,---,0.01,VWS V14.01,2013-02-04 16:25:00,
2013-02-04 11:26:00,48.6,30.3,29.64,SW,227,1.0,6.0,49,0.00,,---,0.01,VWS V14.01,2013-02-04 16:26:00,
2013-02-04 11:27:00,48.7,30.9,29.64,WSW,256,0.0,6.0,50,0.00,,---,0.01,VWS V14.01,2013-02-04 16:27:00,
2013-02-04 11:28:00,48.8,31.0,29.64,WSW,247,0.0,6.0,50,0.00,,---,0.01,VWS V14.01,2013-02-04 16:28:00,
2013-02-04 11:29:00,48.8,31.0,29.64,SW,219,4.0,6.0,50,0.00,,---,0.01,VWS V14.01,2013-02-04 16:29:00,
2013-02-04 11:30:00,48.9,30.6,29.64,SSW,204,2.0,6.0,49,0.00,,---,0.01,VWS V14.01,2013-02-04 16:30:00,
2013-02-04 11:31:00,48.8,30.5,29.64,South,181,1.0,5.0,49,0.00,,---,0.01,VWS V14.01,2013-02-04 16:31:00,
2013-02-04 11:32:00,47.2,30.5,29.65,South,187,5.0,7.0,52,0.00,,---,0.01,VWS V14.01,2013-02-04 16:32:00,
2013-02-04 11:33:00,48.8,30.5,29.64,South,181,0.0,5.0,49,0.00,,---,0.01,VWS V14.01,2013-02-04 16:33:00,
2013-02-04 11:34:00,48.8,30.5,29.64,South,181,0.0,5.0,49,0.00,,---,0.01,VWS V14.01,2013-02-04 16:34:00,
2013-02-04 11:35:00,48.8,30.5,29.64,South,181,0.0,5.0,49,0.00,,---,0.01,VWS V14.01,2013-02-04 16:35:00,
2013-02-04 11:36:00,48.8,30.5,29.64,South,181,2.0,5.0,49,0.00,,---,0.01,VWS V14.01,2013-02-04 16:36:00,
2013-02-04 11:37:00,48.9,30.1,29.64,South,181,2.0,5.0,48,0.00,,---,0.01,VWS V14.01,2013-02-04 16:37:00,
2013-02-04 11:38:00,49.0,30.2,29.65,South,181,1.0,5.0,48,0.00,,---,0.01,VWS V14.01,2013-02-04 16:38:00,
2013-02-04 11:39:00,49.0,30.2,29.65,South,181,1.0,5.0,48,0.00,,---,0.01,VWS V14.01,2013-02-04 16:39:00,
2013-02-04 11:40:00,49.1,30.3,29.65,South,172,1.0,5.0,48,0.00,,---,0.01,VWS V14.01,2013-02-04 16:40:00,
2013-02-04 11:41:00,49.1,30.3,29.65,South,172,0.0,5.0,48,0.00,,---,0.01,VWS V14.01,2013-02-04 16:41:00,
2013-02-04 11:42:00,49.2,30.4,29.64,South,172,0.0,5.0,48,0.00,,---,0.01,VWS V14.01,2013-02-04 16:42:00,
2013-02-04 11:43:00,49.4,30.5,29.65,South,172,0.0,5.0,48,0.00,,---,0.01,VWS V14.01,2013-02-04 16:43:00,
2013-02-04 11:44:00,49.5,30.6,29.64,South,172,0.0,5.0,48,0.00,,---,0.01,VWS V14.01,2013-02-04 16:44:00,
2013-02-04 11:45:00,49.7,30.8,29.64,South,172,0.0,5.0,48,0.00,,---,0.01,VWS V14.01,2013-02-04 16:45:00,
2013-02-04 11:46:00,49.8,30.4,29.64,South,172,0.0,5.0,47,0.00,,---,0.01,VWS V14.01,2013-02-04 16:46:00,
2013-02-04 11:47:00,49.7,30.8,29.65,South,172,0.0,5.0,48,0.00,,---,0.01,VWS V14.01,2013-02-04 16:47:00,
2013-02-04 11:48:00,49.6,30.7,29.64,SW,225,1.0,5.0,48,0.00,,---,0.01,VWS V14.01,2013-02-04 16:48:00,
2013-02-04 11:49:00,49.7,30.8,29.64,West,277,0.0,5.0,48,0.00,,---,0.01,VWS V14.01,2013-02-04 16:49:00,
2013-02-04 11:50:00,49.8,30.4,29.64,NW,323,2.0,5.0,47,0.00,,---,0.01,VWS V14.01,2013-02-04 16:50:00,
2013-02-04 11:51:00,49.9,30.5,29.64,West,270,1.0,5.0,47,0.00,,---,0.01,VWS V14.01,2013-02-04 16:51:00,
2013-02-04 11:52:00,50.1,31.2,29.64,WNW,288,1.0,5.0,48,0.00,,---,0.01,VWS V14.01,2013-02-04 16:52:00,
2013-02-04 11:53:00,50.2,30.8,29.64,WNW,286,0.0,5.0,47,0.00,,---,0.01,VWS V14.01,2013-02-04 16:53:00,
2013-02-04 11:54:00,50.1,30.1,29.64,West,275,1.0,5.0,46,0.00,,---,0.01,VWS V14.01,2013-02-04 16:54:00,
2013-02-04 11:55:00,50.3,31.4,29.64,West,281,2.0,5.0,48,0.00,,---,0.01,VWS V14.01,2013-02-04 16:55:00,
2013-02-04 11:56:00,50.4,31.0,29.64,SW,225,6.0,6.0,47,0.00,,---,0.01,VWS V14.01,2013-02-04 16:56:00,
2013-02-04 11:57:00,50.5,30.5,29.64,SW,229,5.0,8.0,46,0.00,,---,0.01,VWS V14.01,2013-02-04 16:57:00,
2013-02-04 11:58:00,50.5,31.0,29.64,SSW,211,5.0,8.0,47,0.00,,---,0.01,VWS V14.01,2013-02-04 16:58:00,
2013-02-04 11:59:00,50.5,31.0,29.64,West,270,7.0,8.0,47,0.00,,---,0.01,VWS V14.01,2013-02-04 16:59:00,
2013-02-04 12:00:00,50.6,30.6,29.64,West,263,2.0,8.0,46,0.00,,---,0.01,VWS V14.01,2013-02-04 17:00:00,
2013-02-04 12:01:00,50.5,30.5,29.64,West,263,0.0,2.0,46,0.00,,---,0.01,VWS V14.01,2013-02-04 17:01:00,
2013-02-04 12:02:00,50.5,30.5,29.64,West,263,1.0,2.0,46,0.00,,---,0.01,VWS V14.01,2013-02-04 17:02:00,
2013-02-04 12:03:00,50.4,30.4,29.64,West,263,1.0,2.0,46,0.00,,---,0.01,VWS V14.01,2013-02-04 17:03:00,
2013-02-04 12:04:00,50.6,31.1,29.64,SSW,211,6.0,6.0,47,0.00,,---,0.01,VWS V14.01,2013-02-04 17:04:00,
2013-02-04 12:05:00,50.6,30.6,29.64,SSW,196,4.0,7.0,46,0.00,,---,0.01,VWS V14.01,2013-02-04 17:05:00,
2013-02-04 12:06:00,50.6,30.6,29.63,SSW,213,5.0,7.0,46,0.00,,---,0.01,VWS V14.01,2013-02-04 17:06:00,
2013-02-04 12:07:00,50.5,30.5,29.63,South,188,4.0,7.0,46,0.00,,---,0.01,VWS V14.01,2013-02-04 17:07:00,
2013-02-04 12:08:00,50.4,30.4,29.63,South,186,2.0,7.0,46,0.00,,---,0.01,VWS V14.01,2013-02-04 17:08:00,
2013-02-04 12:09:00,50.4,30.4,29.63,South,191,5.0,7.0,46,0.00,,---,0.01,VWS V14.01,2013-02-04 17:09:00,
2013-02-04 12:10:00,50.4,30.4,29.63,West,280,3.0,7.0,46,0.00,,---,0.01,VWS V14.01,2013-02-04 17:10:00,
2013-02-04 12:11:00,50.5,30.5,29.63,West,267,4.0,7.0,46,0.00,,---,0.01,VWS V14.01,2013-02-04 17:11:00,
2013-02-04 12:12:00,50.6,30.6,29.63,West,277,1.0,7.0,46,0.00,,---,0.01,VWS V14.01,2013-02-04 17:12:00,
2013-02-04 12:13:00,50.6,30.6,29.62,West,279,1.0,7.0,46,0.00,,---,0.01,VWS V14.01,2013-02-04 17:13:00,
2013-02-04 12:14:00,50.6,30.6,29.62,SSW,212,4.0,7.0,46,0.00,,---,0.01,VWS V14.01,2013-02-04 17:14:00,
2013-02-04 12:15:00,50.6,30.6,29.62,SSW,206,6.0,7.0,46,0.00,,---,0.01,VWS V14.01,2013-02-04 17:15:00,
2013-02-04 12:16:00,50.5,30.5,29.62,SW,218,2.0,7.0,46,0.00,,---,0.01,VWS V14.01,2013-02-04 17:16:00,
2013-02-04 12:17:00,50.5,30.0,29.62,SSW,207,2.0,7.0,45,0.00,,---,0.01,VWS V14.01,2013-02-04 17:17:00,
2013-02-04 12:18:00,50.5,30.5,29.62,SW,215,3.0,7.0,46,0.00,,---,0.01,VWS V14.01,2013-02-04 17:18:00,
2013-02-04 12:19:00,50.5,30.5,29.62,SW,215,0.0,7.0,46,0.00,,---,0.01,VWS V14.01,2013-02-04 17:19:00,
2013-02-04 12:20:00,50.7,30.7,29.62,West,267,6.0,7.0,46,0.00,,---,0.01,VWS V14.01,2013-02-04 17:20:00,
2013-02-04 12:21:00,50.9,30.9,29.62,WNW,286,4.0,7.0,46,0.00,,---,0.01,VWS V14.01,2013-02-04 17:21:00,
2013-02-04 12:22:00,51.0,31.0,29.62,West,281,4.0,7.0,46,0.00,,---,0.01,VWS V14.01,2013-02-04 17:22:00,
2013-02-04 12:23:00,51.3,31.2,29.62,West,281,3.0,7.0,46,0.00,,---,0.01,VWS V14.01,2013-02-04 17:23:00,
2013-02-04 12:24:00,51.5,31.4,29.62,West,277,5.0,7.0,46,0.00,,---,0.01,VWS V14.01,2013-02-04 17:24:00,
2013-02-04 12:25:00,51.7,31.6,29.62,WSW,249,5.0,7.0,46,0.00,,---,0.01,VWS V14.01,2013-02-04 17:25:00,
2013-02-04 12:26:00,51.7,30.5,29.62,West,266,4.0,7.0,44,0.00,,---,0.01,VWS V14.01,2013-02-04 17:26:00,
2013-02-04 12:27:00,51.7,31.1,29.62,WSW,241,8.0,8.0,45,0.00,,---,0.01,VWS V14.01,2013-02-04 17:27:00,
2013-02-04 12:28:00,51.8,31.1,29.61,West,270,5.0,8.0,45,0.00,,---,0.01,VWS V14.01,2013-02-04 17:28:00,
2013-02-04 12:29:00,51.8,30.6,29.61,West,263,4.0,8.0,44,0.00,,---,0.01,VWS V14.01,2013-02-04 17:29:00,
2013-02-04 12:30:00,51.7,30.5,29.61,West,263,3.0,8.0,44,0.00,,---,0.01,VWS V14.01,2013-02-04 17:30:00,
2013-02-04 12:31:00,51.7,31.1,29.61,West,271,2.0,4.0,45,0.00,,---,0.01,VWS V14.01,2013-02-04 17:31:00,
2013-02-04 12:32:00,51.6,31.0,29.62,West,279,4.0,5.0,45,0.00,,---,0.01,VWS V14.01,2013-02-04 17:32:00,
2013-02-04 12:33:00,51.6,31.0,29.62,West,277,4.0,6.0,45,0.00,,---,0.01,VWS V14.01,2013-02-04 17:33:00,
2013-02-04 12:34:00,51.5,30.9,29.62,WNW,282,4.0,6.0,45,0.00,,---,0.01,VWS V14.01,2013-02-04 17:34:00,
2013-02-04 12:35:00,51.5,30.9,29.62,WNW,282,1.0,6.0,45,0.00,,---,0.01,VWS V14.01,2013-02-04 17:35:00,
2013-02-04 12:36:00,51.6,31.5,29.62,West,279,3.0,6.0,46,0.00,,---,0.01,VWS V14.01,2013-02-04 17:36:00,
2013-02-04 12:37:00,51.7,31.1,29.62,West,279,2.0,6.0,45,0.00,,---,0.01,VWS V14.01,2013-02-04 17:37:00,
2013-02-04 12:38:00,51.7,31.1,29.62,NW,315,4.0,6.0,45,0.00,,---,0.01,VWS V14.01,2013-02-04 17:38:00,
2013-02-04 12:39:00,51.7,31.1,29.62,West,271,6.0,6.0,45,0.00,,---,0.01,VWS V14.01,2013-02-04 17:39:00,
2013-02-04 12:40:00,50.5,31.0,29.64,WSW,250,7.0,8.0,47,0.00,,---,0.01,VWS V14.01,2013-02-04 17:40:00,
2013-02-04 12:41:00,51.8,30.6,29.62,WNW,284,1.0,7.0,44,0.00,,---,0.01,VWS V14.01,2013-02-04 17:41:00,
2013-02-04 12:42:00,51.7,30.5,29.62,WNW,284,1.0,7.0,44,0.00,,---,0.01,VWS V14.01,2013-02-04 17:42:00,
2013-02-04 12:43:00,51.7,30.5,29.62,WNW,286,0.0,7.0,44,0.00,,---,0.01,VWS V14.01,2013-02-04 17:43:00,
2013-02-04 12:44:00,51.7,30.5,29.62,WNW,284,4.0,7.0,44,0.00,,---,0.01,VWS V14.01,2013-02-04 17:44:00,
2013-02-04 12:45:00,51.8,30.6,29.62,WNW,284,1.0,7.0,44,0.00,,---,0.01,VWS V14.01,2013-02-04 17:45:00,
2013-02-04 12:46:00,51.9,31.2,29.62,WNW,284,0.0,7.0,45,0.00,,---,0.01,VWS V14.01,2013-02-04 17:46:00,
2013-02-04 12:47:00,52.0,30.8,29.62,WNW,282,0.0,7.0,44,0.00,,---,0.01,VWS V14.01,2013-02-04 17:47:00,
2013-02-04 12:48:00,51.9,30.7,29.62,WNW,282,1.0,7.0,44,0.00,,---,0.01,VWS V14.01,2013-02-04 17:48:00,
2013-02-04 12:49:00,52.1,30.9,29.61,WNW,282,2.0,7.0,44,0.00,,---,0.01,VWS V14.01,2013-02-04 17:49:00,
2013-02-04 12:50:00,52.3,31.0,29.61,WNW,282,2.0,7.0,44,0.00,,---,0.01,VWS V14.01,2013-02-04 17:50:00,
2013-02-04 12:51:00,52.4,31.1,29.61,West,279,5.0,7.0,44,0.00,,---,0.01,VWS V14.01,2013-02-04 17:51:00,
2013-02-04 12:52:00,52.5,30.7,29.61,SW,232,5.0,7.0,43,0.00,,---,0.01,VWS V14.01,2013-02-04 17:52:00,
2013-02-04 12:53:00,52.3,30.5,29.61,SW,224,5.0,7.0,43,0.00,,---,0.01,VWS V14.01,2013-02-04 17:53:00,
2013-02-04 12:54:00,52.1,30.3,29.61,SW,223,4.0,7.0,43,0.00,,---,0.01,VWS V14.01,2013-02-04 17:54:00,
2013-02-04 12:55:00,52.0,30.2,29.61,SSW,194,5.0,7.0,43,0.00,,---,0.01,VWS V14.01,2013-02-04 17:55:00,
2013-02-04 12:56:00,51.9,30.1,29.61,South,190,4.0,7.0,43,0.00,,---,0.01,VWS V14.01,2013-02-04 17:56:00,
2013-02-04 12:57:00,51.9,30.1,29.61,WSW,238,2.0,7.0,43,0.00,,---,0.01,VWS V14.01,2013-02-04 17:57:00,
2013-02-04 12:58:00,51.9,30.7,29.61,SW,221,4.0,7.0,44,0.00,,---,0.01,VWS V14.01,2013-02-04 17:58:00,
2013-02-04 12:59:00,51.9,30.7,29.61,SW,219,4.0,8.0,44,0.00,,---,0.01,VWS V14.01,2013-02-04 17:59:00,
2013-02-04 13:00:00,51.9,30.7,29.61,South,184,5.0,8.0,44,0.00,,---,0.01,VWS V14.01,2013-02-04 18:00:00,
2013-02-04 13:01:00,51.8,30.0,29.61,South,171,1.0,4.0,43,0.00,,---,0.01,VWS V14.01,2013-02-04 18:01:00,
2013-02-04 13:02:00,52.0,30.2,29.61,SSW,201,5.0,5.0,43,0.00,,---,0.01,VWS V14.01,2013-02-04 18:02:00,
2013-02-04 13:03:00,52.0,30.8,29.61,SW,228,7.0,8.0,44,0.00,,---,0.01,VWS V14.01,2013-02-04 18:03:00,
2013-02-04 13:04:00,52.1,30.9,29.61,WSW,255,6.0,8.0,44,0.00,,---,0.01,VWS V14.01,2013-02-04 18:04:00,
2013-02-04 13:05:00,52.2,30.4,29.61,West,267,5.0,8.0,43,0.00,,---,0.01,VWS V14.01,2013-02-04 18:05:00,
2013-02-04 13:06:00,52.3,30.5,29.61,WSW,250,5.0,8.0,43,0.00,,---,0.01,VWS V14.01,2013-02-04 18:06:00,
2013-02-04 13:07:00,52.4,31.1,29.61,West,263,6.0,8.0,44,0.00,,---,0.01,VWS V14.01,2013-02-04 18:07:00,
2013-02-04 13:08:00,52.5,30.7,29.61,West,259,5.0,8.0,43,0.00,,---,0.01,VWS V14.01,2013-02-04 18:08:00,
2013-02-04 13:09:00,52.5,30.7,29.61,West,267,4.0,8.0,43,0.00,,---,0.01,VWS V14.01,2013-02-04 18:09:00,
2013-02-04 13:10:00,52.4,30.0,29.61,West,267,2.0,8.0,42,0.00,,---,0.01,VWS V14.01,2013-02-04 18:10:00,
2013-02-04 13:11:00,52.4,30.0,29.61,West,267,2.0,8.0,42,0.00,,---,0.01,VWS V14.01,2013-02-04 18:11:00,
2013-02-04 13:12:00,52.5,30.7,29.61,West,268,1.0,8.0,43,0.00,,---,0.01,VWS V14.01,2013-02-04 18:12:00,
2013-02-04 13:13:00,52.5,30.7,29.61,West,272,2.0,8.0,43,0.00,,---,0.01,VWS V14.01,2013-02-04 18:13:00,
2013-02-04 13:14:00,52.7,30.9,29.61,WSW,238,2.0,8.0,43,0.00,,---,0.01,VWS V14.01,2013-02-04 18:14:00,
2013-02-04 13:15:00,52.8,30.4,29.61,SSW,213,6.0,8.0,42,0.00,,---,0.01,VWS V14.01,2013-02-04 18:15:00,
2013-02-04 13:16:00,52.9,31.0,29.61,WSW,256,8.0,9.0,43,0.00,,---,0.01,VWS V14.01,2013-02-04 18:16:00,
2013-02-04 13:17:00,52.9,30.5,29.61,WSW,239,4.0,9.0,42,0.00,,---,0.01,VWS V14.01,2013-02-04 18:17:00,
2013-02-04 13:18:00,52.8,30.4,29.61,West,270,4.0,9.0,42,0.00,,---,0.01,VWS V14.01,2013-02-04 18:18:00,
2013-02-04 13:19:00,52.8,30.9,29.61,WSW,246,9.0,9.0,43,0.00,,---,0.01,VWS V14.01,2013-02-04 18:19:00,
2013-02-04 13:20:00,52.8,30.4,29.61,WSW,246,3.0,9.0,42,0.00,,---,0.01,VWS V14.01,2013-02-04 18:20:00,
2013-02-04 13:21:00,52.8,30.9,29.61,SW,236,1.0,9.0,43,0.00,,---,0.01,VWS V14.01,2013-02-04 18:21:00,
2013-02-04 13:22:00,52.9,31.0,29.60,SW,217,5.0,9.0,43,0.00,,---,0.01,VWS V14.01,2013-02-04 18:22:00,
2013-02-04 13:23:00,52.9,30.5,29.60,South,183,5.0,9.0,42,0.00,,---,0.01,VWS V14.01,2013-02-04 18:23:00,
2013-02-04 13:24:00,52.9,31.0,29.60,South,182,7.0,9.0,43,0.00,,---,0.01,VWS V14.01,2013-02-04 18:24:00,
2013-02-04 13:25:00,52.8,30.9,29.60,South,187,1.0,9.0,43,0.00,,---,0.01,VWS V14.01,2013-02-04 18:25:00,
2013-02-04 13:26:00,52.8,31.5,29.60,South,184,2.0,9.0,44,0.00,,---,0.01,VWS V14.01,2013-02-04 18:26:00,
2013-02-04 13:27:00,52.9,31.0,29.60,South,184,1.0,9.0,43,0.00,,---,0.01,VWS V14.01,2013-02-04 18:27:00,
2013-02-04 13:28:00,52.8,30.9,29.60,SSE,167,4.0,9.0,43,0.00,,---,0.01,VWS V14.01,2013-02-04 18:28:00,
2013-02-04 13:29:00,52.8,30.9,29.60,SW,223,9.0,9.0,43,0.00,,---,0.01,VWS V14.01,2013-02-04 18:29:00,
2013-02-04 13:30:00,52.9,31.0,29.60,SW,221,7.0,9.0,43,0.00,,---,0.01,VWS V14.01,2013-02-04 18:30:00,
2013-02-04 13:31:00,52.9,30.5,29.60,SW,214,7.0,8.0,42,0.00,,---,0.01,VWS V14.01,2013-02-04 18:31:00,
2013-02-04 13:32:00,52.9,31.0,29.60,SW,217,8.0,8.0,43,0.00,,---,0.01,VWS V14.01,2013-02-04 18:32:00,
2013-02-04 13:33:00,52.9,31.0,29.60,SW,234,8.0,8.0,43,0.00,,---,0.01,VWS V14.01,2013-02-04 18:33:00,
2013-02-04 13:34:00,53.1,30.6,29.60,SW,229,6.0,8.0,42,0.00,,---,0.01,VWS V14.01,2013-02-04 18:34:00,
2013-02-04 13:35:00,53.1,30.6,29.60,WSW,242,5.0,8.0,42,0.00,,---,0.01,VWS V14.01,2013-02-04 18:35:00,
2013-02-04 13:36:00,53.1,30.6,29.60,SW,225,2.0,8.0,42,0.00,,---,0.01,VWS V14.01,2013-02-04 18:36:00,
2013-02-04 13:37:00,53.2,30.7,29.59,SSW,210,4.0,8.0,42,0.00,,---,0.01,VWS V14.01,2013-02-04 18:37:00,
2013-02-04 13:38:00,53.4,31.5,29.59,SW,219,5.0,8.0,43,0.00,,---,0.01,VWS V14.01,2013-02-04 18:38:00,
2013-02-04 13:39:00,53.6,31.7,29.59,WSW,254,6.0,8.0,43,0.00,,---,0.01,VWS V14.01,2013-02-04 18:39:00,
2013-02-04 13:40:00,53.6,31.1,29.60,SW,233,6.0,8.0,42,0.00,,---,0.01,VWS V14.01,2013-02-04 18:40:00,
2013-02-04 13:41:00,53.6,30.5,29.59,WSW,241,2.0,8.0,41,0.00,,---,0.01,VWS V14.01,2013-02-04 18:41:00,
2013-02-04 13:42:00,53.5,30.4,29.59,WSW,249,4.0,8.0,41,0.00,,---,0.01,VWS V14.01,2013-02-04 18:42:00,
2013-02-04 13:43:00,53.6,31.1,29.59,SW,232,6.0,8.0,42,0.00,,---,0.01,VWS V14.01,2013-02-04 18:43:00,
2013-02-04 13:44:00,53.6,31.1,29.59,SSW,207,6.0,8.0,42,0.00,,---,0.01,VWS V14.01,2013-02-04 18:44:00,
2013-02-04 13:45:00,53.4,30.9,29.59,WSW,239,5.0,8.0,42,0.00,,---,0.01,VWS V14.01,2013-02-04 18:45:00,
2013-02-04 13:46:00,53.3,30.2,29.59,WSW,239,2.0,8.0,41,0.00,,---,0.01,VWS V14.01,2013-02-04 18:46:00,
2013-02-04 13:47:00,53.2,30.7,29.59,SSW,210,4.0,8.0,42,0.00,,---,0.01,VWS V14.01,2013-02-04 18:47:00,
2013-02-04 13:48:00,53.2,30.7,29.59,SW,218,5.0,8.0,42,0.00,,---,0.01,VWS V14.01,2013-02-04 18:48:00,
2013-02-04 13:49:00,53.1,30.6,29.59,SW,217,1.0,8.0,42,0.00,,---,0.01,VWS V14.01,2013-02-04 18:49:00,
2013-02-04 13:50:00,53.0,30.5,29.59,SSW,213,2.0,8.0,42,0.00,,---,0.01,VWS V14.01,2013-02-04 18:50:00,
2013-02-04 13:51:00,53.0,30.5,29.59,SSW,213,1.0,8.0,42,0.00,,---,0.01,VWS V14.01,2013-02-04 18:51:00,
2013-02-04 13:52:00,53.0,30.5,29.59,SW,228,2.0,8.0,42,0.00,,---,0.01,VWS V14.01,2013-02-04 18:52:00,
2013-02-04 13:53:00,53.1,30.6,29.59,SW,230,1.0,8.0,42,0.00,,---,0.01,VWS V14.01,2013-02-04 18:53:00,
2013-02-04 13:54:00,53.2,30.7,29.59,SW,217,6.0,8.0,42,0.00,,---,0.01,VWS V14.01,2013-02-04 18:54:00,
2013-02-04 13:55:00,53.3,30.8,29.59,SW,223,5.0,8.0,42,0.00,,---,0.01,VWS V14.01,2013-02-04 18:55:00,
2013-02-04 13:56:00,53.3,30.8,29.59,SSW,212,2.0,8.0,42,0.00,,---,0.01,VWS V14.01,2013-02-04 18:56:00,
2013-02-04 13:57:00,53.3,30.8,29.59,SW,232,6.0,8.0,42,0.00,,---,0.01,VWS V14.01,2013-02-04 18:57:00,
2013-02-04 13:58:00,53.3,30.8,29.59,WSW,238,4.0,8.0,42,0.00,,---,0.01,VWS V14.01,2013-02-04 18:58:00,
2013-02-04 13:59:00,53.3,30.8,29.59,WSW,238,5.0,8.0,42,0.00,,---,0.01,VWS V14.01,2013-02-04 18:59:00,
2013-02-04 14:00:00,53.3,30.8,29.59,WSW,244,4.0,8.0,42,0.00,,---,0.01,VWS V14.01,2013-02-04 19:00:00,
2013-02-04 14:01:00,53.3,30.8,29.59,WNW,282,4.0,4.0,42,0.00,,---,0.01,VWS V14.01,2013-02-04 19:01:00,
2013-02-04 14:02:00,53.3,30.8,29.59,WSW,245,2.0,5.0,42,0.00,,---,0.01,VWS V14.01,2013-02-04 19:02:00,
2013-02-04 14:03:00,53.4,30.9,29.58,WSW,241,1.0,5.0,42,0.00,,---,0.01,VWS V14.01,2013-02-04 19:03:00,
2013-02-04 14:04:00,53.5,31.0,29.58,SSW,213,4.0,5.0,42,0.00,,---,0.01,VWS V14.01,2013-02-04 19:04:00,
2013-02-04 14:05:00,53.5,31.0,29.58,South,186,3.0,5.0,42,0.00,,---,0.01,VWS V14.01,2013-02-04 19:05:00,
2013-02-04 14:06:00,53.4,30.9,29.58,SSE,165,1.0,5.0,42,0.00,,---,0.01,VWS V14.01,2013-02-04 19:06:00,
2013-02-04 14:07:00,53.4,30.9,29.58,SSE,162,1.0,5.0,42,0.00,,---,0.01,VWS V14.01,2013-02-04 19:07:00,
2013-02-04 14:08:00,53.4,30.9,29.58,SSE,162,0.0,5.0,42,0.00,,---,0.01,VWS V14.01,2013-02-04 19:08:00,
2013-02-04 14:09:00,53.5,31.0,29.58,ESE,117,1.0,5.0,42,0.00,,---,0.01,VWS V14.01,2013-02-04 19:09:00,
2013-02-04 14:10:00,53.5,31.0,29.58,ESE,117,0.0,5.0,42,0.00,,---,0.01,VWS V14.01,2013-02-04 19:10:00,
2013-02-04 14:11:00,53.6,31.1,29.58,SSE,157,1.0,5.0,42,0.00,,---,0.01,VWS V14.01,2013-02-04 19:11:00,
2013-02-04 14:12:00,53.7,31.2,29.58,SSE,160,1.0,5.0,42,0.00,,---,0.01,VWS V14.01,2013-02-04 19:12:00,
2013-02-04 14:13:00,53.8,31.3,29.58,SSW,202,4.0,5.0,42,0.00,,---,0.01,VWS V14.01,2013-02-04 19:13:00,
2013-02-04 14:14:00,53.9,30.8,29.58,West,259,1.0,6.0,41,0.00,,---,0.01,VWS V14.01,2013-02-04 19:14:00,
2013-02-04 14:15:00,53.9,31.4,29.58,WSW,257,1.0,6.0,42,0.00,,---,0.01,VWS V14.01,2013-02-04 19:15:00,
2013-02-04 14:16:00,54.0,30.9,29.58,WSW,239,4.0,6.0,41,0.00,,---,0.01,VWS V14.01,2013-02-04 19:16:00,
2013-02-04 14:17:00,54.0,30.9,29.58,SSW,194,2.0,6.0,41,0.00,,---,0.01,VWS V14.01,2013-02-04 19:17:00,
2013-02-04 14:18:00,54.0,30.9,29.58,WSW,238,5.0,6.0,41,0.00,,---,0.01,VWS V14.01,2013-02-04 19:18:00,
2013-02-04 14:19:00,54.0,30.9,29.58,WSW,238,3.0,7.0,41,0.00,,---,0.01,VWS V14.01,2013-02-04 19:19:00,
2013-02-04 14:20:00,54.1,30.9,29.58,WSW,246,5.0,7.0,41,0.00,,---,0.01,VWS V14.01,2013-02-04 19:20:00,
2013-02-04 14:21:00,54.1,30.9,29.58,WSW,246,4.0,7.0,41,0.00,,---,0.01,VWS V14.01,2013-02-04 19:21:00,
2013-02-04 14:22:00,54.1,30.3,29.58,WSW,246,2.0,7.0,40,0.00,,---,0.01,VWS V14.01,2013-02-04 19:22:00,
2013-02-04 14:23:00,54.1,30.3,29.58,SW,225,3.0,7.0,40,0.00,,---,0.01,VWS V14.01,2013-02-04 19:23:00,
2013-02-04 14:24:00,54.1,30.9,29.58,SW,234,5.0,7.0,41,0.00,,---,0.01,VWS V14.01,2013-02-04 19:24:00,
2013-02-04 14:25:00,54.1,30.3,29.58,SW,234,2.0,7.0,40,0.00,,---,0.01,VWS V14.01,2013-02-04 19:25:00,
2013-02-04 14:26:00,54.1,30.3,29.58,SW,217,5.0,7.0,40,0.00,,---,0.01,VWS V14.01,2013-02-04 19:26:00,
2013-02-04 14:27:00,54.0,30.2,29.58,SW,230,5.0,7.0,40,0.00,,---,0.01,VWS V14.01,2013-02-04 19:27:00,
2013-02-04 14:28:00,54.0,30.2,29.58,West,277,5.0,7.0,40,0.00,,---,0.01,VWS V14.01,2013-02-04 19:28:00,
2013-02-04 14:29:00,54.0,30.2,29.58,WSW,252,5.0,7.0,40,0.00,,---,0.01,VWS V14.01,2013-02-04 19:29:00,
2013-02-04 14:30:00,54.0,29.6,29.58,WSW,252,1.0,7.0,39,0.00,,---,0.01,VWS V14.01,2013-02-04 19:30:00,
2013-02-04 14:31:00,54.0,30.2,29.58,WSW,253,4.0,5.0,40,0.00,,---,0.01,VWS V14.01,2013-02-04 19:31:00,
2013-02-04 14:32:00,54.1,30.3,29.58,West,261,5.0,6.0,40,0.00,,---,0.01,VWS V14.01,2013-02-04 19:32:00,
2013-02-04 14:33:00,54.1,29.7,29.58,WSW,252,5.0,6.0,39,0.00,,---,0.01,VWS V14.01,2013-02-04 19:33:00,
2013-02-04 14:34:00,54.2,29.8,29.58,West,260,5.0,6.0,39,0.00,,---,0.01,VWS V14.01,2013-02-04 19:34:00,
2013-02-04 14:35:00,54.2,29.8,29.58,WSW,240,6.0,7.0,39,0.00,,---,0.01,VWS V14.01,2013-02-04 19:35:00,
2013-02-04 14:36:00,54.2,29.8,29.58,WSW,248,5.0,7.0,39,0.00,,---,0.01,VWS V14.01,2013-02-04 19:36:00,
2013-02-04 14:37:00,54.2,29.8,29.57,WSW,248,5.0,7.0,39,0.00,,---,0.01,VWS V14.01,2013-02-04 19:37:00,
2013-02-04 14:38:00,54.2,29.8,29.57,WSW,250,4.0,7.0,39,0.00,,---,0.01,VWS V14.01,2013-02-04 19:38:00,
2013-02-04 14:39:00,54.2,29.8,29.57,WSW,245,2.0,7.0,39,0.00,,---,0.01,VWS V14.01,2013-02-04 19:39:00,
2013-02-04 14:40:00,54.3,30.5,29.57,WSW,257,2.0,7.0,40,0.00,,---,0.01,VWS V14.01,2013-02-04 19:40:00,
2013-02-04 14:41:00,54.3,30.5,29.57,WSW,257,1.0,7.0,40,0.00,,---,0.01,VWS V14.01,2013-02-04 19:41:00,
2013-02-04 14:42:00,54.4,30.0,29.57,West,265,6.0,7.0,39,0.00,,---,0.01,VWS V14.01,2013-02-04 19:42:00,
2013-02-04 14:43:00,54.4,30.6,29.57,SW,218,5.0,7.0,40,0.00,,---,0.01,VWS V14.01,2013-02-04 19:43:00,
2013-02-04 14:44:00,54.3,29.9,29.57,SW,222,6.0,7.0,39,0.00,,---,0.01,VWS V14.01,2013-02-04 19:44:00,
2013-02-04 14:45:00,54.2,29.8,29.57,SW,221,4.0,7.0,39,0.00,,---,0.01,VWS V14.01,2013-02-04 19:45:00,
2013-02-04 14:46:00,54.2,29.8,29.57,SW,221,4.0,7.0,39,0.00,,---,0.01,VWS V14.01,2013-02-04 19:46:00,
2013-02-04 14:47:00,54.2,29.8,29.57,WSW,258,4.0,7.0,39,0.00,,---,0.01,VWS V14.01,2013-02-04 19:47:00,
2013-02-04 14:48:00,54.2,30.4,29.57,WSW,241,7.0,7.0,40,0.00,,---,0.01,VWS V14.01,2013-02-04 19:48:00,
2013-02-04 14:49:00,54.2,29.8,29.57,WSW,254,6.0,7.0,39,0.00,,---,0.01,VWS V14.01,2013-02-04 19:49:00,
2013-02-04 14:50:00,54.3,29.9,29.57,WSW,248,4.0,7.0,39,0.00,,---,0.01,VWS V14.01,2013-02-04 19:50:00,
2013-02-04 14:51:00,54.2,29.8,29.57,West,263,5.0,7.0,39,0.00,,---,0.01,VWS V14.01,2013-02-04 19:51:00,
2013-02-04 14:52:00,54.3,30.5,29.57,SW,236,5.0,7.0,40,0.00,,---,0.01,VWS V14.01,2013-02-04 19:52:00,
2013-02-04 14:53:00,54.3,29.9,29.57,WSW,250,7.0,7.0,39,0.00,,---,0.01,VWS V14.01,2013-02-04 19:53:00,
2013-02-04 14:54:00,54.3,30.5,29.57,West,269,1.0,7.0,40,0.00,,---,0.01,VWS V14.01,2013-02-04 19:54:00,
2013-02-04 14:55:00,54.3,29.9,29.57,WSW,240,4.0,7.0,39,0.00,,---,0.01,VWS V14.01,2013-02-04 19:55:00,
2013-02-04 14:56:00,54.3,30.5,29.57,SW,234,4.0,7.0,40,0.00,,---,0.01,VWS V14.01,2013-02-04 19:56:00,
2013-02-04 14:57:00,54.3,30.5,29.57,WSW,238,5.0,7.0,40,0.00,,---,0.01,VWS V14.01,2013-02-04 19:57:00,
2013-02-04 14:58:00,54.3,30.5,29.57,West,259,3.0,7.0,40,0.00,,---,0.01,VWS V14.01,2013-02-04 19:58:00,
2013-02-04 14:59:00,54.4,31.2,29.57,WSW,242,5.0,7.0,41,0.00,,---,0.01,VWS V14.01,2013-02-04 19:59:00,
2013-02-04 15:00:00,54.5,30.7,29.57,SW,231,6.0,8.0,40,0.00,,---,0.01,VWS V14.01,2013-02-04 20:00:00,
2013-02-04 15:01:00,54.5,30.7,29.57,WSW,242,7.0,8.0,40,0.00,,---,0.01,VWS V14.01,2013-02-04 20:01:00,
2013-02-04 15:02:00,54.4,30.6,29.57,WSW,240,5.0,8.0,40,0.00,,---,0.01,VWS V14.01,2013-02-04 20:02:00,
2013-02-04 15:03:00,54.4,30.6,29.57,WSW,238,5.0,8.0,40,0.00,,---,0.01,VWS V14.01,2013-02-04 20:03:00,
2013-02-04 15:04:00,54.4,30.6,29.57,SW,234,4.0,8.0,40,0.00,,---,0.01,VWS V14.01,2013-02-04 20:04:00,
2013-02-04 15:05:00,54.3,30.5,29.57,SW,234,7.0,8.0,40,0.00,,---,0.01,VWS V14.01,2013-02-04 20:05:00,
2013-02-04 15:06:00,54.3,30.5,29.57,SSW,201,2.0,8.0,40,0.00,,---,0.01,VWS V14.01,2013-02-04 20:06:00,
2013-02-04 15:07:00,54.3,31.1,29.57,SSW,205,5.0,8.0,41,0.00,,---,0.01,VWS V14.01,2013-02-04 20:07:00,
2013-02-04 15:08:00,54.3,31.1,29.57,SSW,204,6.0,8.0,41,0.00,,---,0.01,VWS V14.01,2013-02-04 20:08:00,
2013-02-04 15:09:00,54.4,31.2,29.57,South,188,6.0,8.0,41,0.00,,---,0.01,VWS V14.01,2013-02-04 20:09:00,
2013-02-04 15:10:00,54.3,31.1,29.57,SSW,196,4.0,8.0,41,0.00,,---,0.01,VWS V14.01,2013-02-04 20:10:00,
2013-02-04 15:11:00,54.4,31.8,29.57,SSW,203,6.0,8.0,42,0.00,,---,0.01,VWS V14.01,2013-02-04 20:11:00,
2013-02-04 15:12:00,54.4,31.8,29.57,SW,223,7.0,8.0,42,0.00,,---,0.01,VWS V14.01,2013-02-04 20:12:00,
2013-02-04 15:13:00,54.4,31.8,29.57,WSW,237,8.0,8.0,42,0.00,,---,0.01,VWS V14.01,2013-02-04 20:13:00,
2013-02-04 15:14:00,54.4,31.8,29.57,SW,236,8.0,9.0,42,0.00,,---,0.01,VWS V14.01,2013-02-04 20:14:00,
2013-02-04 15:15:00,54.4,31.8,29.57,SW,232,7.0,9.0,42,0.00,,---,0.01,VWS V14.01,2013-02-04 20:15:00,
2013-02-04 15:16:00,54.4,31.8,29.57,SW,230,6.0,9.0,42,0.00,,---,0.01,VWS V14.01,2013-02-04 20:16:00,
2013-02-04 15:17:00,54.4,31.8,29.57,SW,217,8.0,10.0,42,0.00,,---,0.01,VWS V14.01,2013-02-04 20:17:00,
2013-02-04 15:18:00,54.3,31.7,29.57,SW,215,7.0,10.0,42,0.00,,---,0.01,VWS V14.01,2013-02-04 20:18:00,
2013-02-04 15:19:00,54.3,31.7,29.57,SSW,206,6.0,10.0,42,0.00,,---,0.01,VWS V14.01,2013-02-04 20:19:00,
2013-02-04 15:20:00,54.2,31.6,29.57,SSW,204,5.0,10.0,42,0.00,,---,0.01,VWS V14.01,2013-02-04 20:20:00,
2013-02-04 15:21:00,54.2,31.6,29.57,SSW,205,7.0,10.0,42,0.00,,---,0.01,VWS V14.01,2013-02-04 20:21:00,
2013-02-04 15:22:00,54.3,31.7,29.57,SSW,206,4.0,10.0,42,0.00,,---,0.01,VWS V14.01,2013-02-04 20:22:00,
2013-02-04 15:23:00,54.3,32.3,29.57,SSW,213,4.0,10.0,43,0.00,,---,0.01,VWS V14.01,2013-02-04 20:23:00,
2013-02-04 15:24:00,54.3,31.7,29.57,South,185,5.0,10.0,42,0.00,,---,0.01,VWS V14.01,2013-02-04 20:24:00,
2013-02-04 15:25:00,54.3,31.7,29.57,SSW,195,6.0,10.0,42,0.00,,---,0.01,VWS V14.01,2013-02-04 20:25:00,
2013-02-04 15:26:00,54.3,31.7,29.57,SSW,202,5.0,10.0,42,0.00,,---,0.01,VWS V14.01,2013-02-04 20:26:00,
2013-02-04 15:27:00,54.4,32.4,29.56,SSW,199,6.0,10.0,43,0.00,,---,0.01,VWS V14.01,2013-02-04 20:27:00,
2013-02-04 15:28:00,54.4,31.8,29.56,WSW,246,7.0,10.0,42,0.00,,---,0.01,VWS V14.01,2013-02-04 20:28:00,
2013-02-04 15:29:00,54.5,31.3,29.56,SW,229,5.0,10.0,41,0.00,,---,0.01,VWS V14.01,2013-02-04 20:29:00,
2013-02-04 15:30:00,54.5,31.3,29.56,SW,219,8.0,10.0,41,0.00,,---,0.01,VWS V14.01,2013-02-04 20:30:00,
2013-02-04 15:31:00,54.4,31.2,29.56,WSW,241,6.0,9.0,41,0.00,,---,0.01,VWS V14.01,2013-02-04 20:31:00,
2013-02-04 15:32:00,54.4,31.2,29.56,WSW,248,5.0,9.0,41,0.00,,---,0.01,VWS V14.01,2013-02-04 20:32:00,
2013-02-04 15:33:00,54.4,31.2,29.56,WSW,242,2.0,9.0,41,0.00,,---,0.01,VWS V14.01,2013-02-04 20:33:00,
2013-02-04 15:34:00,54.4,31.8,29.56,WSW,253,4.0,9.0,42,0.00,,---,0.01,VWS V14.01,2013-02-04 20:34:00,
2013-02-04 15:35:00,54.4,31.8,29.56,WSW,246,5.0,9.0,42,0.00,,---,0.01,VWS V14.01,2013-02-04 20:35:00,
2013-02-04 15:36:00,54.4,31.8,29.56,SW,229,5.0,9.0,42,0.00,,---,0.01,VWS V14.01,2013-02-04 20:36:00,
2013-02-04 15:37:00,54.4,31.8,29.56,SW,218,5.0,9.0,42,0.00,,---,0.01,VWS V14.01,2013-02-04 20:37:00,
2013-02-04 15:38:00,54.4,31.2,29.56,WSW,244,6.0,9.0,41,0.00,,---,0.01,VWS V14.01,2013-02-04 20:38:00,
2013-02-04 15:39:00,54.4,31.8,29.56,WSW,248,4.0,9.0,42,0.00,,---,0.01,VWS V14.01,2013-02-04 20:39:00,
2013-02-04 15:40:00,54.5,31.9,29.56,West,263,7.0,9.0,42,0.00,,---,0.01,VWS V14.01,2013-02-04 20:40:00,
2013-02-04 15:41:00,54.5,31.3,29.56,WSW,247,5.0,9.0,41,0.00,,---,0.01,VWS V14.01,2013-02-04 20:41:00,
2013-02-04 15:42:00,54.4,31.2,29.56,WSW,246,4.0,9.0,41,0.00,,---,0.01,VWS V14.01,2013-02-04 20:42:00,
2013-02-04 15:43:00,54.4,31.2,29.56,WSW,249,8.0,9.0,41,0.00,,---,0.01,VWS V14.01,2013-02-04 20:43:00,
2013-02-04 15:44:00,54.4,31.2,29.56,WSW,253,8.0,9.0,41,0.00,,---,0.01,VWS V14.01,2013-02-04 20:44:00,
2013-02-04 15:45:00,54.4,31.2,29.56,SW,221,4.0,9.0,41,0.00,,---,0.01,VWS V14.01,2013-02-04 20:45:00,
2013-02-04 15:46:00,54.4,31.2,29.56,WSW,240,6.0,9.0,41,0.00,,---,0.01,VWS V14.01,2013-02-04 20:46:00,
2013-02-04 15:47:00,54.3,31.1,29.56,SW,221,7.0,9.0,41,0.00,,---,0.01,VWS V14.01,2013-02-04 20:47:00,
2013-02-04 15:48:00,54.4,31.2,29.56,SW,224,6.0,9.0,41,0.00,,---,0.01,VWS V14.01,2013-02-04 20:48:00,
2013-02-04 15:49:00,54.4,30.6,29.56,SW,218,6.0,9.0,40,0.00,,---,0.01,VWS V14.01,2013-02-04 20:49:00,
2013-02-04 15:50:00,54.3,30.5,29.55,SSW,211,6.0,9.0,40,0.00,,---,0.01,VWS V14.01,2013-02-04 20:50:00,
2013-02-04 15:51:00,54.3,30.5,29.55,SSW,213,7.0,9.0,40,0.00,,---,0.01,VWS V14.01,2013-02-04 20:51:00,
2013-02-04 15:52:00,54.3,30.5,29.55,SW,226,7.0,9.0,40,0.00,,---,0.01,VWS V14.01,2013-02-04 20:52:00,
2013-02-04 15:53:00,54.3,30.5,29.55,SW,226,7.0,9.0,40,0.00,,---,0.01,VWS V14.01,2013-02-04 20:53:00,
2013-02-04 15:54:00,54.2,30.4,29.55,SW,217,7.0,9.0,40,0.00,,---,0.01,VWS V14.01,2013-02-04 20:54:00,
2013-02-04 15:55:00,54.3,30.5,29.55,SW,215,7.0,9.0,40,0.00,,---,0.01,VWS V14.01,2013-02-04 20:55:00,
2013-02-04 15:56:00,54.2,30.4,29.55,SSW,196,4.0,9.0,40,0.00,,---,0.01,VWS V14.01,2013-02-04 20:56:00,
2013-02-04 15:57:00,54.2,30.4,29.55,SW,228,7.0,9.0,40,0.00,,---,0.01,VWS V14.01,2013-02-04 20:57:00,
2013-02-04 15:58:00,54.2,30.4,29.55,WSW,239,5.0,9.0,40,0.00,,---,0.01,VWS V14.01,2013-02-04 20:58:00,
2013-02-04 15:59:00,54.2,30.4,29.55,WSW,238,4.0,9.0,40,0.00,,---,0.01,VWS V14.01,2013-02-04 20:59:00,
2013-02-04 16:00:00,54.2,30.4,29.55,SW,217,1.0,9.0,40,0.00,,---,0.01,VWS V14.01,2013-02-04 21:00:00,
2013-02-04 16:01:00,54.2,30.4,29.55,SSW,205,4.0,6.0,40,0.00,,---,0.01,VWS V14.01,2013-02-04 21:01:00,
2013-02-04 16:02:00,54.2,30.4,29.55,SSW,204,4.0,7.0,40,0.00,,---,0.01,VWS V14.01,2013-02-04 21:02:00,
2013-02-04 16:03:00,54.2,30.4,29.55,SW,236,7.0,8.0,40,0.00,,---,0.01,VWS V14.01,2013-02-04 21:03:00,
2013-02-04 16:04:00,54.2,30.4,29.55,SW,231,5.0,8.0,40,0.00,,---,0.01,VWS V14.01,2013-02-04 21:04:00,
2013-02-04 16:05:00,54.2,30.4,29.55,SW,229,5.0,8.0,40,0.00,,---,0.01,VWS V14.01,2013-02-04 21:05:00,
2013-02-04 16:06:00,54.2,30.4,29.55,SW,215,3.0,8.0,40,0.00,,---,0.01,VWS V14.01,2013-02-04 21:06:00,
2013-02-04 16:07:00,54.2,30.4,29.55,SW,229,4.0,8.0,40,0.00,,---,0.01,VWS V14.01,2013-02-04 21:07:00,
2013-02-04 16:08:00,54.2,30.4,29.55,SW,221,4.0,8.0,40,0.00,,---,0.01,VWS V14.01,2013-02-04 21:08:00,
2013-02-04 16:09:00,54.2,30.4,29.55,SW,226,4.0,8.0,40,0.00,,---,0.01,VWS V14.01,2013-02-04 21:09:00,
2013-02-04 16:10:00,54.2,31.0,29.55,SW,225,6.0,8.0,41,0.00,,---,0.01,VWS V14.01,2013-02-04 21:10:00,
2013-02-04 16:11:00,54.2,30.4,29.55,SW,221,7.0,8.0,40,0.00,,---,0.01,VWS V14.01,2013-02-04 21:11:00,
2013-02-04 16:12:00,54.2,30.4,29.55,SSW,198,5.0,9.0,40,0.00,,---,0.01,VWS V14.01,2013-02-04 21:12:00,
2013-02-04 16:13:00,54.2,29.8,29.55,WSW,239,6.0,9.0,39,0.00,,---,0.01,VWS V14.01,2013-02-04 21:13:00,
2013-02-04 16:14:00,54.2,29.8,29.55,SSW,211,5.0,9.0,39,0.00,,---,0.01,VWS V14.01,2013-02-04 21:14:00,
2013-02-04 16:15:00,54.2,30.4,29.55,SW,221,7.0,9.0,40,0.00,,---,0.01,VWS V14.01,2013-02-04 21:15:00,
2013-02-04 16:16:00,54.2,30.4,29.55,SSW,209,8.0,9.0,40,0.00,,---,0.01,VWS V14.01,2013-02-04 21:16:00,
2013-02-04 16:17:00,54.2,30.4,29.55,SW,230,6.0,9.0,40,0.00,,---,0.01,VWS V14.01,2013-02-04 21:17:00,
2013-02-04 16:18:00,54.2,29.8,29.55,SW,224,7.0,9.0,39,0.00,,---,0.01,VWS V14.01,2013-02-04 21:18:00,
2013-02-04 16:19:00,54.2,30.4,29.55,SW,225,7.0,9.0,40,0.00,,---,0.01,VWS V14.01,2013-02-04 21:19:00,
2013-02-04 16:20:00,54.2,30.4,29.55,SSW,206,6.0,9.0,40,0.00,,---,0.01,VWS V14.01,2013-02-04 21:20:00,
2013-02-04 16:21:00,54.2,29.8,29.55,SSW,195,5.0,9.0,39,0.00,,---,0.01,VWS V14.01,2013-02-04 21:21:00,
2013-02-04 16:22:00,54.2,29.8,29.55,SSW,194,5.0,9.0,39,0.00,,---,0.01,VWS V14.01,2013-02-04 21:22:00,
2013-02-04 16:23:00,54.2,29.8,29.55,SSW,192,6.0,9.0,39,0.00,,---,0.01,VWS V14.01,2013-02-04 21:23:00,
2013-02-04 16:24:00,54.2,30.4,29.55,SW,220,4.0,9.0,40,0.00,,---,0.01,VWS V14.01,2013-02-04 21:24:00,
2013-02-04 16:25:00,54.2,30.4,29.55,SW,221,6.0,9.0,40,0.00,,---,0.01,VWS V14.01,2013-02-04 21:25:00,
2013-02-04 16:26:00,54.2,29.8,29.55,SSW,206,5.0,9.0,39,0.00,,---,0.01,VWS V14.01,2013-02-04 21:26:00,
2013-02-04 16:27:00,54.1,29.7,29.55,SSW,207,6.0,9.0,39,0.00,,---,0.01,VWS V14.01,2013-02-04 21:27:00,
2013-02-04 16:28:00,54.1,29.7,29.55,SW,227,6.0,9.0,39,0.00,,---,0.01,VWS V14.01,2013-02-04 21:28:00,
2013-02-04 16:29:00,54.2,29.8,29.55,SW,218,6.0,9.0,39,0.00,,---,0.01,VWS V14.01,2013-02-04 21:29:00,
2013-02-04 16:30:00,54.1,29.7,29.55,SW,224,4.0,9.0,39,0.00,,---,0.01,VWS V14.01,2013-02-04 21:30:00,
2013-02-04 16:31:00,54.1,29.7,29.55,SSW,206,2.0,6.0,39,0.00,,---,0.01,VWS V14.01,2013-02-04 21:31:00,
2013-02-04 16:32:00,54.1,29.7,29.55,SW,234,4.0,6.0,39,0.00,,---,0.01,VWS V14.01,2013-02-04 21:32:00,
2013-02-04 16:33:00,54.1,29.7,29.55,SW,236,5.0,6.0,39,0.00,,---,0.01,VWS V14.01,2013-02-04 21:33:00,
2013-02-04 16:34:00,54.1,29.7,29.55,SW,236,5.0,6.0,39,0.00,,---,0.01,VWS V14.01,2013-02-04 21:34:00,
2013-02-04 16:35:00,54.1,29.7,29.55,WSW,254,6.0,6.0,39,0.00,,---,0.01,VWS V14.01,2013-02-04 21:35:00,
2013-02-04 16:36:00,54.1,30.3,29.55,SSW,207,2.0,6.0,40,0.00,,---,0.01,VWS V14.01,2013-02-04 21:36:00,
2013-02-04 16:37:00,54.1,30.3,29.55,WSW,246,5.0,6.0,40,0.00,,---,0.01,VWS V14.01,2013-02-04 21:37:00,
2013-02-04 16:38:00,54.1,29.7,29.56,SW,225,5.0,6.0,39,0.00,,---,0.01,VWS V14.01,2013-02-04 21:38:00,
2013-02-04 16:39:00,54.1,30.3,29.56,WSW,238,3.0,6.0,40,0.00,,---,0.01,VWS V14.01,2013-02-04 21:39:00,
2013-02-04 16:40:00,54.1,30.9,29.56,WSW,238,2.0,6.0,41,0.00,,---,0.01,VWS V14.01,2013-02-04 21:40:00,
2013-02-04 16:41:00,54.1,30.9,29.56,WSW,238,2.0,6.0,41,0.00,,---,0.01,VWS V14.01,2013-02-04 21:41:00,
2013-02-04 16:42:00,54.1,30.3,29.55,WSW,238,2.0,6.0,40,0.00,,---,0.01,VWS V14.01,2013-02-04 21:42:00,
2013-02-04 16:43:00,54.0,30.2,29.55,WSW,238,2.0,6.0,40,0.00,,---,0.01,VWS V14.01,2013-02-04 21:43:00,
2013-02-04 16:44:00,54.0,30.2,29.55,WSW,238,4.0,6.0,40,0.00,,---,0.01,VWS V14.01,2013-02-04 21:44:00,
2013-02-04 16:45:00,54.0,30.2,29.55,WSW,238,4.0,6.0,40,0.00,,---,0.01,VWS V14.01,2013-02-04 21:45:00,
2013-02-04 16:46:00,54.0,30.2,29.55,WSW,238,2.0,6.0,40,0.00,,---,0.01,VWS V14.01,2013-02-04 21:46:00,
2013-02-04 16:47:00,54.0,30.2,29.55,WSW,238,4.0,6.0,40,0.00,,---,0.01,VWS V14.01,2013-02-04 21:47:00,
2013-02-04 16:48:00,54.1,30.3,29.55,SW,234,5.0,6.0,40,0.00,,---,0.01,VWS V14.01,2013-02-04 21:48:00,
2013-02-04 16:49:00,54.1,30.3,29.55,WSW,237,1.0,6.0,40,0.00,,---,0.01,VWS V14.01,2013-02-04 21:49:00,
2013-02-04 16:50:00,54.1,30.3,29.55,WSW,237,2.0,6.0,40,0.00,,---,0.01,VWS V14.01,2013-02-04 21:50:00,
2013-02-04 16:51:00,54.1,30.3,29.55,WSW,237,2.0,6.0,40,0.00,,---,0.01,VWS V14.01,2013-02-04 21:51:00,
2013-02-04 16:52:00,54.1,30.3,29.55,WSW,237,0.0,6.0,40,0.00,,---,0.01,VWS V14.01,2013-02-04 21:52:00,
2013-02-04 16:53:00,54.0,30.2,29.55,SSW,206,5.0,6.0,40,0.00,,---,0.01,VWS V14.01,2013-02-04 21:53:00,
2013-02-04 16:54:00,54.0,30.2,29.55,SW,218,4.0,6.0,40,0.00,,---,0.01,VWS V14.01,2013-02-04 21:54:00,
2013-02-04 16:55:00,54.0,30.2,29.55,SW,218,2.0,6.0,40,0.00,,---,0.01,VWS V14.01,2013-02-04 21:55:00,
2013-02-04 16:56:00,54.0,30.2,29.55,SSW,211,4.0,6.0,40,0.00,,---,0.01,VWS V14.01,2013-02-04 21:56:00,
2013-02-04 16:57:00,54.0,30.2,29.55,SSW,211,5.0,6.0,40,0.00,,---,0.01,VWS V14.01,2013-02-04 21:57:00,
2013-02-04 16:58:00,53.9,30.1,29.55,SSW,212,4.0,6.0,40,0.00,,---,0.01,VWS V14.01,2013-02-04 21:58:00,
2013-02-04 16:59:00,53.9,30.1,29.55,SSW,207,3.0,6.0,40,0.00,,---,0.01,VWS V14.01,2013-02-04 21:59:00,
2013-02-04 17:00:00,53.9,30.1,29.55,SSW,207,4.0,6.0,40,0.00,,---,0.01,VWS V14.01,2013-02-04 22:00:00,
2013-02-04 17:01:00,53.9,30.1,29.55,SSW,207,2.0,4.0,40,0.00,,---,0.01,VWS V14.01,2013-02-04 22:01:00,
2013-02-04 17:02:00,53.8,30.1,29.55,SSW,209,1.0,4.0,40,0.00,,---,0.01,VWS V14.01,2013-02-04 22:02:00,
2013-02-04 17:03:00,53.8,30.1,29.55,SSW,202,2.0,4.0,40,0.00,,---,0.01,VWS V14.01,2013-02-04 22:03:00,
2013-02-04 17:04:00,53.7,30.0,29.55,SSW,206,5.0,6.0,40,0.00,,---,0.01,VWS V14.01,2013-02-04 22:04:00,
2013-02-04 17:05:00,53.7,30.0,29.55,SW,219,4.0,6.0,40,0.00,,---,0.01,VWS V14.01,2013-02-04 22:05:00,
2013-02-04 17:06:00,53.7,30.0,29.55,SSW,200,5.0,6.0,40,0.00,,---,0.01,VWS V14.01,2013-02-04 22:06:00,
2013-02-04 17:07:00,53.7,30.0,29.55,SW,223,5.0,6.0,40,0.00,,---,0.01,VWS V14.01,2013-02-04 22:07:00,
2013-02-04 17:08:00,53.7,30.0,29.55,SW,219,4.0,6.0,40,0.00,,---,0.01,VWS V14.01,2013-02-04 22:08:00,
2013-02-04 17:09:00,53.7,30.0,29.55,SW,217,6.0,6.0,40,0.00,,---,0.01,VWS V14.01,2013-02-04 22:09:00,
2013-02-04 17:10:00,53.7,30.0,29.55,SSW,203,6.0,6.0,40,0.00,,---,0.01,VWS V14.01,2013-02-04 22:10:00,
2013-02-04 17:11:00,53.7,30.0,29.55,SW,217,4.0,6.0,40,0.00,,---,0.01,VWS V14.01,2013-02-04 22:11:00,
2013-02-04 17:12:00,53.7,30.6,29.56,SW,236,2.0,6.0,41,0.00,,---,0.01,VWS V14.01,2013-02-04 22:12:00,
2013-02-04 17:13:00,53.6,30.5,29.56,SW,236,5.0,6.0,41,0.00,,---,0.01,VWS V14.01,2013-02-04 22:13:00,
2013-02-04 17:14:00,53.6,30.5,29.56,SW,229,5.0,6.0,41,0.00,,---,0.01,VWS V14.01,2013-02-04 22:14:00,
2013-02-04 17:15:00,53.6,30.5,29.56,SW,227,2.0,6.0,41,0.00,,---,0.01,VWS V14.01,2013-02-04 22:15:00,
2013-02-04 17:16:00,53.5,30.4,29.56,SW,229,2.0,6.0,41,0.00,,---,0.01,VWS V14.01,2013-02-04 22:16:00,
2013-02-04 17:17:00,53.5,30.4,29.56,SW,232,2.0,6.0,41,0.00,,---,0.01,VWS V14.01,2013-02-04 22:17:00,
2013-02-04 17:18:00,53.5,31.0,29.56,SW,232,2.0,6.0,42,0.00,,---,0.01,VWS V14.01,2013-02-04 22:18:00,
2013-02-04 17:19:00,53.5,30.4,29.56,SW,232,3.0,6.0,41,0.00,,---,0.01,VWS V14.01,2013-02-04 22:19:00,
2013-02-04 17:20:00,53.4,30.9,29.56,SW,232,4.0,6.0,42,0.00,,---,0.01,VWS V14.01,2013-02-04 22:20:00,
2013-02-04 17:21:00,53.4,30.9,29.56,SW,233,3.0,6.0,42,0.00,,---,0.01,VWS V14.01,2013-02-04 22:21:00,
2013-02-04 17:22:00,53.3,30.8,29.56,WSW,238,5.0,6.0,42,0.00,,---,0.01,VWS V14.01,2013-02-04 22:22:00,
2013-02-04 17:23:00,53.3,30.8,29.56,WSW,238,4.0,6.0,42,0.00,,---,0.01,VWS V14.01,2013-02-04 22:23:00,
2013-02-04 17:24:00,53.3,30.8,29.57,WSW,238,4.0,6.0,42,0.00,,---,0.01,VWS V14.01,2013-02-04 22:24:00,
2013-02-04 17:25:00,53.3,30.8,29.57,WSW,246,5.0,6.0,42,0.00,,---,0.01,VWS V14.01,2013-02-04 22:25:00,
2013-02-04 17:26:00,53.2,30.7,29.57,WSW,244,1.0,6.0,42,0.00,,---,0.01,VWS V14.01,2013-02-04 22:26:00,
2013-02-04 17:27:00,53.2,30.7,29.57,WSW,244,1.0,6.0,42,0.00,,---,0.01,VWS V14.01,2013-02-04 22:27:00,
2013-02-04 17:28:00,53.2,31.3,29.57,WSW,245,5.0,6.0,43,0.00,,---,0.01,VWS V14.01,2013-02-04 22:28:00,
2013-02-04 17:29:00,53.1,31.2,29.57,WSW,247,2.0,6.0,43,0.00,,---,0.01,VWS V14.01,2013-02-04 22:29:00,
2013-02-04 17:30:00,53.1,31.2,29.57,WSW,248,4.0,6.0,43,0.00,,---,0.01,VWS V14.01,2013-02-04 22:30:00,
2013-02-04 17:31:00,53.0,31.1,29.57,WSW,256,2.0,5.0,43,0.00,,---,0.01,VWS V14.01,2013-02-04 22:31:00,
2013-02-04 17:32:00,53.0,31.7,29.57,West,259,2.0,5.0,44,0.00,,---,0.01,VWS V14.01,2013-02-04 22:32:00,
2013-02-04 17:33:00,52.9,31.6,29.57,WSW,258,2.0,5.0,44,0.00,,---,0.01,VWS V14.01,2013-02-04 22:33:00,
2013-02-04 17:34:00,52.9,31.6,29.57,WSW,258,1.0,5.0,44,0.00,,---,0.01,VWS V14.01,2013-02-04 22:34:00,
2013-02-04 17:35:00,52.8,31.5,29.57,WSW,258,2.0,5.0,44,0.00,,---,0.01,VWS V14.01,2013-02-04 22:35:00,
2013-02-04 17:36:00,52.8,31.5,29.57,WSW,258,0.0,5.0,44,0.00,,---,0.01,VWS V14.01,2013-02-04 22:36:00,
2013-02-04 17:37:00,52.8,32.1,29.57,WSW,258,2.0,5.0,45,0.00,,---,0.01,VWS V14.01,2013-02-04 22:37:00,
2013-02-04 17:38:00,52.7,32.0,29.57,WSW,258,0.0,5.0,45,0.00,,---,0.01,VWS V14.01,2013-02-04 22:38:00,
2013-02-04 17:39:00,52.7,31.4,29.57,WSW,258,0.0,5.0,44,0.00,,---,0.01,VWS V14.01,2013-02-04 22:39:00,
2013-02-04 17:40:00,52.7,31.4,29.56,WSW,258,0.0,5.0,44,0.00,,---,0.01,VWS V14.01,2013-02-04 22:40:00,
2013-02-04 17:41:00,52.7,32.0,29.56,WSW,258,0.0,5.0,45,0.00,,---,0.01,VWS V14.01,2013-02-04 22:41:00,
2013-02-04 17:42:00,52.6,31.9,29.56,WSW,258,0.0,5.0,45,0.00,,---,0.01,VWS V14.01,2013-02-04 22:42:00,
2013-02-04 17:43:00,52.5,31.8,29.56,WSW,258,0.0,5.0,45,0.00,,---,0.01,VWS V14.01,2013-02-04 22:43:00,
2013-02-04 17:44:00,52.5,31.8,29.56,WSW,258,1.0,5.0,45,0.00,,---,0.01,VWS V14.01,2013-02-04 22:44:00,
2013-02-04 17:45:00,52.4,31.7,29.56,WSW,258,1.0,5.0,45,0.00,,---,0.01,VWS V14.01,2013-02-04 22:45:00,
2013-02-04 17:46:00,52.4,31.7,29.57,WSW,258,1.0,5.0,45,0.00,,---,0.01,VWS V14.01,2013-02-04 22:46:00,
2013-02-04 17:47:00,52.4,31.7,29.57,WSW,258,1.0,5.0,45,0.00,,---,0.01,VWS V14.01,2013-02-04 22:47:00,
2013-02-04 17:48:00,52.4,31.7,29.57,WSW,258,1.0,5.0,45,0.00,,---,0.01,VWS V14.01,2013-02-04 22:48:00,
2013-02-04 17:49:00,52.4,31.7,29.57,WSW,258,2.0,5.0,45,0.00,,---,0.01,VWS V14.01,2013-02-04 22:49:00,
2013-02-04 17:50:00,52.4,31.7,29.57,WSW,258,1.0,5.0,45,0.00,,---,0.01,VWS V14.01,2013-02-04 22:50:00,
2013-02-04 17:51:00,52.4,31.7,29.57,WSW,258,1.0,5.0,45,0.00,,---,0.01,VWS V14.01,2013-02-04 22:51:00,
2013-02-04 17:52:00,52.4,31.7,29.57,WSW,258,1.0,5.0,45,0.00,,---,0.01,VWS V14.01,2013-02-04 22:52:00,
2013-02-04 17:53:00,52.4,31.7,29.57,WSW,258,0.0,5.0,45,0.00,,---,0.01,VWS V14.01,2013-02-04 22:53:00,
2013-02-04 17:54:00,52.4,32.2,29.57,WSW,258,1.0,5.0,46,0.00,,---,0.01,VWS V14.01,2013-02-04 22:54:00,
2013-02-04 17:55:00,52.4,32.2,29.57,WSW,258,0.0,5.0,46,0.00,,---,0.01,VWS V14.01,2013-02-04 22:55:00,
2013-02-04 17:56:00,52.3,32.2,29.57,WSW,258,0.0,5.0,46,0.00,,---,0.01,VWS V14.01,2013-02-04 22:56:00,
2013-02-04 17:57:00,52.3,32.2,29.57,WSW,258,0.0,5.0,46,0.00,,---,0.01,VWS V14.01,2013-02-04 22:57:00,
2013-02-04 17:58:00,52.1,32.0,29.57,WSW,258,0.0,5.0,46,0.00,,---,0.01,VWS V14.01,2013-02-04 22:58:00,
2013-02-04 17:59:00,52.1,32.0,29.57,WSW,258,0.0,5.0,46,0.00,,---,0.01,VWS V14.01,2013-02-04 22:59:00,
2013-02-04 18:00:00,51.9,31.8,29.57,WSW,258,0.0,5.0,46,0.00,,---,0.01,VWS V14.01,2013-02-04 23:00:00,
2013-02-04 18:01:00,51.7,32.7,29.57,WSW,258,0.0,0.0,48,0.00,,---,0.01,VWS V14.01,2013-02-04 23:01:00,
2013-02-04 18:02:00,51.5,32.5,29.57,WSW,258,0.0,0.0,48,0.00,,---,0.01,VWS V14.01,2013-02-04 23:02:00,
2013-02-04 18:03:00,51.4,32.4,29.57,WSW,258,0.0,0.0,48,0.00,,---,0.01,VWS V14.01,2013-02-04 23:03:00,
2013-02-04 18:04:00,51.3,32.8,29.57,WSW,258,0.0,0.0,49,0.00,,---,0.01,VWS V14.01,2013-02-04 23:04:00,
2013-02-04 18:05:00,51.1,33.1,29.57,WSW,258,0.0,0.0,50,0.00,,---,0.01,VWS V14.01,2013-02-04 23:05:00,
2013-02-04 18:06:00,51.0,33.0,29.57,WSW,258,0.0,0.0,50,0.00,,---,0.01,VWS V14.01,2013-02-04 23:06:00,
2013-02-04 18:07:00,50.9,32.9,29.57,WSW,258,0.0,0.0,50,0.00,,---,0.01,VWS V14.01,2013-02-04 23:07:00,
2013-02-04 18:08:00,50.8,33.3,29.57,WSW,258,0.0,0.0,51,0.00,,---,0.01,VWS V14.01,2013-02-04 23:08:00,
2013-02-04 18:09:00,50.7,33.2,29.57,WSW,258,0.0,0.0,51,0.00,,---,0.01,VWS V14.01,2013-02-04 23:09:00,
2013-02-04 18:10:00,50.6,32.7,29.57,WSW,258,0.0,0.0,50,0.00,,---,0.01,VWS V14.01,2013-02-04 23:10:00,
2013-02-04 18:11:00,50.6,33.2,29.57,WSW,258,0.0,0.0,51,0.00,,---,0.01,VWS V14.01,2013-02-04 23:11:00,
2013-02-04 18:12:00,50.6,32.7,29.57,WSW,258,0.0,0.0,50,0.00,,---,0.01,VWS V14.01,2013-02-04 23:12:00,
2013-02-04 18:13:00,50.6,32.7,29.57,WSW,258,1.0,1.0,50,0.00,,---,0.01,VWS V14.01,2013-02-04 23:13:00,
2013-02-04 18:14:00,50.6,32.2,29.57,WSW,258,1.0,1.0,49,0.00,,---,0.01,VWS V14.01,2013-02-04 23:14:00,
2013-02-04 18:15:00,50.5,32.1,29.57,WSW,258,1.0,1.0,49,0.00,,---,0.01,VWS V14.01,2013-02-04 23:15:00,
2013-02-04 18:16:00,50.5,32.1,29.57,WSW,258,1.0,1.0,49,0.00,,---,0.01,VWS V14.01,2013-02-04 23:16:00,
2013-02-04 18:17:00,50.6,31.6,29.57,WSW,258,0.0,1.0,48,0.00,,---,0.01,VWS V14.01,2013-02-04 23:17:00,
2013-02-04 18:18:00,50.6,31.6,29.57,WSW,258,0.0,1.0,48,0.00,,---,0.01,VWS V14.01,2013-02-04 23:18:00,
2013-02-04 18:19:00,50.7,31.7,29.57,WSW,258,0.0,1.0,48,0.00,,---,0.01,VWS V14.01,2013-02-04 23:19:00,
2013-02-04 18:20:00,50.7,32.2,29.57,WSW,258,0.0,1.0,49,0.00,,---,0.01,VWS V14.01,2013-02-04 23:20:00,
2013-02-04 18:21:00,50.6,31.6,29.57,WSW,258,0.0,1.0,48,0.00,,---,0.01,VWS V14.01,2013-02-04 23:21:00,
2013-02-04 18:22:00,50.6,32.2,29.57,WSW,258,0.0,1.0,49,0.00,,---,0.01,VWS V14.01,2013-02-04 23:22:00,
2013-02-04 18:23:00,50.5,32.6,29.57,WSW,258,0.0,1.0,50,0.00,,---,0.01,VWS V14.01,2013-02-04 23:23:00,
2013-02-04 18:24:00,50.3,32.4,29.57,WSW,258,0.0,1.0,50,0.00,,---,0.01,VWS V14.01,2013-02-04 23:24:00,
2013-02-04 18:25:00,50.1,32.7,29.57,WSW,258,0.0,1.0,51,0.00,,---,0.01,VWS V14.01,2013-02-04 23:25:00,
2013-02-04 18:26:00,50.0,32.6,29.57,WSW,258,0.0,1.0,51,0.00,,---,0.01,VWS V14.01,2013-02-04 23:26:00,
2013-02-04 18:27:00,49.9,32.5,29.57,WSW,258,0.0,1.0,51,0.00,,---,0.01,VWS V14.01,2013-02-04 23:27:00,
2013-02-04 18:28:00,49.7,32.3,29.57,WSW,258,0.0,1.0,51,0.00,,---,0.01,VWS V14.01,2013-02-04 23:28:00,
2013-02-04 18:29:00,49.6,32.7,29.57,WSW,258,0.0,1.0,52,0.00,,---,0.01,VWS V14.01,2013-02-04 23:29:00,
2013-02-04 18:30:00,49.5,33.1,29.57,WSW,258,0.0,1.0,53,0.00,,---,0.01,VWS V14.01,2013-02-04 23:30:00,
2013-02-04 18:31:00,49.3,32.9,29.57,WSW,258,0.0,0.0,53,0.00,,---,0.01,VWS V14.01,2013-02-04 23:31:00,
2013-02-04 18:32:00,49.2,33.3,29.57,WSW,258,0.0,0.0,54,0.00,,---,0.01,VWS V14.01,2013-02-04 23:32:00,
2013-02-04 18:33:00,49.1,33.2,29.57,WSW,258,0.0,0.0,54,0.00,,---,0.01,VWS V14.01,2013-02-04 23:33:00,
2013-02-04 18:34:00,49.0,33.1,29.57,WSW,258,0.0,1.0,54,0.00,,---,0.01,VWS V14.01,2013-02-04 23:34:00,
2013-02-04 18:35:00,48.9,32.1,29.57,WSW,258,0.0,1.0,52,0.00,,---,0.01,VWS V14.01,2013-02-04 23:35:00,
2013-02-04 18:36:00,48.9,32.1,29.57,WSW,258,0.0,1.0,52,0.00,,---,0.01,VWS V14.01,2013-02-04 23:36:00,
2013-02-04 18:37:00,48.9,32.1,29.57,WSW,258,0.0,1.0,52,0.00,,---,0.01,VWS V14.01,2013-02-04 23:37:00,
2013-02-04 18:38:00,49.0,31.7,29.57,WSW,258,0.0,1.0,51,0.00,,---,0.01,VWS V14.01,2013-02-04 23:38:00,
2013-02-04 18:39:00,49.1,31.8,29.57,WSW,258,0.0,1.0,51,0.00,,---,0.01,VWS V14.01,2013-02-04 23:39:00,
2013-02-04 18:40:00,49.2,31.9,29.57,WSW,258,0.0,1.0,51,0.00,,---,0.01,VWS V14.01,2013-02-04 23:40:00,
2013-02-04 18:41:00,49.3,32.0,29.57,WSW,258,1.0,1.0,51,0.00,,---,0.01,VWS V14.01,2013-02-04 23:41:00,
2013-02-04 18:42:00,49.4,32.0,29.57,WSW,258,0.0,1.0,51,0.00,,---,0.01,VWS V14.01,2013-02-04 23:42:00,
2013-02-04 18:43:00,49.4,32.0,29.57,WSW,258,0.0,1.0,51,0.00,,---,0.01,VWS V14.01,2013-02-04 23:43:00,
2013-02-04 18:44:00,49.4,32.0,29.57,WSW,258,1.0,1.0,51,0.00,,---,0.01,VWS V14.01,2013-02-04 23:44:00,
2013-02-04 18:45:00,49.3,32.0,29.57,WSW,258,1.0,1.0,51,0.00,,---,0.01,VWS V14.01,2013-02-04 23:45:00,
2013-02-04 18:46:00,49.3,32.0,29.57,WSW,258,0.0,1.0,51,0.00,,---,0.01,VWS V14.01,2013-02-04 23:46:00,
2013-02-04 18:47:00,49.3,32.0,29.57,WSW,258,0.0,1.0,51,0.00,,---,0.01,VWS V14.01,2013-02-04 23:47:00,
2013-02-04 18:48:00,49.3,32.0,29.57,WSW,258,0.0,1.0,51,0.00,,---,0.01,VWS V14.01,2013-02-04 23:48:00,
2013-02-04 18:49:00,49.3,32.0,29.57,WSW,258,0.0,1.0,51,0.00,,---,0.01,VWS V14.01,2013-02-04 23:49:00,
2013-02-04 18:50:00,49.4,31.6,29.56,WSW,258,0.0,1.0,50,0.00,,---,0.01,VWS V14.01,2013-02-04 23:50:00,
2013-02-04 18:51:00,49.4,31.6,29.57,WSW,258,0.0,1.0,50,0.00,,---,0.01,VWS V14.01,2013-02-04 23:51:00,
2013-02-04 18:52:00,49.5,31.6,29.56,WSW,258,0.0,1.0,50,0.00,,---,0.01,VWS V14.01,2013-02-04 23:52:00,
2013-02-04 18:53:00,49.5,32.1,29.56,WSW,258,0.0,1.0,51,0.00,,---,0.01,VWS V14.01,2013-02-04 23:53:00,
2013-02-04 18:54:00,49.4,31.6,29.56,WSW,258,0.0,1.0,50,0.00,,---,0.01,VWS V14.01,2013-02-04 23:54:00,
2013-02-04 18:55:00,49.4,31.1,29.56,WSW,258,0.0,1.0,49,0.00,,---,0.01,VWS V14.01,2013-02-04 23:55:00,
2013-02-04 18:56:00,49.4,31.1,29.56,WSW,258,0.0,1.0,49,0.00,,---,0.01,VWS V14.01,2013-02-04 23:56:00,
2013-02-04 18:57:00,49.4,31.6,29.56,WSW,258,0.0,1.0,50,0.00,,---,0.01,VWS V14.01,2013-02-04 23:57:00,
2013-02-04 18:58:00,49.2,31.9,29.56,WSW,258,0.0,1.0,51,0.00,,---,0.01,VWS V14.01,2013-02-04 23:58:00,
2013-02-04 18:59:00,49.2,31.4,29.56,WSW,258,0.0,1.0,50,0.00,,---,0.01,VWS V14.01,2013-02-04 23:59:00,
2013-02-04 19:00:00,49.0,31.7,29.56,WSW,258,0.0,1.0,51,0.00,,---,0.01,VWS V14.01,2013-02-05 00:00:00,
2013-02-04 19:01:00,49.0,31.2,29.56,WSW,258,0.0,0.0,50,0.00,,---,0.01,VWS V14.01,2013-02-05 00:01:00,
2013-02-04 19:02:00,49.0,31.2,29.56,WSW,258,0.0,1.0,50,0.00,,---,0.01,VWS V14.01,2013-02-05 00:02:00,
2013-02-04 19:03:00,49.0,31.2,29.56,WSW,258,1.0,1.0,50,0.00,,---,0.01,VWS V14.01,2013-02-05 00:03:00,
2013-02-04 19:04:00,49.1,30.8,29.56,WSW,258,0.0,1.0,49,0.00,,---,0.01,VWS V14.01,2013-02-05 00:04:00,
2013-02-04 19:05:00,49.1,30.3,29.56,WSW,258,0.0,1.0,48,0.00,,---,0.01,VWS V14.01,2013-02-05 00:05:00,
2013-02-04 19:06:00,49.2,30.9,29.56,WSW,258,0.0,1.0,49,0.00,,---,0.01,VWS V14.01,2013-02-05 00:06:00,
2013-02-04 19:07:00,49.2,30.9,29.56,WSW,258,0.0,1.0,49,0.00,,---,0.01,VWS V14.01,2013-02-05 00:07:00,
2013-02-04 19:08:00,49.1,30.8,29.56,WSW,258,0.0,1.0,49,0.00,,---,0.01,VWS V14.01,2013-02-05 00:08:00,
2013-02-04 19:09:00,49.2,30.4,29.56,WSW,258,0.0,1.0,48,0.00,,---,0.01,VWS V14.01,2013-02-05 00:09:00,
2013-02-04 19:10:00,49.2,30.9,29.56,WSW,258,0.0,1.0,49,0.00,,---,0.01,VWS V14.01,2013-02-05 00:10:00,
2013-02-04 19:11:00,49.2,30.9,29.56,WSW,258,0.0,1.0,49,0.00,,---,0.01,VWS V14.01,2013-02-05 00:11:00,
2013-02-04 19:12:00,49.2,30.9,29.56,WSW,258,0.0,1.0,49,0.00,,---,0.01,VWS V14.01,2013-02-05 00:12:00,
2013-02-04 19:13:00,49.2,30.4,29.56,WSW,258,1.0,1.0,48,0.00,,---,0.01,VWS V14.01,2013-02-05 00:13:00,
2013-02-04 19:14:00,49.2,30.4,29.56,WSW,258,0.0,1.0,48,0.00,,---,0.01,VWS V14.01,2013-02-05 00:14:00,
2013-02-04 19:15:00,49.2,30.4,29.56,WSW,258,0.0,1.0,48,0.00,,---,0.01,VWS V14.01,2013-02-05 00:15:00,
2013-02-04 19:16:00,49.2,30.4,29.56,WSW,258,1.0,1.0,48,0.00,,---,0.01,VWS V14.01,2013-02-05 00:16:00,
2013-02-04 19:17:00,49.2,30.4,29.56,WSW,258,0.0,1.0,48,0.00,,---,0.01,VWS V14.01,2013-02-05 00:17:00,
2013-02-04 19:18:00,49.2,30.4,29.56,WSW,258,0.0,1.0,48,0.00,,---,0.01,VWS V14.01,2013-02-05 00:18:00,
2013-02-04 19:19:00,49.1,30.8,29.56,WSW,258,0.0,1.0,49,0.00,,---,0.01,VWS V14.01,2013-02-05 00:19:00,
2013-02-04 19:20:00,49.0,30.7,29.56,WSW,258,0.0,1.0,49,0.00,,---,0.01,VWS V14.01,2013-02-05 00:20:00,
2013-02-04 19:21:00,48.8,31.0,29.56,WSW,258,0.0,1.0,50,0.00,,---,0.01,VWS V14.01,2013-02-05 00:21:00,
2013-02-04 19:22:00,48.6,30.8,29.56,WSW,258,0.0,1.0,50,0.00,,---,0.01,VWS V14.01,2013-02-05 00:22:00,
2013-02-04 19:23:00,48.6,30.8,29.56,WSW,258,0.0,1.0,50,0.00,,---,0.01,VWS V14.01,2013-02-05 00:23:00,
2013-02-04 19:24:00,48.5,30.7,29.56,WSW,258,1.0,1.0,50,0.00,,---,0.01,VWS V14.01,2013-02-05 00:24:00,
2013-02-04 19:25:00,48.5,30.2,29.57,WSW,258,0.0,1.0,49,0.00,,---,0.01,VWS V14.01,2013-02-05 00:25:00,
2013-02-04 19:26:00,48.5,30.7,29.57,WSW,258,0.0,1.0,50,0.00,,---,0.01,VWS V14.01,2013-02-05 00:26:00,
2013-02-04 19:27:00,48.3,31.0,29.57,WSW,258,0.0,1.0,51,0.00,,---,0.01,VWS V14.01,2013-02-05 00:27:00,
2013-02-04 19:28:00,48.2,30.5,29.57,WSW,258,0.0,1.0,50,0.00,,---,0.01,VWS V14.01,2013-02-05 00:28:00,
2013-02-04 19:29:00,48.2,30.9,29.57,WSW,258,0.0,1.0,51,0.00,,---,0.01,VWS V14.01,2013-02-05 00:29:00,
2013-02-04 19:30:00,48.2,30.9,29.57,WSW,258,0.0,1.0,51,0.00,,---,0.01,VWS V14.01,2013-02-05 00:30:00,
2013-02-04 19:31:00,48.0,31.7,29.57,WSW,258,0.0,1.0,53,0.00,,---,0.01,VWS V14.01,2013-02-05 00:31:00,
2013-02-04 19:32:00,47.8,31.5,29.57,WSW,258,0.0,1.0,53,0.00,,---,0.01,VWS V14.01,2013-02-05 00:32:00,
2013-02-04 19:33:00,47.6,31.3,29.57,WSW,258,0.0,1.0,53,0.00,,---,0.01,VWS V14.01,2013-02-05 00:33:00,
2013-02-04 19:34:00,47.5,31.7,29.57,WSW,258,0.0,1.0,54,0.00,,---,0.01,VWS V14.01,2013-02-05 00:34:00,
2013-02-04 19:35:00,47.4,31.6,29.57,WSW,258,0.0,1.0,54,0.00,,---,0.01,VWS V14.01,2013-02-05 00:35:00,
2013-02-04 19:36:00,47.3,32.0,29.57,WSW,258,0.0,1.0,55,0.00,,---,0.01,VWS V14.01,2013-02-05 00:36:00,
2013-02-04 19:37:00,47.2,31.9,29.57,WSW,258,0.0,1.0,55,0.00,,---,0.01,VWS V14.01,2013-02-05 00:37:00,
2013-02-04 19:38:00,47.0,32.1,29.57,WSW,258,0.0,1.0,56,0.00,,---,0.01,VWS V14.01,2013-02-05 00:38:00,
2013-02-04 19:39:00,46.9,32.0,29.57,WSW,258,0.0,1.0,56,0.00,,---,0.01,VWS V14.01,2013-02-05 00:39:00,
2013-02-04 19:40:00,46.7,32.3,29.57,WSW,258,0.0,1.0,57,0.00,,---,0.01,VWS V14.01,2013-02-05 00:40:00,
2013-02-04 19:41:00,46.6,32.2,29.57,WSW,258,0.0,1.0,57,0.00,,---,0.01,VWS V14.01,2013-02-05 00:41:00,
2013-02-04 19:42:00,46.5,32.5,29.57,WSW,258,0.0,1.0,58,0.00,,---,0.01,VWS V14.01,2013-02-05 00:42:00,
2013-02-04 19:43:00,46.4,32.4,29.57,WSW,258,0.0,1.0,58,0.00,,---,0.01,VWS V14.01,2013-02-05 00:43:00,
2013-02-04 19:44:00,46.3,32.3,29.57,WSW,258,0.0,1.0,58,0.00,,---,0.01,VWS V14.01,2013-02-05 00:44:00,
2013-02-04 19:45:00,46.3,32.3,29.57,WSW,258,0.0,1.0,58,0.00,,---,0.01,VWS V14.01,2013-02-05 00:45:00,
2013-02-04 19:46:00,46.2,32.7,29.57,WSW,258,0.0,1.0,59,0.00,,---,0.01,VWS V14.01,2013-02-05 00:46:00,
2013-02-04 19:47:00,46.2,32.7,29.57,WSW,258,0.0,1.0,59,0.00,,---,0.01,VWS V14.01,2013-02-05 00:47:00,
2013-02-04 19:48:00,46.2,32.7,29.57,WSW,258,0.0,1.0,59,0.00,,---,0.01,VWS V14.01,2013-02-05 00:48:00,
2013-02-04 19:49:00,46.1,32.6,29.57,WSW,258,0.0,1.0,59,0.00,,---,0.01,VWS V14.01,2013-02-05 00:49:00,
2013-02-04 19:50:00,46.1,32.6,29.57,WSW,258,0.0,1.0,59,0.00,,---,0.01,VWS V14.01,2013-02-05 00:50:00,
2013-02-04 19:51:00,46.1,32.6,29.57,WSW,258,0.0,1.0,59,0.00,,---,0.01,VWS V14.01,2013-02-05 00:51:00,
2013-02-04 19:52:00,46.1,32.6,29.57,WSW,258,0.0,1.0,59,0.00,,---,0.01,VWS V14.01,2013-02-05 00:52:00,
2013-02-04 19:53:00,46.1,32.6,29.58,WSW,258,0.0,1.0,59,0.00,,---,0.01,VWS V14.01,2013-02-05 00:53:00,
2013-02-04 19:54:00,46.2,32.7,29.58,WSW,258,0.0,1.0,59,0.00,,---,0.01,VWS V14.01,2013-02-05 00:54:00,
2013-02-04 19:55:00,46.2,32.7,29.58,WSW,258,0.0,1.0,59,0.00,,---,0.01,VWS V14.01,2013-02-05 00:55:00,
2013-02-04 19:56:00,46.1,32.6,29.58,WSW,258,0.0,1.0,59,0.00,,---,0.01,VWS V14.01,2013-02-05 00:56:00,
2013-02-04 19:57:00,46.0,32.5,29.58,WSW,258,0.0,1.0,59,0.00,,---,0.01,VWS V14.01,2013-02-05 00:57:00,
2013-02-04 19:58:00,45.9,32.8,29.58,WSW,258,0.0,1.0,60,0.00,,---,0.01,VWS V14.01,2013-02-05 00:58:00,
2013-02-04 19:59:00,45.8,32.7,29.58,WSW,258,0.0,1.0,60,0.00,,---,0.01,VWS V14.01,2013-02-05 00:59:00,
2013-02-04 20:00:00,45.7,32.6,29.58,WSW,258,0.0,1.0,60,0.00,,---,0.01,VWS V14.01,2013-02-05 01:00:00,
2013-02-04 20:01:00,45.6,32.9,29.58,WSW,258,0.0,0.0,61,0.00,,---,0.01,VWS V14.01,2013-02-05 01:01:00,
2013-02-04 20:02:00,45.6,32.9,29.58,WSW,258,0.0,0.0,61,0.00,,---,0.01,VWS V14.01,2013-02-05 01:02:00,
2013-02-04 20:03:00,45.6,32.9,29.58,WSW,258,0.0,1.0,61,0.00,,---,0.01,VWS V14.01,2013-02-05 01:03:00,
2013-02-04 20:04:00,45.5,32.8,29.58,WSW,258,1.0,1.0,61,0.00,,---,0.01,VWS V14.01,2013-02-05 01:04:00,
2013-02-04 20:05:00,45.4,32.8,29.58,WSW,258,0.0,1.0,61,0.00,,---,0.01,VWS V14.01,2013-02-05 01:05:00,
2013-02-04 20:06:00,45.4,33.2,29.58,WSW,258,0.0,1.0,62,0.00,,---,0.01,VWS V14.01,2013-02-05 01:06:00,
2013-02-04 20:07:00,45.2,33.4,29.58,WSW,258,0.0,1.0,63,0.00,,---,0.01,VWS V14.01,2013-02-05 01:07:00,
2013-02-04 20:08:00,45.1,33.3,29.58,WSW,258,0.0,1.0,63,0.00,,---,0.01,VWS V14.01,2013-02-05 01:08:00,
2013-02-04 20:09:00,45.1,33.3,29.58,WSW,258,0.0,1.0,63,0.00,,---,0.01,VWS V14.01,2013-02-05 01:09:00,
2013-02-04 20:10:00,45.1,33.3,29.58,WSW,258,0.0,1.0,63,0.00,,---,0.01,VWS V14.01,2013-02-05 01:10:00,
2013-02-04 20:11:00,45.1,33.3,29.58,WSW,258,0.0,1.0,63,0.00,,---,0.01,VWS V14.01,2013-02-05 01:11:00,
2013-02-04 20:12:00,45.1,33.3,29.58,WSW,258,1.0,1.0,63,0.00,,---,0.01,VWS V14.01,2013-02-05 01:12:00,
2013-02-04 20:13:00,45.1,32.9,29.58,WSW,258,0.0,1.0,62,0.00,,---,0.01,VWS V14.01,2013-02-05 01:13:00,
2013-02-04 20:14:00,45.1,32.9,29.58,WSW,258,0.0,1.0,62,0.00,,---,0.01,VWS V14.01,2013-02-05 01:14:00,
2013-02-04 20:15:00,45.1,32.9,29.58,WSW,258,0.0,1.0,62,0.00,,---,0.01,VWS V14.01,2013-02-05 01:15:00,
2013-02-04 20:16:00,45.1,33.3,29.58,WSW,258,0.0,1.0,63,0.00,,---,0.01,VWS V14.01,2013-02-05 01:16:00,
2013-02-04 20:17:00,45.0,33.2,29.58,WSW,258,0.0,1.0,63,0.00,,---,0.01,VWS V14.01,2013-02-05 01:17:00,
2013-02-04 20:18:00,45.0,33.2,29.58,WSW,258,0.0,1.0,63,0.00,,---,0.01,VWS V14.01,2013-02-05 01:18:00,
2013-02-04 20:19:00,45.0,33.6,29.58,WSW,258,0.0,1.0,64,0.00,,---,0.01,VWS V14.01,2013-02-05 01:19:00,
2013-02-04 20:20:00,45.1,33.3,29.58,WSW,258,0.0,1.0,63,0.00,,---,0.01,VWS V14.01,2013-02-05 01:20:00,
2013-02-04 20:21:00,45.1,33.3,29.58,WSW,258,0.0,1.0,63,0.00,,---,0.01,VWS V14.01,2013-02-05 01:21:00,
2013-02-04 20:22:00,45.1,33.3,29.58,WSW,258,0.0,1.0,63,0.00,,---,0.01,VWS V14.01,2013-02-05 01:22:00,
2013-02-04 20:23:00,45.1,33.3,29.58,WSW,258,0.0,1.0,63,0.00,,---,0.01,VWS V14.01,2013-02-05 01:23:00,
2013-02-04 20:24:00,45.1,32.9,29.58,WSW,258,1.0,1.0,62,0.00,,---,0.01,VWS V14.01,2013-02-05 01:24:00,
2013-02-04 20:25:00,45.1,32.5,29.57,WSW,258,0.0,1.0,61,0.00,,---,0.01,VWS V14.01,2013-02-05 01:25:00,
2013-02-04 20:26:00,45.2,32.6,29.57,WSW,258,1.0,1.0,61,0.00,,---,0.01,VWS V14.01,2013-02-05 01:26:00,
2013-02-04 20:27:00,45.3,32.7,29.57,WSW,258,0.0,1.0,61,0.00,,---,0.01,VWS V14.01,2013-02-05 01:27:00,
2013-02-04 20:28:00,45.4,32.3,29.57,WSW,258,0.0,1.0,60,0.00,,---,0.01,VWS V14.01,2013-02-05 01:28:00,
2013-02-04 20:29:00,45.5,32.4,29.57,WSW,258,0.0,1.0,60,0.00,,---,0.01,VWS V14.01,2013-02-05 01:29:00,
2013-02-04 20:30:00,45.6,32.5,29.57,WSW,258,0.0,1.0,60,0.00,,---,0.01,VWS V14.01,2013-02-05 01:30:00,
2013-02-04 20:31:00,45.6,32.5,29.57,WSW,258,0.0,0.0,60,0.00,,---,0.01,VWS V14.01,2013-02-05 01:31:00,
2013-02-04 20:32:00,45.7,33.0,29.58,WSW,258,0.0,0.0,61,0.00,,---,0.01,VWS V14.01,2013-02-05 01:32:00,
2013-02-04 20:33:00,45.7,33.0,29.57,WSW,258,0.0,0.0,61,0.00,,---,0.01,VWS V14.01,2013-02-05 01:33:00,
2013-02-04 20:34:00,45.7,33.0,29.58,WSW,258,0.0,0.0,61,0.00,,---,0.01,VWS V14.01,2013-02-05 01:34:00,
2013-02-04 20:35:00,45.7,33.0,29.58,WSW,258,0.0,0.0,61,0.00,,---,0.01,VWS V14.01,2013-02-05 01:35:00,
2013-02-04 20:36:00,45.6,33.3,29.58,WSW,258,0.0,0.0,62,0.00,,---,0.01,VWS V14.01,2013-02-05 01:36:00,
2013-02-04 20:37:00,45.6,33.3,29.58,WSW,258,0.0,0.0,62,0.00,,---,0.01,VWS V14.01,2013-02-05 01:37:00,
2013-02-04 20:38:00,45.6,32.9,29.58,WSW,258,0.0,0.0,61,0.00,,---,0.01,VWS V14.01,2013-02-05 01:38:00,
2013-02-04 20:39:00,45.5,33.2,29.58,WSW,258,0.0,0.0,62,0.00,,---,0.01,VWS V14.01,2013-02-05 01:39:00,
2013-02-04 20:40:00,45.4,33.2,29.58,WSW,258,0.0,0.0,62,0.00,,---,0.01,VWS V14.01,2013-02-05 01:40:00,
2013-02-04 20:41:00,45.3,33.5,29.58,WSW,258,0.0,0.0,63,0.00,,---,0.01,VWS V14.01,2013-02-05 01:41:00,
2013-02-04 20:42:00,45.2,33.4,29.58,WSW,258,0.0,0.0,63,0.00,,---,0.01,VWS V14.01,2013-02-05 01:42:00,
2013-02-04 20:43:00,45.2,33.4,29.58,WSW,258,0.0,0.0,63,0.00,,---,0.01,VWS V14.01,2013-02-05 01:43:00,
2013-02-04 20:44:00,45.2,33.8,29.58,WSW,258,0.0,0.0,64,0.00,,---,0.01,VWS V14.01,2013-02-05 01:44:00,
2013-02-04 20:45:00,45.2,33.4,29.58,WSW,258,0.0,0.0,63,0.00,,---,0.01,VWS V14.01,2013-02-05 01:45:00,
2013-02-04 20:46:00,45.1,33.7,29.58,WSW,258,0.0,0.0,64,0.00,,---,0.01,VWS V14.01,2013-02-05 01:46:00,
2013-02-04 20:47:00,45.1,33.3,29.58,WSW,258,0.0,0.0,63,0.00,,---,0.01,VWS V14.01,2013-02-05 01:47:00,
2013-02-04 20:48:00,45.0,33.6,29.58,WSW,258,0.0,0.0,64,0.00,,---,0.01,VWS V14.01,2013-02-05 01:48:00,
2013-02-04 20:49:00,45.0,33.6,29.58,WSW,258,0.0,0.0,64,0.00,,---,0.01,VWS V14.01,2013-02-05 01:49:00,
2013-02-04 20:50:00,44.9,33.9,29.58,WSW,258,0.0,0.0,65,0.00,,---,0.01,VWS V14.01,2013-02-05 01:50:00,
2013-02-04 20:51:00,44.9,33.5,29.58,WSW,258,0.0,0.0,64,0.00,,---,0.01,VWS V14.01,2013-02-05 01:51:00,
2013-02-04 20:52:00,44.9,33.9,29.58,WSW,258,0.0,0.0,65,0.00,,---,0.01,VWS V14.01,2013-02-05 01:52:00,
2013-02-04 20:53:00,44.9,33.9,29.58,WSW,258,0.0,0.0,65,0.00,,---,0.01,VWS V14.01,2013-02-05 01:53:00,
2013-02-04 20:54:00,44.9,33.5,29.58,WSW,258,0.0,0.0,64,0.00,,---,0.01,VWS V14.01,2013-02-05 01:54:00,
2013-02-04 20:55:00,44.9,33.1,29.58,WSW,258,0.0,0.0,63,0.00,,---,0.01,VWS V14.01,2013-02-05 01:55:00,
2013-02-04 20:56:00,45.0,33.2,29.58,WSW,258,0.0,0.0,63,0.00,,---,0.01,VWS V14.01,2013-02-05 01:56:00,
2013-02-04 20:57:00,45.1,33.3,29.58,WSW,258,0.0,0.0,63,0.00,,---,0.01,VWS V14.01,2013-02-05 01:57:00,
2013-02-04 20:58:00,45.0,33.6,29.59,WSW,258,0.0,0.0,64,0.00,,---,0.01,VWS V14.01,2013-02-05 01:58:00,
2013-02-04 20:59:00,45.0,33.6,29.59,WSW,258,0.0,0.0,64,0.00,,---,0.01,VWS V14.01,2013-02-05 01:59:00,
2013-02-04 21:00:00,45.0,33.2,29.59,WSW,258,0.0,0.0,63,0.00,,---,0.01,VWS V14.01,2013-02-05 02:00:00,
2013-02-04 21:01:00,45.1,33.3,29.59,WSW,258,0.0,0.0,63,0.00,,---,0.01,VWS V14.01,2013-02-05 02:01:00,
2013-02-04 21:02:00,45.1,33.3,29.59,WSW,258,0.0,0.0,63,0.00,,---,0.01,VWS V14.01,2013-02-05 02:02:00,
2013-02-04 21:03:00,45.2,33.4,29.59,WSW,258,0.0,0.0,63,0.00,,---,0.01,VWS V14.01,2013-02-05 02:03:00,
2013-02-04 21:04:00,45.1,34.0,29.58,WSW,258,0.0,0.0,65,0.00,,---,0.01,VWS V14.01,2013-02-05 02:04:00,
2013-02-04 21:05:00,45.1,34.0,29.58,WSW,258,0.0,0.0,65,0.00,,---,0.01,VWS V14.01,2013-02-05 02:05:00,
2013-02-04 21:06:00,44.8,33.8,29.58,WSW,258,0.0,0.0,65,0.00,,---,0.01,VWS V14.01,2013-02-05 02:06:00,
2013-02-04 21:07:00,44.6,34.0,29.58,WSW,258,0.0,0.0,66,0.00,,---,0.01,VWS V14.01,2013-02-05 02:07:00,
2013-02-04 21:08:00,44.5,33.9,29.58,WSW,258,0.0,0.0,66,0.00,,---,0.01,VWS V14.01,2013-02-05 02:08:00,
2013-02-04 21:09:00,44.4,33.8,29.58,WSW,258,0.0,0.0,66,0.00,,---,0.01,VWS V14.01,2013-02-05 02:09:00,
2013-02-04 21:10:00,44.3,33.7,29.58,WSW,258,0.0,0.0,66,0.00,,---,0.01,VWS V14.01,2013-02-05 02:10:00,
2013-02-04 21:11:00,44.2,34.0,29.58,WSW,258,0.0,0.0,67,0.00,,---,0.01,VWS V14.01,2013-02-05 02:11:00,
2013-02-04 21:12:00,44.2,32.8,29.58,WSW,258,0.0,1.0,64,0.00,,---,0.01,VWS V14.01,2013-02-05 02:12:00,
2013-02-04 21:13:00,44.2,32.4,29.58,WSW,258,1.0,1.0,63,0.00,,---,0.01,VWS V14.01,2013-02-05 02:13:00,
2013-02-04 21:14:00,44.2,32.4,29.58,WSW,258,1.0,1.0,63,0.00,,---,0.01,VWS V14.01,2013-02-05 02:14:00,
2013-02-04 21:15:00,44.3,32.1,29.58,WSW,258,1.0,1.0,62,0.00,,---,0.01,VWS V14.01,2013-02-05 02:15:00,
2013-02-04 21:16:00,44.5,31.9,29.58,WSW,258,2.0,2.0,61,0.00,,---,0.01,VWS V14.01,2013-02-05 02:16:00,
2013-02-04 21:17:00,44.5,31.9,29.58,WSW,258,1.0,2.0,61,0.00,,---,0.01,VWS V14.01,2013-02-05 02:17:00,
2013-02-04 21:18:00,44.7,31.7,29.58,WSW,258,0.0,2.0,60,0.00,,---,0.01,VWS V14.01,2013-02-05 02:18:00,
2013-02-04 21:19:00,44.8,31.8,29.58,WSW,258,0.0,2.0,60,0.00,,---,0.01,VWS V14.01,2013-02-05 02:19:00,
2013-02-04 21:20:00,44.8,33.0,29.58,WSW,258,0.0,2.0,63,0.00,,---,0.01,VWS V14.01,2013-02-05 02:20:00,
2013-02-04 21:21:00,44.8,33.0,29.58,WSW,258,0.0,2.0,63,0.00,,---,0.01,VWS V14.01,2013-02-05 02:21:00,
2013-02-04 21:22:00,44.8,33.0,29.58,WSW,258,0.0,2.0,63,0.00,,---,0.01,VWS V14.01,2013-02-05 02:22:00,
2013-02-04 21:23:00,44.7,33.3,29.58,WSW,258,0.0,2.0,64,0.00,,---,0.01,VWS V14.01,2013-02-05 02:23:00,
2013-02-04 21:24:00,44.7,32.9,29.58,WSW,258,0.0,2.0,63,0.00,,---,0.01,VWS V14.01,2013-02-05 02:24:00,
2013-02-04 21:25:00,44.6,33.2,29.58,WSW,258,0.0,2.0,64,0.00,,---,0.01,VWS V14.01,2013-02-05 02:25:00,
2013-02-04 21:26:00,44.6,33.2,29.58,WSW,258,0.0,2.0,64,0.00,,---,0.01,VWS V14.01,2013-02-05 02:26:00,
2013-02-04 21:27:00,44.6,33.6,29.58,WSW,258,0.0,2.0,65,0.00,,---,0.01,VWS V14.01,2013-02-05 02:27:00,
2013-02-04 21:28:00,44.5,33.5,29.58,WSW,258,0.0,2.0,65,0.00,,---,0.01,VWS V14.01,2013-02-05 02:28:00,
2013-02-04 21:29:00,44.5,33.5,29.58,WSW,258,0.0,2.0,65,0.00,,---,0.01,VWS V14.01,2013-02-05 02:29:00,
2013-02-04 21:30:00,44.5,33.5,29.58,WSW,258,0.0,2.0,65,0.00,,---,0.01,VWS V14.01,2013-02-05 02:30:00,
2013-02-04 21:31:00,44.6,34.0,29.58,WSW,258,0.0,0.0,66,0.00,,---,0.01,VWS V14.01,2013-02-05 02:31:00,
2013-02-04 21:32:00,44.5,33.9,29.58,WSW,258,0.0,0.0,66,0.00,,---,0.01,VWS V14.01,2013-02-05 02:32:00,
2013-02-04 21:33:00,44.5,33.5,29.58,WSW,258,0.0,0.0,65,0.00,,---,0.01,VWS V14.01,2013-02-05 02:33:00,
2013-02-04 21:34:00,44.5,33.9,29.58,WSW,258,0.0,0.0,66,0.00,,---,0.01,VWS V14.01,2013-02-05 02:34:00,
2013-02-04 21:35:00,44.4,33.8,29.58,WSW,258,0.0,0.0,66,0.00,,---,0.01,VWS V14.01,2013-02-05 02:35:00,
2013-02-04 21:36:00,44.3,33.7,29.58,WSW,258,0.0,0.0,66,0.00,,---,0.01,VWS V14.01,2013-02-05 02:36:00,
2013-02-04 21:37:00,44.3,33.7,29.58,WSW,258,0.0,0.0,66,0.00,,---,0.01,VWS V14.01,2013-02-05 02:37:00,
2013-02-04 21:38:00,44.2,33.6,29.58,WSW,258,0.0,0.0,66,0.00,,---,0.01,VWS V14.01,2013-02-05 02:38:00,
2013-02-04 21:39:00,44.2,33.6,29.57,WSW,258,0.0,0.0,66,0.00,,---,0.01,VWS V14.01,2013-02-05 02:39:00,
2013-02-04 21:40:00,44.2,34.0,29.57,WSW,258,0.0,0.0,67,0.00,,---,0.01,VWS V14.01,2013-02-05 02:40:00,
2013-02-04 21:41:00,44.2,34.0,29.57,WSW,258,0.0,0.0,67,0.00,,---,0.01,VWS V14.01,2013-02-05 02:41:00,
2013-02-04 21:42:00,44.1,33.9,29.57,WSW,258,0.0,0.0,67,0.00,,---,0.01,VWS V14.01,2013-02-05 02:42:00,
2013-02-04 21:43:00,43.9,33.7,29.57,WSW,258,0.0,0.0,67,0.00,,---,0.01,VWS V14.01,2013-02-05 02:43:00,
2013-02-04 21:44:00,43.7,33.1,29.57,WSW,258,0.0,0.0,66,0.00,,---,0.01,VWS V14.01,2013-02-05 02:44:00,
2013-02-04 21:45:00,43.6,33.0,29.57,WSW,258,0.0,0.0,66,0.00,,---,0.01,VWS V14.01,2013-02-05 02:45:00,
2013-02-04 21:46:00,43.5,32.9,29.57,WSW,258,0.0,0.0,66,0.00,,---,0.01,VWS V14.01,2013-02-05 02:46:00,
2013-02-04 21:47:00,43.4,33.2,29.57,WSW,258,0.0,0.0,67,0.00,,---,0.01,VWS V14.01,2013-02-05 02:47:00,
2013-02-04 21:48:00,43.4,33.2,29.57,WSW,258,0.0,0.0,67,0.00,,---,0.01,VWS V14.01,2013-02-05 02:48:00,
2013-02-04 21:49:00,43.4,32.4,29.57,WSW,258,0.0,0.0,65,0.00,,---,0.01,VWS V14.01,2013-02-05 02:49:00,
2013-02-04 21:50:00,43.5,32.2,29.57,WSW,258,0.0,0.0,64,0.00,,---,0.01,VWS V14.01,2013-02-05 02:50:00,
2013-02-04 21:51:00,43.6,32.2,29.57,WSW,258,0.0,0.0,64,0.00,,---,0.01,VWS V14.01,2013-02-05 02:51:00,
2013-02-04 21:52:00,43.7,32.7,29.57,WSW,258,0.0,0.0,65,0.00,,---,0.01,VWS V14.01,2013-02-05 02:52:00,
2013-02-04 21:53:00,43.7,32.7,29.57,WSW,258,0.0,0.0,65,0.00,,---,0.01,VWS V14.01,2013-02-05 02:53:00,
2013-02-04 21:54:00,43.6,33.0,29.57,WSW,258,0.0,0.0,66,0.00,,---,0.01,VWS V14.01,2013-02-05 02:54:00,
2013-02-04 21:55:00,43.5,33.7,29.57,WSW,258,0.0,0.0,68,0.00,,---,0.01,VWS V14.01,2013-02-05 02:55:00,
2013-02-04 21:56:00,43.4,33.6,29.57,WSW,258,0.0,0.0,68,0.00,,---,0.01,VWS V14.01,2013-02-05 02:56:00,
2013-02-04 21:57:00,43.2,33.4,29.57,WSW,258,0.0,0.0,68,0.00,,---,0.01,VWS V14.01,2013-02-05 02:57:00,
2013-02-04 21:58:00,43.1,33.3,29.57,WSW,258,0.0,0.0,68,0.00,,---,0.01,VWS V14.01,2013-02-05 02:58:00,
2013-02-04 21:59:00,43.1,33.3,29.57,WSW,258,0.0,0.0,68,0.00,,---,0.01,VWS V14.01,2013-02-05 02:59:00,
2013-02-04 22:00:00,43.1,33.6,29.57,WSW,258,0.0,0.0,69,0.00,,---,0.01,VWS V14.01,2013-02-05 03:00:00,
2013-02-04 22:01:00,43.1,33.3,29.57,WSW,258,0.0,1.0,68,0.00,,---,0.01,VWS V14.01,2013-02-05 03:01:00,
2013-02-04 22:02:00,43.2,33.4,29.57,WSW,258,1.0,2.0,68,0.00,,---,0.01,VWS V14.01,2013-02-05 03:02:00,
2013-02-04 22:03:00,43.2,33.0,29.57,WSW,258,1.0,2.0,67,0.00,,---,0.01,VWS V14.01,2013-02-05 03:03:00,
2013-02-04 22:04:00,43.4,32.8,29.57,WSW,258,0.0,2.0,66,0.00,,---,0.01,VWS V14.01,2013-02-05 03:04:00,
2013-02-04 22:05:00,43.5,32.5,29.57,WSW,258,0.0,2.0,65,0.00,,---,0.01,VWS V14.01,2013-02-05 03:05:00,
2013-02-04 22:06:00,43.5,33.3,29.57,WSW,258,0.0,2.0,67,0.00,,---,0.01,VWS V14.01,2013-02-05 03:06:00,
2013-02-04 22:07:00,43.5,33.3,29.57,WSW,258,0.0,2.0,67,0.00,,---,0.01,VWS V14.01,2013-02-05 03:07:00,
2013-02-04 22:08:00,43.4,33.6,29.57,WSW,258,0.0,2.0,68,0.00,,---,0.01,VWS V14.01,2013-02-05 03:08:00,
2013-02-04 22:09:00,43.2,33.4,29.57,WSW,258,0.0,2.0,68,0.00,,---,0.01,VWS V14.01,2013-02-05 03:09:00,
2013-02-04 22:10:00,43.0,33.2,29.57,WSW,258,0.0,2.0,68,0.00,,---,0.01,VWS V14.01,2013-02-05 03:10:00,
2013-02-04 22:11:00,42.9,33.4,29.57,WSW,258,0.0,2.0,69,0.00,,---,0.01,VWS V14.01,2013-02-05 03:11:00,
2013-02-04 22:12:00,42.7,33.2,29.57,WSW,258,0.0,2.0,69,0.00,,---,0.01,VWS V14.01,2013-02-05 03:12:00,
2013-02-04 22:13:00,42.7,33.2,29.57,WSW,258,0.0,2.0,69,0.00,,---,0.01,VWS V14.01,2013-02-05 03:13:00,
2013-02-04 22:14:00,42.6,33.5,29.57,WSW,258,0.0,2.0,70,0.00,,---,0.01,VWS V14.01,2013-02-05 03:14:00,
2013-02-04 22:15:00,42.5,33.4,29.57,WSW,258,0.0,2.0,70,0.00,,---,0.01,VWS V14.01,2013-02-05 03:15:00,
2013-02-04 22:16:00,42.5,33.4,29.57,WSW,258,0.0,2.0,70,0.00,,---,0.01,VWS V14.01,2013-02-05 03:16:00,
2013-02-04 22:17:00,42.5,33.1,29.57,WSW,258,0.0,2.0,69,0.00,,---,0.01,VWS V14.01,2013-02-05 03:17:00,
2013-02-04 22:18:00,42.6,32.4,29.57,WSW,258,0.0,2.0,67,0.00,,---,0.01,VWS V14.01,2013-02-05 03:18:00,
2013-02-04 22:19:00,42.6,32.8,29.56,WSW,258,0.0,2.0,68,0.00,,---,0.01,VWS V14.01,2013-02-05 03:19:00,
2013-02-04 22:20:00,42.6,32.8,29.56,WSW,258,0.0,2.0,68,0.00,,---,0.01,VWS V14.01,2013-02-05 03:20:00,
2013-02-04 22:21:00,42.6,33.2,29.56,WSW,258,0.0,2.0,69,0.00,,---,0.01,VWS V14.01,2013-02-05 03:21:00,
2013-02-04 22:22:00,42.6,32.8,29.56,WSW,258,0.0,2.0,68,0.00,,---,0.01,VWS V14.01,2013-02-05 03:22:00,
2013-02-04 22:23:00,42.6,32.4,29.56,WSW,258,0.0,2.0,67,0.00,,---,0.01,VWS V14.01,2013-02-05 03:23:00,
2013-02-04 22:24:00,42.6,32.4,29.56,WSW,258,0.0,2.0,67,0.00,,---,0.01,VWS V14.01,2013-02-05 03:24:00,
2013-02-04 22:25:00,42.6,32.4,29.56,WSW,258,0.0,2.0,67,0.00,,---,0.01,VWS V14.01,2013-02-05 03:25:00,
2013-02-04 22:26:00,42.7,32.5,29.56,WSW,258,0.0,2.0,67,0.00,,---,0.01,VWS V14.01,2013-02-05 03:26:00,
2013-02-04 22:27:00,42.6,32.0,29.56,WSW,258,0.0,2.0,66,0.00,,---,0.01,VWS V14.01,2013-02-05 03:27:00,
2013-02-04 22:28:00,42.6,32.4,29.56,WSW,258,0.0,2.0,67,0.00,,---,0.01,VWS V14.01,2013-02-05 03:28:00,
2013-02-04 22:29:00,42.5,32.3,29.56,WSW,258,0.0,2.0,67,0.00,,---,0.01,VWS V14.01,2013-02-05 03:29:00,
2013-02-04 22:30:00,42.4,33.0,29.56,WSW,258,0.0,2.0,69,0.00,,---,0.01,VWS V14.01,2013-02-05 03:30:00,
2013-02-04 22:31:00,42.4,32.6,29.56,WSW,258,0.0,0.0,68,0.00,,---,0.01,VWS V14.01,2013-02-05 03:31:00,
2013-02-04 22:32:00,42.3,32.5,29.56,WSW,258,0.0,0.0,68,0.00,,---,0.01,VWS V14.01,2013-02-05 03:32:00,
2013-02-04 22:33:00,42.3,32.9,29.56,WSW,258,0.0,0.0,69,0.00,,---,0.01,VWS V14.01,2013-02-05 03:33:00,
2013-02-04 22:34:00,42.2,32.8,29.56,WSW,258,0.0,0.0,69,0.00,,---,0.01,VWS V14.01,2013-02-05 03:34:00,
2013-02-04 22:35:00,42.1,32.7,29.56,WSW,258,0.0,0.0,69,0.00,,---,0.01,VWS V14.01,2013-02-05 03:35:00,
2013-02-04 22:36:00,42.2,32.8,29.56,WSW,258,0.0,0.0,69,0.00,,---,0.01,VWS V14.01,2013-02-05 03:36:00,
2013-02-04 22:37:00,42.2,32.8,29.56,WSW,258,0.0,0.0,69,0.00,,---,0.01,VWS V14.01,2013-02-05 03:37:00,
2013-02-04 22:38:00,42.2,33.1,29.56,WSW,258,0.0,0.0,70,0.00,,---,0.01,VWS V14.01,2013-02-05 03:38:00,
2013-02-04 22:39:00,42.2,33.1,29.55,WSW,258,0.0,0.0,70,0.00,,---,0.01,VWS V14.01,2013-02-05 03:39:00,
2013-02-04 22:40:00,42.3,32.9,29.55,WSW,258,0.0,0.0,69,0.00,,---,0.01,VWS V14.01,2013-02-05 03:40:00,
2013-02-04 22:41:00,42.3,32.9,29.55,WSW,258,0.0,0.0,69,0.00,,---,0.01,VWS V14.01,2013-02-05 03:41:00,
2013-02-04 22:42:00,42.3,32.9,29.55,WSW,258,0.0,0.0,69,0.00,,---,0.01,VWS V14.01,2013-02-05 03:42:00,
2013-02-04 22:43:00,42.4,33.0,29.55,WSW,258,0.0,0.0,69,0.00,,---,0.01,VWS V14.01,2013-02-05 03:43:00,
2013-02-04 22:44:00,42.4,33.0,29.55,WSW,258,0.0,0.0,69,0.00,,---,0.01,VWS V14.01,2013-02-05 03:44:00,
2013-02-04 22:45:00,42.4,32.6,29.55,WSW,258,0.0,0.0,68,0.00,,---,0.01,VWS V14.01,2013-02-05 03:45:00,
2013-02-04 22:46:00,42.4,32.6,29.55,WSW,258,0.0,0.0,68,0.00,,---,0.01,VWS V14.01,2013-02-05 03:46:00,
2013-02-04 22:47:00,42.4,32.2,29.55,WSW,258,0.0,0.0,67,0.00,,---,0.01,VWS V14.01,2013-02-05 03:47:00,
2013-02-04 22:48:00,42.5,32.7,29.55,WSW,258,0.0,0.0,68,0.00,,---,0.01,VWS V14.01,2013-02-05 03:48:00,
2013-02-04 22:49:00,42.4,32.6,29.55,WSW,258,0.0,0.0,68,0.00,,---,0.01,VWS V14.01,2013-02-05 03:49:00,
2013-02-04 22:50:00,42.4,32.6,29.55,WSW,258,0.0,0.0,68,0.00,,---,0.01,VWS V14.01,2013-02-05 03:50:00,
2013-02-04 22:51:00,42.5,33.1,29.55,WSW,258,0.0,0.0,69,0.00,,---,0.01,VWS V14.01,2013-02-05 03:51:00,
2013-02-04 22:52:00,42.5,33.1,29.55,WSW,258,0.0,0.0,69,0.00,,---,0.01,VWS V14.01,2013-02-05 03:52:00,
2013-02-04 22:53:00,42.5,33.4,29.56,WSW,258,0.0,0.0,70,0.00,,---,0.01,VWS V14.01,2013-02-05 03:53:00,
2013-02-04 22:54:00,42.5,33.4,29.56,WSW,258,1.0,1.0,70,0.00,,---,0.01,VWS V14.01,2013-02-05 03:54:00,
2013-02-04 22:55:00,42.6,33.5,29.56,WSW,258,1.0,1.0,70,0.00,,---,0.01,VWS V14.01,2013-02-05 03:55:00,
2013-02-04 22:56:00,42.5,33.4,29.56,WSW,258,1.0,1.0,70,0.00,,---,0.01,VWS V14.01,2013-02-05 03:56:00,
2013-02-04 22:57:00,42.5,33.4,29.56,WSW,258,1.0,1.0,70,0.00,,---,0.01,VWS V14.01,2013-02-05 03:57:00,
2013-02-04 22:58:00,42.5,33.4,29.56,WSW,258,1.0,1.0,70,0.00,,---,0.01,VWS V14.01,2013-02-05 03:58:00,
2013-02-04 22:59:00,42.4,33.3,29.56,WSW,258,0.0,1.0,70,0.00,,---,0.01,VWS V14.01,2013-02-05 03:59:00,
2013-02-04 23:00:00,42.3,33.2,29.56,WSW,258,0.0,1.0,70,0.00,,---,0.01,VWS V14.01,2013-02-05 04:00:00,
2013-02-04 23:01:00,42.2,33.5,29.56,WSW,258,0.0,0.0,71,0.00,,---,0.01,VWS V14.01,2013-02-05 04:01:00,
2013-02-04 23:02:00,42.1,33.4,29.56,WSW,258,0.0,0.0,71,0.00,,---,0.01,VWS V14.01,2013-02-05 04:02:00,
2013-02-04 23:03:00,42.1,33.4,29.56,WSW,258,0.0,0.0,71,0.00,,---,0.01,VWS V14.01,2013-02-05 04:03:00,
2013-02-04 23:04:00,42.1,33.4,29.56,WSW,258,0.0,0.0,71,0.00,,---,0.01,VWS V14.01,2013-02-05 04:04:00,
2013-02-04 23:05:00,42.1,33.4,29.56,WSW,258,0.0,0.0,71,0.00,,---,0.01,VWS V14.01,2013-02-05 04:05:00,
2013-02-04 23:06:00,42.1,33.4,29.56,WSW,258,0.0,0.0,71,0.00,,---,0.01,VWS V14.01,2013-02-05 04:06:00,
2013-02-04 23:07:00,42.1,33.4,29.55,WSW,258,0.0,0.0,71,0.00,,---,0.01,VWS V14.01,2013-02-05 04:07:00,
2013-02-04 23:08:00,42.2,33.8,29.56,WSW,258,0.0,0.0,72,0.00,,---,0.01,VWS V14.01,2013-02-05 04:08:00,
2013-02-04 23:09:00,42.1,33.7,29.56,WSW,258,0.0,0.0,72,0.00,,---,0.01,VWS V14.01,2013-02-05 04:09:00,
2013-02-04 23:10:00,42.1,33.7,29.56,WSW,258,0.0,0.0,72,0.00,,---,0.01,VWS V14.01,2013-02-05 04:10:00,
2013-02-04 23:11:00,42.1,33.7,29.56,WSW,258,0.0,0.0,72,0.00,,---,0.01,VWS V14.01,2013-02-05 04:11:00,
2013-02-04 23:12:00,42.1,33.7,29.55,WSW,258,0.0,0.0,72,0.00,,---,0.01,VWS V14.01,2013-02-05 04:12:00,
2013-02-04 23:13:00,42.2,33.8,29.55,WSW,258,0.0,0.0,72,0.00,,---,0.01,VWS V14.01,2013-02-05 04:13:00,
2013-02-04 23:14:00,42.2,33.8,29.55,WSW,258,0.0,1.0,72,0.00,,---,0.01,VWS V14.01,2013-02-05 04:14:00,
2013-02-04 23:15:00,42.3,33.9,29.55,WSW,258,0.0,1.0,72,0.00,,---,0.01,VWS V14.01,2013-02-05 04:15:00,
2013-02-04 23:16:00,42.4,34.0,29.55,WSW,258,0.0,1.0,72,0.00,,---,0.01,VWS V14.01,2013-02-05 04:16:00,
2013-02-04 23:17:00,42.5,34.1,29.55,WSW,258,1.0,1.0,72,0.00,,---,0.01,VWS V14.01,2013-02-05 04:17:00,
2013-02-04 23:18:00,42.6,33.9,29.55,WSW,258,0.0,1.0,71,0.00,,---,0.01,VWS V14.01,2013-02-05 04:18:00,
2013-02-04 23:19:00,42.7,34.0,29.55,WSW,258,0.0,1.0,71,0.00,,---,0.01,VWS V14.01,2013-02-05 04:19:00,
2013-02-04 23:20:00,42.8,34.1,29.55,WSW,258,1.0,1.0,71,0.00,,---,0.01,VWS V14.01,2013-02-05 04:20:00,
2013-02-04 23:21:00,43.1,34.0,29.55,WSW,258,0.0,1.0,70,0.00,,---,0.01,VWS V14.01,2013-02-05 04:21:00,
2013-02-04 23:22:00,43.4,33.6,29.55,WSW,258,0.0,1.0,68,0.00,,---,0.01,VWS V14.01,2013-02-05 04:22:00,
2013-02-04 23:23:00,43.6,33.4,29.55,WSW,258,0.0,1.0,67,0.00,,---,0.01,VWS V14.01,2013-02-05 04:23:00,
2013-02-04 23:24:00,43.7,33.5,29.55,WSW,258,0.0,1.0,67,0.00,,---,0.01,VWS V14.01,2013-02-05 04:24:00,
2013-02-04 23:25:00,43.8,33.6,29.55,WSW,258,0.0,1.0,67,0.00,,---,0.01,VWS V14.01,2013-02-05 04:25:00,
2013-02-04 23:26:00,43.8,33.6,29.55,WSW,258,0.0,1.0,67,0.00,,---,0.01,VWS V14.01,2013-02-05 04:26:00,
2013-02-04 23:27:00,43.8,33.2,29.55,WSW,258,0.0,1.0,66,0.00,,---,0.01,VWS V14.01,2013-02-05 04:27:00,
2013-02-04 23:28:00,43.8,33.6,29.55,WSW,258,0.0,1.0,67,0.00,,---,0.01,VWS V14.01,2013-02-05 04:28:00,
2013-02-04 23:29:00,43.6,33.4,29.55,WSW,258,0.0,1.0,67,0.00,,---,0.01,VWS V14.01,2013-02-05 04:29:00,
2013-02-04 23:30:00,43.5,33.7,29.55,WSW,258,0.0,1.0,68,0.00,,---,0.01,VWS V14.01,2013-02-05 04:30:00,
2013-02-04 23:31:00,43.3,33.5,29.55,WSW,258,0.0,0.0,68,0.00,,---,0.01,VWS V14.01,2013-02-05 04:31:00,
2013-02-04 23:32:00,43.2,33.7,29.55,WSW,258,0.0,0.0,69,0.00,,---,0.01,VWS V14.01,2013-02-05 04:32:00,
2013-02-04 23:33:00,43.1,33.6,29.55,WSW,258,0.0,0.0,69,0.00,,---,0.01,VWS V14.01,2013-02-05 04:33:00,
2013-02-04 23:34:00,42.9,33.8,29.55,WSW,258,0.0,0.0,70,0.00,,---,0.01,VWS V14.01,2013-02-05 04:34:00,
2013-02-04 23:35:00,42.7,34.0,29.55,WSW,258,0.0,0.0,71,0.00,,---,0.01,VWS V14.01,2013-02-05 04:35:00,
2013-02-04 23:36:00,42.6,33.9,29.55,WSW,258,0.0,0.0,71,0.00,,---,0.01,VWS V14.01,2013-02-05 04:36:00,
2013-02-04 23:37:00,42.4,34.0,29.55,WSW,258,0.0,1.0,72,0.00,,---,0.01,VWS V14.01,2013-02-05 04:37:00,
2013-02-04 23:38:00,42.3,33.9,29.55,WSW,258,0.0,1.0,72,0.00,,---,0.01,VWS V14.01,2013-02-05 04:38:00,
2013-02-04 23:39:00,42.2,33.8,29.55,WSW,258,0.0,1.0,72,0.00,,---,0.01,VWS V14.01,2013-02-05 04:39:00,
2013-02-04 23:40:00,42.1,34.4,29.55,WSW,258,0.0,1.0,74,0.00,,---,0.01,VWS V14.01,2013-02-05 04:40:00,
2013-02-04 23:41:00,41.9,34.2,29.55,WSW,258,0.0,1.0,74,0.00,,---,0.01,VWS V14.01,2013-02-05 04:41:00,
2013-02-04 23:42:00,41.8,34.1,29.55,WSW,258,0.0,1.0,74,0.00,,---,0.01,VWS V14.01,2013-02-05 04:42:00,
2013-02-04 23:43:00,41.7,34.0,29.55,WSW,258,0.0,1.0,74,0.00,,---,0.01,VWS V14.01,2013-02-05 04:43:00,
2013-02-04 23:44:00,41.6,33.9,29.55,WSW,258,0.0,1.0,74,0.00,,---,0.01,VWS V14.01,2013-02-05 04:44:00,
2013-02-04 23:45:00,41.6,33.9,29.55,WSW,258,0.0,1.0,74,0.00,,---,0.01,VWS V14.01,2013-02-05 04:45:00,
2013-02-04 23:46:00,41.6,33.9,29.55,WSW,258,0.0,1.0,74,0.00,,---,0.01,VWS V14.01,2013-02-05 04:46:00,
2013-02-04 23:47:00,41.5,33.8,29.55,WSW,258,0.0,1.0,74,0.00,,---,0.01,VWS V14.01,2013-02-05 04:47:00,
2013-02-04 23:48:00,41.5,33.5,29.55,WSW,258,0.0,1.0,73,0.00,,---,0.01,VWS V14.01,2013-02-05 04:48:00,
2013-02-04 23:49:00,41.5,33.5,29.55,WSW,258,0.0,1.0,73,0.00,,---,0.01,VWS V14.01,2013-02-05 04:49:00,
2013-02-04 23:50:00,41.5,33.5,29.54,WSW,258,0.0,1.0,73,0.00,,---,0.01,VWS V14.01,2013-02-05 04:50:00,
2013-02-04 23:51:00,41.6,33.6,29.54,WSW,258,0.0,1.0,73,0.00,,---,0.01,VWS V14.01,2013-02-05 04:51:00,
2013-02-04 23:52:00,41.7,33.3,29.54,WSW,258,0.0,1.0,72,0.00,,---,0.01,VWS V14.01,2013-02-05 04:52:00,
2013-02-04 23:53:00,41.7,33.3,29.54,WSW,258,0.0,1.0,72,0.00,,---,0.01,VWS V14.01,2013-02-05 04:53:00,
2013-02-04 23:54:00,41.8,33.5,29.54,WSW,258,0.0,1.0,72,0.00,,---,0.01,VWS V14.01,2013-02-05 04:54:00,
2013-02-04 23:55:00,41.8,33.5,29.54,WSW,258,0.0,1.0,72,0.00,,---,0.01,VWS V14.01,2013-02-05 04:55:00,
2013-02-04 23:56:00,41.8,33.5,29.54,WSW,258,0.0,1.0,72,0.00,,---,0.01,VWS V14.01,2013-02-05 04:56:00,
2013-02-04 23:57:00,41.8,33.5,29.54,WSW,258,0.0,1.0,72,0.00,,---,0.01,VWS V14.01,2013-02-05 04:57:00,
2013-02-04 23:58:00,41.8,33.5,29.54,WSW,258,0.0,1.0,72,0.00,,---,0.01,VWS V14.01,2013-02-05 04:58:00,
2013-02-04 23:59:00,41.8,33.5,29.54,WSW,258,0.0,1.0,72,0.00,,---,0.01,VWS V14.01,2013-02-05 04:59:00,